ftp/pub/palmer/observations_modified/2019/August/AR190825_BASE.txt

Download

Sample DateTime	Unit Id	WS Avg 2min	WD Avg 2min	WGS 10min	WGD 10min	Air Temp	Rel Humidity	Dew Point	Pyranometer	Quantum	Air Pressure	Snow Level	Rainfall	PW Current	Visibility	CBase 1	CBase 2	CBase 3	Vert Vis
2019/08/25  00:00:00  BASE  0.87612  126  1.39356  196  1.1   82    -1.5  0     0     995.5    NA       0.0000   9999     6660  0     0    
2019/08/25  00:01:00  BASE  1.35828  125  1.66404  122  1.1   82    -1.6  0     0     995.5    NA       0.0000   9999     8530  0     0    
2019/08/25  00:02:00  BASE  1.49352  126  1.84632  130  1.1   83    -1.5  0     0     995.5    NA       0.0000   9999     8860  0     0    
2019/08/25  00:03:00  BASE  1.029    120  1.84632  130  1.1   83    -1.5  0     0     995.5    NA       0.0000   9999     8830  0     0    
2019/08/25  00:04:00  BASE  0.62328  121  1.84632  130  1.1   82    -1.6  0     0     995.4    NA       0.0000   9999     8990  0     0    
2019/08/25  00:05:00  BASE  0.75264  149  1.84632  130  1.0   82    -1.7  0     0     995.4    NA       0.0000   9999     7420  0     0    
2019/08/25  00:06:00  BASE  0.91728  169  1.84632  130  0.9   83    -1.7  0     0     995.4    NA       0.0000   9999     8430  0     0    
2019/08/25  00:07:00  BASE  1.24656  156  1.87572  141  0.8   83    -1.8  0     0     995.4    NA       0.0000   9999     9420  0     0    
2019/08/25  00:08:00  BASE  0.98784  134  1.87572  141  0.8   83    -1.7  0     0     995.4    NA       0.0000   9999     9120  0     0    
2019/08/25  00:09:00  BASE  0.60564  130  1.87572  141  0.8   84    -1.6  0     0     995.4    NA       0.0000   9999     9090  0     0    
2019/08/25  00:10:00  BASE  0.38808  142  1.87572  141  0.8   84    -1.6  0     0     995.4    NA       0.0000   9999     8860  0     0    
2019/08/25  00:11:00  BASE  0.4704   158  1.87572  141  0.7   84    -1.7  0     0     995.3    NA       0.0000   9999     8500  0     0    
2019/08/25  00:12:00  BASE  0.94668  178  1.87572  141  0.7   84    -1.7  0     0     995.3    NA       0.0000   9999     8660  0     0    
2019/08/25  00:13:00  BASE  1.2054   194  1.87572  141  0.5   85    -1.8  0     0     995.3    NA       0.0000   9999     8790  0     0    
2019/08/25  00:14:00  BASE  1.49352  210  1.96392  224  0.4   85    -1.8  0     0     995.3    NA       0.0000   9999     8430  0     0    
2019/08/25  00:15:00  BASE  1.71108  227  1.9992   235  0.3   86    -1.8  0     0     995.3    NA       0.0000   9999     8600  0     0    
2019/08/25  00:16:00  BASE  1.66992  236  1.9992   235  0.2   87    -1.8  0     0     995.3    NA       0.0000   9999     0     0     0    
2019/08/25  00:17:00  BASE  1.22304  224  1.9992   235  0.1   88    -1.7  0     0     995.3    NA       0.0000   9999     9250  0     0    
2019/08/25  00:18:00  BASE  0.75264  208  1.9992   235  0.0   88    -1.7  0     0     995.3    NA       0.0000   9999     9550  0     0    
2019/08/25  00:19:00  BASE  1.06428  198  1.9992   235  -0.0  89    -1.6  0     0     995.3    NA       0.0000   9999     8370  9610  0    
2019/08/25  00:20:00  BASE  1.54644  167  1.9992   235  -0.1  90    -1.6  0     0     995.2    NA       0.0000   9999     8430  0     0    
2019/08/25  00:21:00  BASE  0.92904  148  1.9992   235  0.0   90    -1.4  0     0     995.2    NA       0.0000   9999     8500  0     0    
2019/08/25  00:22:00  BASE  0.78792  148  1.9992   235  0.2   91    -1.2  0     0     995.2    NA       0.0000   9999     8460  0     0    
2019/08/25  00:23:00  BASE  1.13484  145  1.9992   235  0.3   90    -1.2  0     0     995.2    NA       0.0000   9999     8530  0     0    
2019/08/25  00:24:00  BASE  1.01724  138  1.9992   235  0.3   90    -1.2  0     0     995.2    NA       0.0000   9999     8690  0     0    
2019/08/25  00:25:00  BASE  1.05252  134  1.96392  162  0.3   89    -1.2  0     0     995.2    NA       0.0000   9999     8730  0     0    
2019/08/25  00:26:00  BASE  1.11132  144  1.96392  162  0.2   88    -1.5  0     0     995.2    NA       0.0000   9999     8790  0     0    
2019/08/25  00:27:00  BASE  1.11132  168  1.96392  162  0.0   88    -1.7  0     0     995.2    NA       0.0000   9999     8830  0     0    
2019/08/25  00:28:00  BASE  1.029    178  1.96392  162  -0.2  88    -1.9  0     0     995.2    NA       0.0000   9999     8860  0     0    
2019/08/25  00:29:00  BASE  1.77576  152  2.99292  135  -0.4  89    -1.9  0     0     995.2    NA       0.0000   9999     8790  0     0    
2019/08/25  00:30:00  BASE  2.793    129  3.2046   131  -0.4  90    -1.8  0     0     995.2    NA       0.0000   9999     8890  0     0    
2019/08/25  00:31:00  BASE  3.06348  123  3.29868  117  -0.2  91    -1.5  0     0     995.2    NA       0.0000   9999     9090  0     0    
2019/08/25  00:32:00  BASE  3.12228  121  3.38688  120  0.1   92    -1.1  0     0     995.2    NA       0.0000   9999     9150  0     0    
2019/08/25  00:33:00  BASE  3.43392  121  4.1748   116  0.5   92    -0.7  0     0     995.2    NA       0.0000   9999     9150  0     0    
2019/08/25  00:34:00  BASE  3.7632   113  4.2042   101  0.9   91    -0.4  0     0     995.2    NA       0.0000   9999     8010  0     0    
2019/08/25  00:35:00  BASE  3.57504  106  4.2042   101  1.2   89    -0.4  0     0     995.2    NA       0.0000   9999     9680  0     0    
2019/08/25  00:36:00  BASE  3.03996  113  4.2042   101  1.3   87    -0.5  0     0     995.2    NA       0.0000   9999     7870  0     0    
2019/08/25  00:37:00  BASE  2.77536  118  4.2042   101  1.4   86    -0.7  0     0     995.2    NA       0.0000   9999     8010  0     0    
2019/08/25  00:38:00  BASE  2.8812   119  4.2042   101  1.4   85    -0.9  0     0     995.3    NA       0.0000   9999     7940  0     0    
2019/08/25  00:39:00  BASE  2.98116  123  4.2042   101  1.4   84    -1.1  0     0     995.3    NA       0.0000   9999     8040  0     0    
2019/08/25  00:40:00  BASE  3.38688  119  4.2042   101  1.3   83    -1.2  0     0     995.3    NA       0.0000   9999     7910  0     0    
2019/08/25  00:41:00  BASE  3.69264  117  4.2042   101  1.3   84    -1.2  0     0     995.3    NA       0.0000   9999     7810  0     0    
2019/08/25  00:42:00  BASE  3.60444  116  4.2042   101  1.2   84    -1.1  0     0     995.3    NA       0.0000   9999     7870  9020  0    
2019/08/25  00:43:00  BASE  3.75144  113  4.263    110  1.2   85    -1.1  0     0     995.3    NA       0.0000   9999     7680  0     0    
2019/08/25  00:44:00  BASE  4.16304  110  4.78044  112  1.2   85    -1.0  0     0     995.3    NA       0.0000   9999     7550  0     0    
2019/08/25  00:45:00  BASE  4.3806   108  4.78044  112  1.2   86    -1.0  0     0     995.2    NA       0.0000   9999     7450  0     0    
2019/08/25  00:46:00  BASE  4.39236  109  4.78044  112  1.1   86    -0.9  0     0     995.2    NA       0.0000   9999     7510  0     0    
2019/08/25  00:47:00  BASE  4.50996  112  4.93332  117  1.1   87    -0.9  0     0     995.2    NA       0.0000   9999     7350  0     0    
2019/08/25  00:48:00  BASE  4.40412  115  4.93332  117  1.2   87    -0.7  0     0     995.2    NA       0.0000   9999     7420  0     0    
2019/08/25  00:49:00  BASE  4.30416  116  4.93332  117  1.3   87    -0.6  0     0     995.1    NA       0.0000   9999     9350  0     0    
2019/08/25  00:50:00  BASE  4.263    117  4.93332  117  1.5   87    -0.4  0     0     995.1    NA       0.0000   9999     9380  0     0    
2019/08/25  00:51:00  BASE  4.13364  120  4.93332  117  1.6   86    -0.4  0     0     995.1    NA       0.0000   9999     9580  0     0    
2019/08/25  00:52:00  BASE  4.26888  123  4.93332  117  1.7   85    -0.4  0     0     995.1    NA       0.0000   9999     9910  0     0    
2019/08/25  00:53:00  BASE  4.3806   126  4.93332  117  1.9   84    -0.5  0     0     995.1    NA       0.0000   9999     8500  0     0    
2019/08/25  00:54:00  BASE  4.47468  128  4.93332  117  2.0   83    -0.6  0     0     995.1    NA       0.0000   9999     8630  0     0    
2019/08/25  00:55:00  BASE  4.28652  132  4.93332  117  2.1   82    -0.6  0     0     995.1    NA       0.0000   9999     9780  0     0    
2019/08/25  00:56:00  BASE  3.90432  135  4.93332  117  2.2   81    -0.7  0     0     995.1    NA       0.0000   9999     9740  0     0    
2019/08/25  00:57:00  BASE  3.56916  133  4.75104  128  2.3   80    -0.9  0     0     995.1    NA       0.0000   9999     8040  0     0    
2019/08/25  00:58:00  BASE  3.45156  125  4.75104  128  2.3   79    -1.0  0     0     995.0    NA       0.0000   9999     7870  0     0    
2019/08/25  00:59:00  BASE  3.65736  114  4.75104  128  2.3   79    -1.1  0     0     995.1    NA       0.0000   9999     9190  0     0    
2019/08/25  01:00:00  BASE  4.13952  106  5.1744   105  2.2   78    -1.1  0     0     995.0    NA       0.0000   9999     7940  0     0    
2019/08/25  01:01:00  BASE  4.32768  104  5.1744   105  2.2   79    -1.1  0     0     995.0    NA       0.0000   9999     9380  0     0    
2019/08/25  01:02:00  BASE  4.26888  102  5.1744   105  2.2   79    -1.0  0     0     995.0    NA       0.0000   9999     9250  0     0    
2019/08/25  01:03:00  BASE  4.56288  100  5.1744   105  2.2   79    -1.0  0     0     994.9    NA       0.0000   9999     9120  0     0    
2019/08/25  01:04:00  BASE  4.98036  102  5.68596  102  2.2   80    -1.0  0     0     994.9    NA       0.0000   9999     9190  0     0    
2019/08/25  01:05:00  BASE  4.98036  105  5.68596  102  2.2   80    -0.9  0     0     994.9    NA       0.0000   9999     9320  0     0    
2019/08/25  01:06:00  BASE  4.56876  107  5.68596  102  2.2   80    -0.9  0     0     995.0    NA       0.0000   9999     5710  0     0    
2019/08/25  01:07:00  BASE  4.56876  113  5.68596  102  2.2   81    -0.8  0     0     995.0    NA       0.0000   9999     9480  0     0    
2019/08/25  01:08:00  BASE  4.53936  119  5.68596  102  2.3   81    -0.7  0     0     995.0    NA       0.0000   9999     7910  0     0    
2019/08/25  01:09:00  BASE  4.42176  120  5.68596  102  2.4   80    -0.7  0     0     995.0    NA       0.0000   9999     7970  0     0    
2019/08/25  01:10:00  BASE  4.36296  121  5.68596  102  2.5   79    -0.7  0     0     994.9    NA       0.0000   9999     8530  0     0    
2019/08/25  01:11:00  BASE  3.95136  122  5.68596  102  2.7   78    -0.8  0     0     994.9    NA       0.0000   9999     8430  0     0    
2019/08/25  01:12:00  BASE  3.97488  123  5.68596  102  2.8   77    -0.9  0     0     994.9    NA       0.0000   9999     8370  0     0    
2019/08/25  01:13:00  BASE  4.09248  123  5.68596  102  2.8   76    -1.0  0     0     994.9    NA       0.0000   9999     8460  0     0    
2019/08/25  01:14:00  BASE  4.0278   122  5.2038   112  2.8   76    -1.0  0     0     994.9    NA       0.0000   9999     8500  0     0    
2019/08/25  01:15:00  BASE  3.89844  122  5.2038   112  2.8   76    -1.0  0     0     994.9    NA       0.0000   9999     8500  0     0    
2019/08/25  01:16:00  BASE  3.36336  121  5.08032  121  2.8   76    -1.0  0     0     994.9    NA       0.0000   9999     8370  0     0    
2019/08/25  01:17:00  BASE  3.08112  119  4.93332  121  2.8   76    -1.0  0     0     994.9    NA       0.0000   9999     8140  0     0    
2019/08/25  01:18:00  BASE  2.98704  121  4.93332  121  2.7   77    -1.0  0     0     994.9    NA       0.0000   9999     8460  0     0    
2019/08/25  01:19:00  BASE  2.85768  128  4.93332  121  2.6   77    -1.0  0     0     994.9    NA       0.0000   9999     8630  0     0    
2019/08/25  01:20:00  BASE  2.78712  135  4.65696  125  2.6   77    -1.0  0     0     994.8    NA       0.0000   9999     8860  0     0    
2019/08/25  01:21:00  BASE  2.7342   138  4.65696  125  2.5   78    -1.0  0     0     994.8    NA       0.0000   9999     8600  0     0    
2019/08/25  01:22:00  BASE  2.5284   136  4.44528  123  2.5   78    -1.0  0     0     994.8    NA       0.0000   9999     8690  0     0    
2019/08/25  01:23:00  BASE  1.76988  143  4.44528  123  2.4   78    -1.1  0     0     994.8    NA       0.0000   9999     9710  0     0    
2019/08/25  01:24:00  BASE  0.62916  167  3.96312  123  2.3   78    -1.3  0     0     994.8    NA       0.0000   9999     9510  0     0    
2019/08/25  01:25:00  BASE  0.27048  2    3.53976  119  2.1   78    -1.3  0     0     994.8    NA       0.0000   9999     9550  0     0    
2019/08/25  01:26:00  BASE  0.3234   9    3.26928  123  1.9   79    -1.4  0     0     994.8    NA       0.0000   9999     9510  0     0    
2019/08/25  01:27:00  BASE  0.10584  336  3.087    123  1.7   80    -1.4  0     0     994.8    NA       0.0000   9999     9290  0     0    
2019/08/25  01:28:00  BASE  0.19404  302  3.02232  137  1.6   81    -1.4  0     0     994.7    NA       0.0000   9999     8600  0     0    
2019/08/25  01:29:00  BASE  0.34692  281  2.99292  139  1.6   82    -1.2  0     0     994.7    NA       0.2540   9999     7740  0     0    
2019/08/25  01:30:00  BASE  0.19992  265  2.99292  139  1.6   81    -1.3  0     0     994.7    NA       0.0000   9999     8760  0     0    
2019/08/25  01:31:00  BASE  0.02352  281  2.66364  134  1.5   82    -1.3  0     0     994.7    NA       0.0000   9999     9020  0     0    
2019/08/25  01:32:00  BASE  0.6762   234  2.32848  172  1.3   82    -1.5  0     0     994.7    NA       0.0000   9999     7190  0     0    
2019/08/25  01:33:00  BASE  1.6464   174  2.32848  172  1.1   82    -1.7  0     0     994.7    NA       0.0000   9999     7220  0     0    
2019/08/25  01:34:00  BASE  1.4406   172  2.32848  172  0.8   82    -1.9  0     0     994.7    NA       0.0000   9999     7480  0     0    
2019/08/25  01:35:00  BASE  0.77616  145  2.32848  172  0.5   83    -2.0  0     0     994.7    NA       0.0000   9999     7090  0     0    
2019/08/25  01:36:00  BASE  0.4704   99   2.32848  172  0.4   84    -1.9  0     0     994.7    NA       0.0000   9999     7120  0     0    
2019/08/25  01:37:00  BASE  0.8232   140  2.32848  172  0.3   85    -1.9  0     0     994.7    NA       0.0000   9999     7090  0     0    
2019/08/25  01:38:00  BASE  1.43472  175  2.32848  172  0.3   86    -1.8  0     0     994.7    NA       0.0000   9999     6990  0     0    
2019/08/25  01:39:00  BASE  1.53468  183  2.32848  172  0.3   87    -1.7  0     0     994.7    NA       0.0000   9999     6820  0     0    
2019/08/25  01:40:00  BASE  1.74636  191  2.32848  172  0.2   87    -1.7  0     0     994.7    NA       0.0000   9999     6790  0     0    
2019/08/25  01:41:00  BASE  2.00508  180  2.32848  172  0.0   88    -1.8  0     0     994.7    NA       0.0000   9999     7250  0     0    
2019/08/25  01:42:00  BASE  1.95804  163  2.29908  171  -0.1  88    -1.8  0     0     994.7    NA       0.0000   9999     6990  0     0    
2019/08/25  01:43:00  BASE  1.96392  152  2.29908  171  -0.1  89    -1.7  0     0     994.7    NA       0.0000   9999     7020  0     0    
2019/08/25  01:44:00  BASE  1.85808  140  2.29908  171  -0.1  90    -1.6  0     0     994.7    NA       0.0000   9999     6300  0     0    
2019/08/25  01:45:00  BASE  1.323    130  2.29908  171  -0.0  91    -1.4  0     0     994.7    NA       0.0000   9999     7870  0     0    
2019/08/25  01:46:00  BASE  1.07604  131  2.29908  171  0.1   91    -1.2  0     0     994.7    NA       0.0000   9999     7840  0     0    
2019/08/25  01:47:00  BASE  0.95256  134  2.29908  171  0.3   92    -0.9  0     0     994.7    NA       0.0000   9999     7810  0     0    
2019/08/25  01:48:00  BASE  0.588    137  2.29908  171  0.5   92    -0.7  0     0     994.7    NA       0.0000   9999     6730  0     0    
2019/08/25  01:49:00  BASE  0.74676  144  2.29908  171  0.7   91    -0.6  0     0     994.6    NA       0.0000   9999     7510  0     0    
2019/08/25  01:50:00  BASE  1.00548  150  2.29908  171  0.8   90    -0.6  0     0     994.6    NA       0.0000   9999     7420  0     0    
2019/08/25  01:51:00  BASE  1.2936   153  2.21088  149  0.8   89    -0.8  0     0     994.6    NA       0.0000   9999     7250  0     0    
2019/08/25  01:52:00  BASE  1.7934   150  2.21088  148  0.7   88    -1.0  0     0     994.6    NA       0.0000   9999     7280  0     0    
2019/08/25  01:53:00  BASE  1.8522   139  2.21088  148  0.5   88    -1.2  0     0     994.6    NA       0.0000   9999     7450  0     0    
2019/08/25  01:54:00  BASE  1.78752  139  2.63424  141  0.4   89    -1.3  0     0     994.6    NA       0.0000   9999     6430  0     0    
2019/08/25  01:55:00  BASE  2.22852  140  3.2046   140  0.3   89    -1.2  0     0     994.5    NA       0.0000   9999     7380  0     0    
2019/08/25  01:56:00  BASE  2.80476  143  3.29868  158  0.3   90    -1.1  0     0     994.5    NA       0.0000   9999     7480  0     0    
2019/08/25  01:57:00  BASE  2.89296  149  3.29868  158  0.5   91    -0.9  0     0     994.5    NA       0.0000   9999     6230  0     0    
2019/08/25  01:58:00  BASE  2.499    148  3.29868  158  0.6   91    -0.8  0     0     994.5    NA       0.0000   9999     7380  0     0    
2019/08/25  01:59:00  BASE  2.04036  140  3.29868  158  0.7   91    -0.6  0     0     994.5    NA       0.0000   9999     7450  0     0    
2019/08/25  02:00:00  BASE  1.58172  112  3.29868  158  0.8   90    -0.6  0     0     994.5    NA       0.0000   9999     6200  0     0    
2019/08/25  02:01:00  BASE  1.47588  54   3.29868  158  0.8   90    -0.6  0     0     994.5    NA       0.0000   9999     6170  0     0    
2019/08/25  02:02:00  BASE  1.72284  21   3.29868  158  0.7   89    -0.8  0     0     994.5    NA       0.0000   9999     6400  0     0    
2019/08/25  02:03:00  BASE  1.2642   28   3.29868  158  0.5   90    -1.0  0     0     994.5    NA       0.0000   9999     6460  0     0    
2019/08/25  02:04:00  BASE  0.37044  24   3.29868  158  0.5   90    -1.0  0     0     994.5    NA       0.0000   9999     6460  0     0    
2019/08/25  02:05:00  BASE  0        40   3.29868  158  0.5   91    -0.8  0     0     994.5    NA       0.0000   9999     6400  0     0    
2019/08/25  02:06:00  BASE  0.18816  118  3.087    143  0.7   91    -0.7  0     0     994.5    NA       0.0000   9999     5770  0     0    
2019/08/25  02:07:00  BASE  0.72912  126  2.81064  154  0.9   90    -0.5  0     0     994.4    NA       0.0000   9999     6590  0     0    
2019/08/25  02:08:00  BASE  1.1172   79   2.1462   18   1.2   89    -0.3  0     0     994.4    NA       0.0000   9999     5970  0     0    
2019/08/25  02:09:00  BASE  0.89964  101  2.1462   18   1.5   88    -0.4  0     0     994.4    NA       0.0000   9999     6040  0     0    
2019/08/25  02:10:00  BASE  0.6174   135  2.1462   18   1.5   86    -0.6  0     0     994.5    NA       0.0000   9999     6230  0     0    
2019/08/25  02:11:00  BASE  0.74088  137  1.9992   21   1.4   85    -0.9  0     0     994.5    NA       0.0000   9999     6000  0     0    
2019/08/25  02:12:00  BASE  0.69384  122  1.90512  68   1.4   84    -1.0  0     0     994.5    NA       0.0000   9999     5970  0     0    
2019/08/25  02:13:00  BASE  0.53508  97   1.90512  68   1.3   84    -1.2  0     0     994.5    NA       0.0000   9999     6040  0     0    
2019/08/25  02:14:00  BASE  0.89376  47   1.90512  68   1.0   84    -1.3  0     0     994.5    NA       0.0000   9999     5940  0     0    
2019/08/25  02:15:00  BASE  1.12308  13   1.90512  68   0.9   85    -1.3  0     0     994.5    NA       0.2540   9999     5940  0     0    
2019/08/25  02:16:00  BASE  0.63504  20   1.90512  68   0.8   86    -1.3  0     0     994.5    NA       0.0000   9999     5940  0     0    
2019/08/25  02:17:00  BASE  0.1176   26   1.90512  68   0.7   86    -1.3  0     0     994.5    NA       0.0000   9999     6000  0     0    
2019/08/25  02:18:00  BASE  0.15288  40   1.42296  1    0.7   87    -1.2  0     0     994.5    NA       0.0000   9999     5580  0     0    
2019/08/25  02:19:00  BASE  0.21168  87   1.42296  1    0.7   88    -1.1  0     0     994.5    NA       0.0000   9999     6960  0     0    
2019/08/25  02:20:00  BASE  0.17052  70   1.42296  1    0.8   88    -1.0  0     0     994.5    NA       0.0000   9999     5580  0     0    
2019/08/25  02:21:00  BASE  0.3528   340  1.42296  1    0.8   87    -1.1  0     0     994.5    NA       0.0000   9999     6990  0     0    
2019/08/25  02:22:00  BASE  0.29988  323  1.42296  1    0.8   87    -1.0  0     0     994.5    NA       0.0000   9999     3670  0     0    
2019/08/25  02:23:00  BASE  0.05292  317  1.42296  1    0.9   87    -1.0  0     0     994.4    NA       0.0000   9999     5840  0     0    
2019/08/25  02:24:00  BASE  0.08232  317  1.24068  16   0.9   87    -1.0  0     0     994.4    NA       0.0000   9999     6330  0     0    
2019/08/25  02:25:00  BASE  0.48804  353  1.1466   85   1.0   87    -1.0  0     0     994.4    NA       0.0000   9999     5050  0     0    
2019/08/25  02:26:00  BASE  0.45864  38   1.1466   85   1.1   87    -0.9  0     0     994.4    NA       0.0000   9999     6170  0     0    
2019/08/25  02:27:00  BASE  0.11172  51   1.1466   85   1.2   86    -0.9  0     0     994.4    NA       0.0000   9999     5120  6270  0    
2019/08/25  02:28:00  BASE  0.18816  29   0.9702   320  1.3   85    -0.9  0     0     994.3    NA       0.0000   9999     4950  0     0    
2019/08/25  02:29:00  BASE  0.13524  8    0.9702   320  1.3   85    -0.9  0     0     994.2    NA       0.0000   9999     3610  0     0    
2019/08/25  02:30:00  BASE  0.22932  9    1.42296  10   1.5   84    -0.9  0     0     994.2    NA       0.0000   9999     2950  0     0    
2019/08/25  02:31:00  BASE  0.7056   16   1.42296  10   1.3   83    -1.2  0     0     994.2    NA       0.0000   9999     4200  0     0    
2019/08/25  02:32:00  BASE  0.74676  19   1.42296  10   0.9   83    -1.6  0     0     994.2    NA       0.0000   9999     6460  0     0    
2019/08/25  02:33:00  BASE  0.27048  17   1.42296  10   0.6   84    -1.7  0     0     994.2    NA       0.0000   9999     3710  0     0    
2019/08/25  02:34:00  BASE  0        16   1.42296  10   0.3   86    -1.9  0     0     994.2    NA       0.0000   9999     3770  0     0    
2019/08/25  02:35:00  BASE  0.1176   34   1.42296  10   0.1   88    -1.7  0     0     994.1    NA       0.0000   9999     3900  0     0    
2019/08/25  02:36:00  BASE  0.45276  54   1.42296  10   0.2   90    -1.3  0     0     994.2    NA       0.0000   9999     4270  0     0    
2019/08/25  02:37:00  BASE  0.95256  39   1.42296  22   0.3   91    -1.0  0     0     994.2    NA       0.0000   9999     4130  0     0    
2019/08/25  02:38:00  BASE  1.45824  4    1.9992   335  0.3   91    -1.0  0     0     994.2    NA       0.0000   9999     3770  0     0    
2019/08/25  02:39:00  BASE  1.89336  335  2.24028  321  0.2   91    -1.0  0     0     994.1    NA       0.0000   9999     3610  0     0    
2019/08/25  02:40:00  BASE  2.24028  319  2.54016  312  0.0   91    -1.2  0     0     994.1    NA       0.0000   9999     3770  0     0    
2019/08/25  02:41:00  BASE  2.24616  309  2.54016  312  -0.2  92    -1.4  0     0     994.1    NA       0.0000   9999     3810  0     0    
2019/08/25  02:42:00  BASE  2.04036  304  2.54016  312  -0.4  93    -1.4  0     0     994.1    NA       0.0000   9999     4300  0     0    
2019/08/25  02:43:00  BASE  1.9698   304  2.54016  312  -0.4  94    -1.3  0     0     994.1    NA       0.0000   9999     4400  0     0    
2019/08/25  02:44:00  BASE  1.99332  305  2.54016  312  -0.5  95    -1.3  0     0     994.1    NA       0.0000   9999     4230  0     0    
2019/08/25  02:45:00  BASE  2.16384  311  2.54016  312  -0.6  95    -1.3  0     0     994.1    NA       0.0000   9999     4040  0     0    
2019/08/25  02:46:00  BASE  2.25204  313  2.54016  312  -0.7  96    -1.3  0     0     994.1    NA       0.0000   9999     3610  0     0    
2019/08/25  02:47:00  BASE  2.0874   308  2.54016  312  -0.8  96    -1.3  0     0     994.0    NA       0.0000   9999     3310  0     0    
2019/08/25  02:48:00  BASE  1.94628  299  2.54016  312  -0.9  97    -1.3  0     0     994.0    NA       0.0000   9999     3870  0     0    
2019/08/25  02:49:00  BASE  1.83456  289  2.54016  312  -1.0  98    -1.3  0     0     993.9    NA       0.0000   9999     3410  0     0    
2019/08/25  02:50:00  BASE  1.66404  283  2.35788  314  -1.0  99    -1.2  0     0     993.9    NA       0.0000   9999     3380  0     0    
2019/08/25  02:51:00  BASE  1.54056  284  2.35788  314  -0.9  99    -1.0  0     0     993.9    NA       0.0000   9999     3510  0     0    
2019/08/25  02:52:00  BASE  1.42296  292  2.35788  314  -0.9  100   -0.9  0     0     993.9    NA       0.0000   9999     3410  0     0    
2019/08/25  02:53:00  BASE  1.51704  305  2.35788  314  -0.8  100   -0.8  0     0     993.9    NA       0.0000   9999     3450  0     0    
2019/08/25  02:54:00  BASE  2.08152  320  3.51036  338  -0.7  100   -0.7  0     0     993.9    NA       0.0000   9999     3310  0     0    
2019/08/25  02:55:00  BASE  2.72244  346  3.59856  339  -0.7  100   -0.7  0     0     994.0    NA       0.0000   9999     3900  0     0    
2019/08/25  02:56:00  BASE  2.83416  17   3.59856  339  -0.8  100   -0.8  0     0     993.9    NA       0.0000   9999     3810  0     0    
2019/08/25  02:57:00  BASE  2.42256  20   3.59856  339  -0.9  100   -0.9  0     0     993.9    NA       0.0000   9999     3540  0     0    
2019/08/25  02:58:00  BASE  1.764    349  3.59856  339  -0.9  100   -0.9  0     0     993.9    NA       0.0000   9999     3480  0     0    
2019/08/25  02:59:00  BASE  1.28184  330  3.59856  339  -0.8  100   -0.8  0     0     993.9    NA       0.0000   9999     4130  0     0    
2019/08/25  03:00:00  BASE  1.09956  338  3.59856  339  -0.7  100   -0.7  0     0     993.8    NA       0.0000   9999     4790  0     0    
2019/08/25  03:01:00  BASE  0.98196  356  3.59856  339  -0.6  100   -0.6  0     0     993.7    NA       0.0000   9999     4400  0     0    
2019/08/25  03:02:00  BASE  1.029    1    3.59856  339  -0.5  100   -0.5  0     0     993.7    NA       0.0000   9999     4950  0     0    
2019/08/25  03:03:00  BASE  0.98784  354  3.59856  339  -0.5  100   -0.5  0     0     993.7    NA       0.0000   9999     4760  0     0    
2019/08/25  03:04:00  BASE  0.92904  345  3.59856  339  -0.5  100   -0.5  0     0     993.8    NA       0.0000   9999     4530  0     0    
2019/08/25  03:05:00  BASE  1.176    330  2.93412  28   -0.5  100   -0.5  0     0     993.7    NA       0.0000   9999     4690  0     0    
2019/08/25  03:06:00  BASE  1.45236  309  2.54016  19   -0.5  100   -0.5  0     0     993.7    NA       0.0000   9999     4590  0     0    
2019/08/25  03:07:00  BASE  1.75812  299  2.35788  301  -0.6  100   -0.6  0     0     993.7    NA       0.0000   9999     4690  0     0    
2019/08/25  03:08:00  BASE  2.14032  301  2.42256  304  -0.6  100   -0.6  0     0     993.6    NA       0.0000   9999     4590  0     0    
2019/08/25  03:09:00  BASE  2.16972  305  2.42256  304  -0.6  100   -0.6  0     0     993.6    NA       0.0000   9999     4630  0     0    
2019/08/25  03:10:00  BASE  1.91688  307  2.42256  304  -0.6  100   -0.6  0     0     993.6    NA       0.0000   9999     4400  0     0    
2019/08/25  03:11:00  BASE  1.7934   308  2.42256  304  -0.6  100   -0.6  0     0     993.6    NA       0.0000   9999     4530  0     0    
2019/08/25  03:12:00  BASE  1.89336  315  2.42256  304  -0.6  100   -0.6  0     0     993.7    NA       0.0000   9999     4530  0     0    
2019/08/25  03:13:00  BASE  2.19324  335  2.56956  354  -0.6  100   -0.6  0     0     993.7    NA       0.0000   9999     4530  0     0    
2019/08/25  03:14:00  BASE  2.64012  355  2.99292  360  -0.6  100   -0.6  0     0     993.7    NA       0.0000   9999     4560  0     0    
2019/08/25  03:15:00  BASE  2.91648  359  3.1458   360  -0.6  100   -0.6  0     0     993.7    NA       0.0000   9999     4430  0     0    
2019/08/25  03:16:00  BASE  2.99292  350  3.83964  333  -0.6  100   -0.6  0     0     993.6    NA       0.0000   9999     4760  0     0    
2019/08/25  03:17:00  BASE  3.234    340  3.83964  333  -0.6  100   -0.6  0     0     993.6    NA       0.0000   9999     4790  0     0    
2019/08/25  03:18:00  BASE  3.3222   329  3.83964  333  -0.6  100   -0.6  0     0     993.6    NA       0.0000   9999     4890  5740  0    
2019/08/25  03:19:00  BASE  3.25752  321  3.83964  333  -0.6  100   -0.6  0     0     993.6    NA       0.0000   9999     4920  0     0    
2019/08/25  03:20:00  BASE  2.98704  318  3.83964  333  -0.5  100   -0.5  0     0     993.6    NA       0.0000   9999     4890  0     0    
2019/08/25  03:21:00  BASE  2.39904  318  3.83964  333  -0.6  100   -0.6  0     0     993.6    NA       0.0000   9999     4820  0     0    
2019/08/25  03:22:00  BASE  2.19324  327  3.83964  333  -0.6  100   -0.6  0     0     993.6    NA       0.0000   9999     4920  0     0    
2019/08/25  03:23:00  BASE  2.7048   337  3.83964  333  -0.6  100   -0.6  0     0     993.6    NA       0.0000   9999     4890  0     0    
2019/08/25  03:24:00  BASE  3.27516  349  3.83964  360  -0.6  100   -0.6  0     0     993.6    NA       0.0000   9999     4820  0     0    
2019/08/25  03:25:00  BASE  2.96352  4    3.83964  360  -0.6  100   -0.6  0     0     993.6    NA       0.0000   9999     4760  0     0    
2019/08/25  03:26:00  BASE  2.44608  11   3.83964  360  -0.7  100   -0.7  0     0     993.6    NA       0.0000   9999     4950  0     0    
2019/08/25  03:27:00  BASE  1.9992   8    3.83964  360  -0.7  100   -0.7  0     0     993.6    NA       0.0000   9999     4890  0     0    
2019/08/25  03:28:00  BASE  2.00508  355  3.83964  360  -0.8  100   -0.8  0     0     993.5    NA       0.0000   9999     4170  5020  0    
2019/08/25  03:29:00  BASE  2.28732  341  3.83964  360  -0.7  100   -0.7  0     0     993.5    NA       0.0000   9999     5020  0     0    
2019/08/25  03:30:00  BASE  2.1756   333  3.83964  360  -0.7  100   -0.7  0     0     993.5    NA       0.0000   9999     5090  0     0    
2019/08/25  03:31:00  BASE  2.18736  320  3.83964  360  -0.6  100   -0.6  0     0     993.5    NA       0.0000   9999     5120  0     0    
2019/08/25  03:32:00  BASE  2.39904  313  3.83964  360  -0.5  100   -0.5  0     0     993.5    NA       0.0000   9999     5050  0     0    
2019/08/25  03:33:00  BASE  2.86356  317  3.83964  360  -0.3  100   -0.3  0     0     993.5    NA       0.0000   9999     5050  0     0    
2019/08/25  03:34:00  BASE  3.34572  324  3.75144  330  -0.3  100   -0.3  0     0     993.5    NA       0.0000   9999     5050  0     0    
2019/08/25  03:35:00  BASE  3.43392  332  3.75144  330  -0.3  100   -0.3  0     0     993.5    NA       0.0000   9999     5120  0     0    
2019/08/25  03:36:00  BASE  3.00468  343  3.75144  330  -0.3  100   -0.3  0     0     993.5    NA       0.0000   9999     4000  5180  0    
2019/08/25  03:37:00  BASE  2.52252  12   3.75144  330  -0.4  100   -0.4  0     0     993.5    NA       0.0000   9999     4270  5090  0    
2019/08/25  03:38:00  BASE  2.41668  37   3.75144  330  -0.4  100   -0.4  0     0     993.5    NA       0.0000   9999     4360  0     0    
2019/08/25  03:39:00  BASE  2.34024  47   3.75144  330  -0.4  100   -0.4  0     0     993.5    NA       0.0000   9999     4100  5180  0    
2019/08/25  03:40:00  BASE  2.05212  46   3.75144  330  -0.4  100   -0.4  0     0     993.5    NA       0.0000   9999     4490  5150  0    
2019/08/25  03:41:00  BASE  1.83456  23   3.75144  330  -0.3  100   -0.3  0     0     993.5    NA       0.0000   9999     5120  0     0    
2019/08/25  03:42:00  BASE  1.66992  0    3.75144  330  -0.1  100   -0.1  0     0     993.5    NA       0.0000   9999     4300  5090  0    
2019/08/25  03:43:00  BASE  1.4994   356  3.75144  330  0.1   100   0.1   0     0     993.5    NA       0.0000   9999     4230  5150  0    
2019/08/25  03:44:00  BASE  1.45824  340  3.48096  333  0.3   99    0.2   0     0     993.5    NA       0.0000   9999     5180  0     0    
2019/08/25  03:45:00  BASE  1.80516  326  3.29868  339  0.5   98    0.3   0     0     993.5    NA       0.0000   9999     5180  0     0    
2019/08/25  03:46:00  BASE  1.79928  331  3.087    54   0.6   97    0.2   0     0     993.5    NA       0.0000   9999     5250  0     0    
2019/08/25  03:47:00  BASE  1.3818   332  2.69304  54   0.6   96    0.1   0     0     993.5    NA       0.0000   9999     5250  0     0    
2019/08/25  03:48:00  BASE  1.2642   331  2.54016  332  0.7   95    -0.1  0     0     993.5    NA       0.0000   9999     5280  6140  0    
2019/08/25  03:49:00  BASE  1.37004  326  2.54016  332  0.7   94    -0.1  0     0     993.5    NA       0.0000   9999     5150  0     0    
2019/08/25  03:50:00  BASE  1.72872  330  2.54016  332  0.7   93    -0.2  0     0     993.5    NA       0.0000   9999     5180  0     0    
2019/08/25  03:51:00  BASE  1.93452  345  2.54016  332  0.7   93    -0.3  0     0     993.4    NA       0.0000   9999     5150  0     0    
2019/08/25  03:52:00  BASE  1.76988  0    2.54016  332  0.7   92    -0.4  0     0     993.4    NA       0.0000   9999     5150  0     0    
2019/08/25  03:53:00  BASE  1.51704  16   2.54016  332  0.6   92    -0.5  0     0     993.4    NA       0.0000   9999     5250  0     0    
2019/08/25  03:54:00  BASE  0.95256  31   2.54016  332  0.6   92    -0.6  0     0     993.4    NA       0.0000   9999     5150  0     0    
2019/08/25  03:55:00  BASE  0.25284  52   2.1756   331  0.6   92    -0.6  0     0     993.4    NA       0.0000   9999     5180  0     0    
2019/08/25  03:56:00  BASE  0        77   2.1756   331  0.5   92    -0.6  0     0     993.3    NA       0.0000   9999     5220  0     0    
2019/08/25  03:57:00  BASE  0.1176   96   2.1756   331  0.5   93    -0.6  0     0     993.3    NA       0.0000   9999     5220  0     0    
2019/08/25  03:58:00  BASE  0.1176   103  2.1756   331  0.5   93    -0.5  0     0     993.3    NA       0.0000   9999     5180  0     0    
2019/08/25  03:59:00  BASE  0.27636  68   2.1756   331  0.5   93    -0.5  0     0     993.3    NA       0.0000   9999     5250  0     0    
2019/08/25  04:00:00  BASE  0.54096  27   2.0874   353  0.6   93    -0.4  0     0     993.3    NA       0.0000   9999     4460  0     0    
2019/08/25  04:01:00  BASE  0.68208  17   1.90512  2    0.7   93    -0.3  0     0     993.3    NA       0.0000   9999     5250  0     0    
2019/08/25  04:02:00  BASE  1.00548  29   1.63464  12   0.9   92    -0.3  0     0     993.3    NA       0.0000   9999     5220  0     0    
2019/08/25  04:03:00  BASE  1.18776  46   1.45236  51   0.9   91    -0.3  0     0     993.3    NA       0.0000   9999     5280  0     0    
2019/08/25  04:04:00  BASE  1.18776  59   1.45236  51   1.0   91    -0.4  0     0     993.2    NA       0.0000   9999     9320  13650 0    
2019/08/25  04:05:00  BASE  1.09956  64   1.45236  51   1.0   90    -0.4  0     0     993.2    NA       0.0000   9999     13680 0     0    
2019/08/25  04:06:00  BASE  0.98196  64   1.45236  51   1.1   89    -0.5  0     0     993.2    NA       0.0000   9999     5250  0     0    
2019/08/25  04:07:00  BASE  0.84084  64   1.45236  51   1.2   89    -0.4  0     0     993.1    NA       0.0000   9999     5150  0     0    
2019/08/25  04:08:00  BASE  0.5586   58   1.45236  51   1.3   89    -0.4  0     0     993.1    NA       0.0000   9999     5220  0     0    
2019/08/25  04:09:00  BASE  0.18228  57   1.45236  51   1.5   88    -0.3  0     0     993.1    NA       0.0000   9999     4300  5280  0    
2019/08/25  04:10:00  BASE  0        47   1.45236  51   1.6   87    -0.4  0     0     993.0    NA       0.0000   9999     3770  0     0    
2019/08/25  04:11:00  BASE  0.2058   32   1.45236  51   1.7   86    -0.5  0     0     993.0    NA       0.0000   9999     3510  5320  0    
2019/08/25  04:12:00  BASE  0.441    349  1.29948  48   1.8   84    -0.6  0     0     992.9    NA       0.0000   9999     5250  0     0    
2019/08/25  04:13:00  BASE  0.48216  254  1.24068  301  1.9   83    -0.7  0     0     992.9    NA       0.0000   9999     5220  0     0    
2019/08/25  04:14:00  BASE  0.24696  252  1.24068  301  1.9   82    -0.8  0     0     992.9    NA       0.0000   9999     4100  5250  0    
2019/08/25  04:15:00  BASE  0        303  1.24068  301  2.0   82    -0.8  0     0     992.9    NA       0.0000   9999     4230  5280  0    
2019/08/25  04:16:00  BASE  0.16464  358  1.24068  301  2.0   81    -0.9  0     0     992.9    NA       0.0000   9999     8830  0     0    
2019/08/25  04:17:00  BASE  0.86436  30   1.90512  31   2.0   81    -1.0  0     0     993.0    NA       0.0000   9999     5250  0     0    
2019/08/25  04:18:00  BASE  1.617    36   2.0286   39   1.7   80    -1.3  0     0     993.0    NA       0.0000   9999     5220  0     0    
2019/08/25  04:19:00  BASE  1.74048  31   2.0286   39   1.3   81    -1.6  0     0     993.0    NA       0.0000   9999     5320  0     0    
2019/08/25  04:20:00  BASE  1.39944  22   2.0286   39   1.0   82    -1.7  0     0     992.9    NA       0.0000   9999     5320  0     0    
2019/08/25  04:21:00  BASE  0.57036  21   2.0286   39   0.8   84    -1.6  0     0     992.9    NA       0.0000   9999     8430  0     0    
2019/08/25  04:22:00  BASE  0        346  2.0286   39   0.7   86    -1.4  0     0     992.9    NA       0.0000   9999     5220  0     0    
2019/08/25  04:23:00  BASE  0.19992  340  2.0286   39   0.9   87    -1.0  0     0     992.9    NA       0.0000   9999     8010  0     0    
2019/08/25  04:24:00  BASE  0.89964  23   2.0286   39   1.1   88    -0.7  0     0     992.9    NA       0.0000   9999     4430  5580  0    
2019/08/25  04:25:00  BASE  1.76988  46   2.38728  53   1.2   87    -0.7  0     0     992.9    NA       0.0000   9999     4300  5350  0    
2019/08/25  04:26:00  BASE  2.29908  51   2.56956  49   1.3   86    -0.7  0     0     992.9    NA       0.0000   9999     5380  0     0    
2019/08/25  04:27:00  BASE  2.18148  49   2.56956  49   1.3   85    -0.9  0     0     992.9    NA       0.0000   9999     4330  5350  0    
2019/08/25  04:28:00  BASE  1.63464  50   2.56956  49   1.3   85    -0.9  0     0     992.9    NA       0.0000   9999     5220  0     0    
2019/08/25  04:29:00  BASE  1.21128  56   2.56956  49   1.3   85    -0.9  0     0     992.9    NA       0.0000   9999     5220  0     0    
2019/08/25  04:30:00  BASE  0.7056   61   2.56956  49   1.4   85    -0.9  0     0     992.9    NA       0.0000   9999     4690  5120  0    
2019/08/25  04:31:00  BASE  0.18228  76   2.56956  49   1.4   84    -0.9  0     0     992.9    NA       0.0000   9999     5180  0     0    
2019/08/25  04:32:00  BASE  0.19404  88   2.56956  49   1.4   84    -0.9  0     0     992.9    NA       0.0000   9999     5220  0     0    
2019/08/25  04:33:00  BASE  0.441    75   2.56956  49   1.5   84    -1.0  0     0     992.9    NA       0.0000   9999     5180  0     0    
2019/08/25  04:34:00  BASE  0.80556  84   2.56956  49   1.5   84    -0.9  0     0     992.9    NA       0.0000   9999     4490  5120  0    
2019/08/25  04:35:00  BASE  1.24068  100  2.56956  49   1.6   84    -0.9  0     0     992.9    NA       0.0000   9999     4300  5220  0    
2019/08/25  04:36:00  BASE  1.19364  91   2.1462   48   1.7   83    -0.8  0     0     992.9    NA       0.0000   9999     5250  0     0    
2019/08/25  04:37:00  BASE  1.029    94   1.72284  92   1.8   83    -0.8  0     0     992.8    NA       0.0000   9999     5220  0     0    
2019/08/25  04:38:00  BASE  1.14072  103  1.72284  92   1.9   82    -0.8  0     0     992.8    NA       0.0000   9999     5280  0     0    
2019/08/25  04:39:00  BASE  1.35828  102  1.72284  92   2.0   81    -0.9  0     0     992.8    NA       0.0000   9999     5220  0     0    
2019/08/25  04:40:00  BASE  1.65816  95   2.1462   95   2.0   81    -0.9  0     0     992.8    NA       0.0000   9999     5220  5910  0    
2019/08/25  04:41:00  BASE  1.81104  107  2.1462   95   2.0   80    -1.0  0     0     992.8    NA       0.0000   9999     5510  0     0    
2019/08/25  04:42:00  BASE  1.42296  119  2.1462   95   2.0   80    -1.1  0     0     992.8    NA       0.0000   9999     5710  0     0    
2019/08/25  04:43:00  BASE  1.03488  135  2.1462   95   2.0   80    -1.1  0     0     992.8    NA       0.0000   9999     5220  5870  0    
2019/08/25  04:44:00  BASE  1.46412  164  2.75184  162  2.0   80    -1.2  0     0     992.8    NA       0.0000   9999     6140  0     0    
2019/08/25  04:45:00  BASE  2.16384  168  2.96352  166  1.7   80    -1.4  0     0     992.8    NA       0.0000   9999     6170  0     0    
2019/08/25  04:46:00  BASE  2.1756   158  2.96352  166  1.3   81    -1.7  0     0     992.7    NA       0.0000   9999     7380  0     0    
2019/08/25  04:47:00  BASE  2.04036  153  2.96352  166  0.8   82    -1.9  0     0     992.7    NA       0.0000   9999     7190  0     0    
2019/08/25  04:48:00  BASE  2.03448  147  2.96352  166  0.4   84    -2.0  0     0     992.7    NA       0.0000   9999     5680  0     0    
2019/08/25  04:49:00  BASE  1.7934   149  2.96352  166  0.1   86    -2.0  0     0     992.7    NA       0.0000   9999     6000  0     0    
2019/08/25  04:50:00  BASE  1.82868  158  2.96352  166  -0.1  89    -1.7  0     0     992.7    NA       0.0000   9999     6070  0     0    
2019/08/25  04:51:00  BASE  2.5578   165  4.41588  167  -0.1  91    -1.4  0     0     992.7    NA       0.0000   9999     6100  0     0    
2019/08/25  04:52:00  BASE  3.47508  165  4.41588  167  -0.1  92    -1.3  0     0     992.7    NA       0.0000   9999     5770  6300  0    
2019/08/25  04:53:00  BASE  3.38688  160  4.41588  167  -0.2  93    -1.2  0     0     992.7    NA       0.0000   9999     6170  0     0    
2019/08/25  04:54:00  BASE  2.89296  163  4.41588  167  -0.3  94    -1.2  0     0     992.7    NA       0.0000   9999     5940  0     0    
2019/08/25  04:55:00  BASE  2.81064  164  4.41588  167  -0.5  95    -1.2  0     0     992.7    NA       0.0000   9999     6100  0     0    
2019/08/25  04:56:00  BASE  2.46372  153  4.41588  167  -0.5  96    -1.1  0     0     992.7    NA       0.0000   9999     6000  0     0    
2019/08/25  04:57:00  BASE  1.94628  149  4.41588  167  -0.4  97    -0.9  0     0     992.7    NA       0.0000   9999     5810  0     0    
2019/08/25  04:58:00  BASE  1.65228  147  4.41588  167  -0.2  98    -0.5  0     0     992.6    NA       0.0000   9999     5770  0     0    
2019/08/25  04:59:00  BASE  1.4994   140  4.41588  167  0.1   98    -0.2  0     0     992.6    NA       0.0000   9999     5770  0     0    
2019/08/25  05:00:00  BASE  1.11132  136  4.41588  167  0.4   98    0.1   0     0     992.6    NA       0.0000   9999     5810  0     0    
2019/08/25  05:01:00  BASE  0.48804  121  4.32768  168  0.7   98    0.4   0     0     992.6    NA       0.0000   9999     5770  0     0    
2019/08/25  05:02:00  BASE  0.08232  80   3.2046   155  1.0   97    0.5   0     0     992.6    NA       0.0000   9999     5810  0     0    
2019/08/25  05:03:00  BASE  0        29   3.02232  167  1.2   95    0.5   0     0     992.6    NA       0.0000   9999     5940  0     0    
2019/08/25  05:04:00  BASE  0        9    2.90472  167  1.5   93    0.4   0     0     992.6    NA       0.0000   9999     5740  0     0    
2019/08/25  05:05:00  BASE  0.07644  24   2.69304  152  1.6   91    0.3   0     0     992.5    NA       0.0000   9999     5740  0     0    
2019/08/25  05:06:00  BASE  0.44688  27   1.9992   155  1.8   88    0.1   0     0     992.4    NA       0.0000   9999     5810  0     0    
2019/08/25  05:07:00  BASE  1.03488  12   1.78752  132  1.9   86    -0.1  0     0     992.5    NA       0.0000   9999     5840  0     0    
2019/08/25  05:08:00  BASE  1.42296  11   1.75224  14   2.0   84    -0.4  0     0     992.4    NA       0.0000   9999     7120  0     0    
2019/08/25  05:09:00  BASE  1.7052   15   1.9992   13   2.0   83    -0.6  0     0     992.4    NA       0.0000   9999     5540  0     0    
2019/08/25  05:10:00  BASE  1.76988  17   1.9992   13   1.9   82    -0.8  0     0     992.4    NA       0.0000   9999     5710  0     0    
2019/08/25  05:11:00  BASE  1.64052  18   1.9992   13   1.8   82    -0.9  0     0     992.4    NA       0.0000   9999     5640  0     0    
2019/08/25  05:12:00  BASE  1.44648  14   1.9992   13   1.7   83    -0.9  0     0     992.4    NA       0.0000   9999     5810  0     0    
2019/08/25  05:13:00  BASE  0.92904  6    1.9992   13   1.5   83    -1.0  0     0     992.4    NA       0.0000   9999     5680  0     0    
2019/08/25  05:14:00  BASE  0.30576  339  1.9992   13   1.3   84    -1.1  0     0     992.4    NA       0.0000   9999     5870  0     0    
2019/08/25  05:15:00  BASE  0.19992  280  1.9992   13   1.3   85    -1.0  0     0     992.4    NA       0.0000   9999     5910  0     0    
2019/08/25  05:16:00  BASE  1.0878   195  2.0874   172  1.1   85    -1.1  0     0     992.4    NA       0.0000   9999     5840  0     0    
2019/08/25  05:17:00  BASE  1.24068  176  2.0874   172  0.8   86    -1.3  0     0     992.4    NA       0.0000   9999     5810  0     0    
2019/08/25  05:18:00  BASE  0.3528   178  2.0874   172  0.7   87    -1.2  0     0     992.3    NA       0.0000   9999     5970  0     0    
2019/08/25  05:19:00  BASE  0.12348  161  2.0874   172  0.6   88    -1.1  0     0     992.4    NA       0.0000   9999     5970  0     0    
2019/08/25  05:20:00  BASE  0.12348  129  2.0874   172  0.4   89    -1.2  0     0     992.4    NA       0.0000   9999     5770  0     0    
2019/08/25  05:21:00  BASE  0.59976  53   2.0874   172  0.3   90    -1.1  0     0     992.4    NA       0.0000   9999     5870  0     0    
2019/08/25  05:22:00  BASE  1.45236  14   2.51076  353  0.2   91    -1.1  0     0     992.4    NA       0.0000   9999     5940  0     0    
2019/08/25  05:23:00  BASE  1.92864  357  2.51076  353  -0.0  92    -1.2  0     0     992.4    NA       0.0000   9999     6000  0     0    
2019/08/25  05:24:00  BASE  1.90512  346  2.51076  353  -0.2  93    -1.2  0     0     992.4    NA       0.0000   9999     6000  0     0    
2019/08/25  05:25:00  BASE  1.76988  335  2.51076  353  -0.5  94    -1.3  0     0     992.3    NA       0.0000   9999     6070  0     0    
2019/08/25  05:26:00  BASE  1.90512  318  2.51076  353  -0.6  95    -1.3  0     0     992.3    NA       0.0000   9999     6140  0     0    
2019/08/25  05:27:00  BASE  1.89924  312  2.51076  353  -0.7  97    -1.1  0     0     992.3    NA       0.0000   9999     5940  0     0    
2019/08/25  05:28:00  BASE  1.98156  308  2.51076  353  -0.7  98    -0.9  0     0     992.3    NA       0.0000   9999     5540  0     0    
2019/08/25  05:29:00  BASE  2.1756   302  2.51076  353  -0.6  99    -0.8  0     0     992.3    NA       0.0000   9999     5510  0     0    
2019/08/25  05:30:00  BASE  2.29908  297  2.51076  353  -0.6  99    -0.7  0     0     992.3    NA       0.0000   9999     5410  0     0    
2019/08/25  05:31:00  BASE  2.1756   295  2.51076  353  -0.6  100   -0.6  0     0     992.3    NA       0.0000   9999     5480  0     0    
2019/08/25  05:32:00  BASE  2.058    303  2.42256  313  -0.6  100   -0.6  0     0     992.3    NA       0.0000   9999     5640  0     0    
2019/08/25  05:33:00  BASE  2.12856  316  2.42256  313  -0.6  100   -0.6  0     0     992.3    NA       0.0000   9999     5680  0     0    
2019/08/25  05:34:00  BASE  1.98156  329  2.42256  313  -0.5  100   -0.5  0     0     992.3    NA       0.0000   9999     5740  0     0    
2019/08/25  05:35:00  BASE  1.81104  343  2.42256  313  -0.5  100   -0.5  0     0     992.2    NA       0.0000   9999     5810  0     0    
2019/08/25  05:36:00  BASE  1.77576  358  2.42256  313  -0.4  100   -0.4  0     0     992.2    NA       0.0000   9999     5810  0     0    
2019/08/25  05:37:00  BASE  1.6464   9    2.42256  313  -0.3  100   -0.3  0     0     992.2    NA       0.0000   9999     5770  0     0    
2019/08/25  05:38:00  BASE  1.76988  25   2.45196  45   -0.3  100   -0.4  0     0     992.2    NA       0.0000   9999     6730  0     0    
2019/08/25  05:39:00  BASE  2.00508  28   2.45196  45   -0.4  100   -0.4  0     0     992.2    NA       0.0000   9999     5580  0     0    
2019/08/25  05:40:00  BASE  1.8816   17   2.45196  45   -0.4  100   -0.4  0     0     992.2    NA       0.0000   9999     5680  0     0    
2019/08/25  05:41:00  BASE  1.68756  17   2.45196  45   -0.4  100   -0.4  0     0     992.2    NA       0.0000   9999     7190  0     0    
2019/08/25  05:42:00  BASE  1.69932  21   2.45196  45   -0.4  100   -0.4  0     0     992.2    NA       0.0000   9999     5870  0     0    
2019/08/25  05:43:00  BASE  1.93452  21   2.45196  45   -0.3  100   -0.3  0     0     992.2    NA       0.0000   9999     5770  0     0    
2019/08/25  05:44:00  BASE  2.16972  31   2.48136  46   -0.3  100   -0.3  0     0     992.2    NA       0.0000   9999     5580  0     0    
2019/08/25  05:45:00  BASE  2.09916  34   2.48136  46   -0.2  100   -0.2  0     0     992.2    NA       0.0000   9999     5580  0     0    
2019/08/25  05:46:00  BASE  2.01096  19   2.54016  360  -0.2  100   -0.2  0     0     992.1    NA       0.0000   9999     7810  0     0    
2019/08/25  05:47:00  BASE  2.205    4    2.63424  1    -0.1  100   -0.1  0     0     992.1    NA       0.0000   9999     9120  0     0    
2019/08/25  05:48:00  BASE  2.21088  358  2.63424  1    0.0   100   0.0   0     0     992.1    NA       0.0000   9999     8960  0     0    
2019/08/25  05:49:00  BASE  2.15208  353  2.63424  1    0.2   100   0.2   0     0     992.1    NA       0.0000   9999     9020  0     0    
2019/08/25  05:50:00  BASE  1.99332  354  2.63424  1    0.3   99    0.2   0     0     992.1    NA       0.0000   9999     9290  0     0    
2019/08/25  05:51:00  BASE  1.81692  354  2.63424  1    0.5   99    0.3   0     0     992.0    NA       0.0000   9999     6730  0     0    
2019/08/25  05:52:00  BASE  1.74048  358  2.63424  1    0.5   98    0.2   0     0     992.0    NA       0.0000   9999     5320  9320  0    
2019/08/25  05:53:00  BASE  1.60524  11   2.63424  1    0.6   97    0.2   0     0     992.0    NA       0.0000   9999     5220  0     0    
2019/08/25  05:54:00  BASE  1.5288   24   2.63424  1    0.7   96    0.1   0     0     992.0    NA       0.0000   9999     5380  0     0    
2019/08/25  05:55:00  BASE  1.61112  33   2.63424  1    0.7   95    -0.0  0     0     992.0    NA       0.0000   9999     5640  0     0    
2019/08/25  05:56:00  BASE  1.71696  36   2.63424  1    0.7   95    -0.1  0     0     992.0    NA       0.0000   9999     8530  0     0    
2019/08/25  05:57:00  BASE  1.65816  38   2.48136  344  0.8   94    -0.1  0     0     991.9    NA       0.0000   9999     8460  0     0    
2019/08/25  05:58:00  BASE  1.63464  36   2.48136  344  0.8   94    -0.1  0     0     991.8    NA       0.0000   9999     8500  0     0    
2019/08/25  05:59:00  BASE  1.62876  38   2.24028  346  0.9   93    -0.1  0     0     991.8    NA       0.0000   9999     8070  0     0    
2019/08/25  06:00:00  BASE  1.63464  39   2.0286   354  1.0   93    -0.1  0     0     991.8    NA       0.0000   9999     5540  0     0    
2019/08/25  06:01:00  BASE  1.8522   37   2.21088  34   1.1   92    -0.1  0     0     991.8    NA       0.0000   9999     5410  0     0    
2019/08/25  06:02:00  BASE  1.96392  40   2.21088  34   1.1   91    -0.1  0     0     991.8    NA       0.0000   9999     5120  0     0    
2019/08/25  06:03:00  BASE  1.94628  37   2.35788  24   1.2   91    -0.1  0     0     991.8    NA       0.0000   9999     5020  0     0    
2019/08/25  06:04:00  BASE  1.764    31   2.35788  24   1.3   90    -0.1  0     0     991.9    NA       0.0000   9999     4860  0     0    
2019/08/25  06:05:00  BASE  1.54644  26   2.35788  24   1.3   90    -0.2  0     0     992.0    NA       0.0000   9999     4920  8860  0    
2019/08/25  06:06:00  BASE  1.47     17   2.35788  24   1.4   90    -0.2  0     0     992.0    NA       0.0000   9999     4890  0     0    
2019/08/25  06:07:00  BASE  1.48764  21   2.35788  24   1.4   89    -0.1  0     0     992.0    NA       0.0000   9999     8730  0     0    
2019/08/25  06:08:00  BASE  1.72284  31   2.35788  24   1.5   89    -0.1  0     0     992.0    NA       0.0000   9999     8140  0     0    
2019/08/25  06:09:00  BASE  1.55232  32   2.35788  24   1.6   88    -0.2  0     0     992.0    NA       0.0000   9999     4920  0     0    
2019/08/25  06:10:00  BASE  1.25244  30   2.35788  24   1.6   88    -0.2  0     0     992.0    NA       0.0000   9999     8140  0     0    
2019/08/25  06:11:00  BASE  1.14072  28   2.35788  24   1.7   87    -0.2  0     0     991.9    NA       0.0000   9999     6890  8170  0    
2019/08/25  06:12:00  BASE  0.93492  24   2.35788  24   1.7   87    -0.2  0     0     991.8    NA       0.0000   9999     8300  0     0    
2019/08/25  06:13:00  BASE  0.93492  15   2.1462   22   1.7   87    -0.3  0     0     991.8    NA       0.0000   9999     8370  0     0    
2019/08/25  06:14:00  BASE  1.12308  8    2.1462   22   1.7   87    -0.2  0     0     991.8    NA       0.0000   9999     8240  0     0    
2019/08/25  06:15:00  BASE  1.18188  10   2.1462   22   1.7   87    -0.2  0     0     991.8    NA       0.0000   9999     6820  8170  0    
2019/08/25  06:16:00  BASE  1.33476  10   2.1462   22   1.7   87    -0.2  0     0     991.8    NA       0.0000   9999     6820  0     0    
2019/08/25  06:17:00  BASE  1.42296  8    2.1462   22   1.7   87    -0.3  0     0     991.8    NA       0.0000   9999     7020  7870  0    
2019/08/25  06:18:00  BASE  1.38768  6    1.69344  47   1.7   86    -0.4  0     0     991.8    NA       0.0000   9999     4530  6990  0    
2019/08/25  06:19:00  BASE  1.41708  1    1.63464  7    1.6   86    -0.4  0     0     991.8    NA       0.0000   9999     6760  0     0    
2019/08/25  06:20:00  BASE  1.34652  357  1.63464  7    1.5   86    -0.5  0     0     991.8    NA       0.0000   9999     6790  0     0    
2019/08/25  06:21:00  BASE  1.31124  350  1.63464  7    1.5   87    -0.5  0     0     991.7    NA       0.0000   9999     6730  0     0    
2019/08/25  06:22:00  BASE  1.30536  344  1.63464  7    1.4   87    -0.5  0     0     991.8    NA       0.0000   9999     6730  0     0    
2019/08/25  06:23:00  BASE  1.47588  348  1.90512  353  1.4   87    -0.6  0     0     991.8    NA       0.0000   9999     6790  0     0    
2019/08/25  06:24:00  BASE  1.68756  352  1.93452  344  1.3   87    -0.6  0     0     991.8    NA       0.0000   9999     6660  0     0    
2019/08/25  06:25:00  BASE  1.58172  350  1.93452  344  1.3   87    -0.6  0     0     991.8    NA       0.0000   9999     6560  0     0    
2019/08/25  06:26:00  BASE  1.21128  5    1.93452  344  1.3   88    -0.6  0     0     991.8    NA       0.0000   9999     6560  0     0    
2019/08/25  06:27:00  BASE  1.07604  15   1.93452  344  1.2   88    -0.6  0     0     991.8    NA       0.0000   9999     6560  0     0    
2019/08/25  06:28:00  BASE  1.06428  11   1.93452  344  1.1   88    -0.6  0     0     991.8    NA       0.0000   9999     6590  0     0    
2019/08/25  06:29:00  BASE  0.9702   358  1.93452  344  1.1   89    -0.5  0     0     991.7    NA       0.0000   9999     6590  0     0    
2019/08/25  06:30:00  BASE  0.94668  350  1.93452  344  1.1   89    -0.5  0     0     991.7    NA       0.0000   9999     6560  7090  0    
2019/08/25  06:31:00  BASE  1.07604  340  1.93452  344  1.0   90    -0.5  0     0     991.7    NA       0.0000   9999     6560  0     0    
2019/08/25  06:32:00  BASE  1.09956  334  1.93452  344  1.0   90    -0.4  0     0     991.7    NA       0.0000   9999     6560  0     0    
2019/08/25  06:33:00  BASE  0.9996   339  1.93452  344  1.0   91    -0.4  0     0     991.6    NA       0.0000   9999     6590  0     0    
2019/08/25  06:34:00  BASE  0.85848  342  1.63464  355  1.0   91    -0.3  0     0     991.6    NA       0.0000   9999     6530  0     0    
2019/08/25  06:35:00  BASE  0.78792  335  1.32888  330  0.9   91    -0.3  0     0     991.6    NA       0.0000   9999     6460  0     0    
2019/08/25  06:36:00  BASE  0.81732  320  1.32888  330  0.9   92    -0.3  0     0     991.6    NA       0.0000   9999     6140  0     0    
2019/08/25  06:37:00  BASE  0.81144  314  1.32888  330  0.9   92    -0.3  0     0     991.6    NA       0.0000   9999     6140  0     0    
2019/08/25  06:38:00  BASE  0.83496  319  1.32888  330  0.9   92    -0.3  0     0     991.6    NA       0.0000   9999     6100  0     0    
2019/08/25  06:39:00  BASE  0.4998   331  1.32888  330  0.8   92    -0.3  0     0     991.6    NA       0.0000   9999     6100  0     0    
2019/08/25  06:40:00  BASE  0.44688  344  1.32888  330  0.7   92    -0.5  0     0     991.6    NA       0.0000   9999     6070  0     0    
2019/08/25  06:41:00  BASE  0.77028  345  1.1466   339  0.6   93    -0.5  0     0     991.6    NA       0.0000   9999     6070  0     0    
2019/08/25  06:42:00  BASE  0.9702   343  1.29948  338  0.5   93    -0.4  0     0     991.6    NA       0.0000   9999     6100  0     0    
2019/08/25  06:43:00  BASE  1.029    339  1.29948  338  0.5   94    -0.3  0     0     991.6    NA       0.0000   9999     6070  0     0    
2019/08/25  06:44:00  BASE  0.78204  342  1.29948  338  0.6   95    -0.2  0     0     991.6    NA       0.0000   9999     6000  0     0    
2019/08/25  06:45:00  BASE  0.46452  1    1.29948  338  0.7   95    -0.1  0     0     991.6    NA       0.0000   9999     5970  0     0    
2019/08/25  06:46:00  BASE  0.56448  12   1.29948  338  0.7   95    -0.0  0     0     991.6    NA       0.0000   9999     6140  0     0    
2019/08/25  06:47:00  BASE  0.8526   22   1.29948  338  0.7   95    -0.0  0     0     991.5    NA       0.0000   9999     6560  0     0    
2019/08/25  06:48:00  BASE  0.98196  30   1.29948  338  0.6   95    -0.1  0     0     991.5    NA       0.0000   9999     4820  6560  0    
2019/08/25  06:49:00  BASE  1.1466   28   1.32888  35   0.6   95    -0.1  0     0     991.5    NA       0.0000   9999     5970  6790  0    
2019/08/25  06:50:00  BASE  1.34652  31   1.63464  41   0.6   95    -0.2  0     0     991.5    NA       0.0000   9999     4590  6890  0    
2019/08/25  06:51:00  BASE  1.4994   34   1.63464  41   0.5   95    -0.2  0     0     991.5    NA       0.0000   9999     6560  0     0    
2019/08/25  06:52:00  BASE  1.47     33   1.63464  41   0.5   95    -0.2  0     0     991.4    NA       0.0000   9999     6990  0     0    
2019/08/25  06:53:00  BASE  1.31124  26   1.63464  41   0.4   96    -0.2  0     0     991.4    NA       0.0000   9999     8690  0     0    
2019/08/25  06:54:00  BASE  1.176    21   1.63464  41   0.4   96    -0.1  0     0     991.4    NA       0.0000   9999     6230  7020  8890 
2019/08/25  06:55:00  BASE  1.02312  23   1.63464  41   0.5   96    -0.0  0     0     991.4    NA       0.0000   9999     6140  0     0    
2019/08/25  06:56:00  BASE  0.88788  24   1.63464  41   0.5   97    0.1   0     0     991.4    NA       0.0000   9999     6200  0     0    
2019/08/25  06:57:00  BASE  0.53508  16   1.63464  41   0.7   97    0.2   0     0     991.4    NA       0.0000   9999     6100  0     0    
2019/08/25  06:58:00  BASE  0.11172  14   1.63464  41   0.8   97    0.3   0     0     991.4    NA       0.0000   9999     6170  0     0    
2019/08/25  06:59:00  BASE  0.51156  122  1.63464  41   0.9   96    0.3   0     0     991.3    NA       0.0000   9999     6200  6790  0    
2019/08/25  07:00:00  BASE  1.12896  163  1.60524  35   0.8   96    0.2   0     0     991.3    NA       0.0000   9999     6140  0     0    
2019/08/25  07:01:00  BASE  1.10544  162  1.51116  168  0.7   95    0.1   0     0     991.3    NA       0.0000   9999     7150  0     0    
2019/08/25  07:02:00  BASE  0.71736  170  1.51116  168  0.6   95    -0.1  0     0     991.2    NA       0.0000   9999     6530  0     0    
2019/08/25  07:03:00  BASE  0.2352   199  1.51116  168  0.6   95    -0.1  0     0     991.2    NA       0.0000   9999     6660  0     0    
2019/08/25  07:04:00  BASE  0.51744  204  1.51116  168  0.6   96    -0.0  0     0     991.2    NA       0.0000   9999     6730  0     0    
2019/08/25  07:05:00  BASE  1.24656  175  1.96392  159  0.6   96    0.0   0     0     991.2    NA       0.0000   9999     6460  0     0    
2019/08/25  07:06:00  BASE  1.85808  158  2.38728  155  0.6   96    0.0   0     0     991.2    NA       0.0000   9999     6530  0     0    
2019/08/25  07:07:00  BASE  1.911    150  2.38728  155  0.5   96    -0.1  0     0     991.2    NA       0.0000   9999     6300  0     0    
2019/08/25  07:08:00  BASE  1.07604  138  2.38728  155  0.4   96    -0.2  0     0     991.2    NA       0.0000   9999     6270  0     0    
2019/08/25  07:09:00  BASE  0.43512  127  2.38728  155  0.3   96    -0.3  0     0     991.2    NA       0.0000   9999     6270  0     0    
2019/08/25  07:10:00  BASE  0.37632  114  2.38728  155  0.3   97    -0.2  0     0     991.1    NA       0.0000   9999     6330  0     0    
2019/08/25  07:11:00  BASE  0.4998   102  2.38728  155  0.4   97    0.0   0     0     991.0    NA       0.0000   9999     6430  8760  0    
2019/08/25  07:12:00  BASE  0.34104  82   2.38728  155  0.5   98    0.2   0     0     991.0    NA       0.0000   9999     8690  0     0    
2019/08/25  07:13:00  BASE  0.17052  76   2.38728  155  0.7   98    0.4   0     0     991.0    NA       0.0000   9999     6300  8730  0    
2019/08/25  07:14:00  BASE  0.2058   74   2.38728  155  0.9   98    0.6   0     0     991.0    NA       0.0000   9999     6370  8890  0    
2019/08/25  07:15:00  BASE  0.41748  53   2.38728  155  1.0   98    0.7   0     0     991.0    NA       0.0000   9999     6400  8830  0    
2019/08/25  07:16:00  BASE  0.8232   42   2.1168   146  1.2   97    0.8   0     0     991.0    NA       0.0000   9999     8690  0     0    
2019/08/25  07:17:00  BASE  1.35828  43   1.96392  51   1.3   97    0.8   0     0     991.0    NA       0.0000   9999     8830  0     0    
2019/08/25  07:18:00  BASE  1.66404  48   1.96392  51   1.2   96    0.7   0     0     991.0    NA       0.0000   9999     8690  0     0    
2019/08/25  07:19:00  BASE  1.46412  47   1.96392  51   1.2   96    0.6   0     0     991.0    NA       0.0000   9999     8660  0     0    
2019/08/25  07:20:00  BASE  1.16424  43   1.96392  51   1.1   96    0.5   0     0     991.0    NA       0.0000   9999     5410  8790  0    
2019/08/25  07:21:00  BASE  0.97608  41   1.96392  51   1.0   96    0.4   0     0     991.0    NA       0.0000   9999     8760  0     0    
2019/08/25  07:22:00  BASE  0.89964  40   1.96392  51   0.9   96    0.3   0     0     991.0    NA       0.0000   9999     8730  0     0    
2019/08/25  07:23:00  BASE  0.84672  36   1.96392  51   1.0   96    0.4   0     0     991.0    NA       0.0000   9999     8730  0     0    
2019/08/25  07:24:00  BASE  0.59388  27   1.96392  51   1.1   95    0.4   0     0     991.0    NA       0.0000   9999     8760  0     0    
2019/08/25  07:25:00  BASE  0.5292   7    1.96392  51   1.2   95    0.5   0     0     990.9    NA       0.0000   9999     8860  0     0    
2019/08/25  07:26:00  BASE  0.66444  341  1.96392  51   1.3   94    0.4   0     0     990.9    NA       0.0000   9999     8890  0     0    
2019/08/25  07:27:00  BASE  0.48216  318  1.87572  49   1.4   93    0.4   0     0     990.9    NA       0.0000   9999     8790  0     0    
2019/08/25  07:28:00  BASE  0.49392  297  1.42296  44   1.4   92    0.3   0     0     990.9    NA       0.0000   9999     8890  0     0    
2019/08/25  07:29:00  BASE  0.83496  247  1.29948  196  1.2   92    -0.0  0     0     990.9    NA       0.0000   9999     8790  0     0    
2019/08/25  07:30:00  BASE  0.92316  203  1.29948  196  0.9   91    -0.4  0     0     990.9    NA       0.0000   9999     8890  0     0    
2019/08/25  07:31:00  BASE  0.67032  196  1.29948  196  0.6   92    -0.7  0     0     990.9    NA       0.0000   9999     8790  0     0    
2019/08/25  07:32:00  BASE  0.27048  191  1.29948  196  0.2   92    -0.9  0     0     990.9    NA       0.0000   9999     8790  0     0    
2019/08/25  07:33:00  BASE  0.294    195  1.29948  196  -0.1  93    -1.1  0     0     990.9    NA       0.0000   9999     8730  0     0    
2019/08/25  07:34:00  BASE  0.34692  206  1.29948  196  -0.2  95    -0.9  0     0     990.9    NA       0.0000   9999     8760  0     0    
2019/08/25  07:35:00  BASE  0.08232  209  1.29948  196  -0.2  97    -0.6  0     0     990.9    NA       0.0000   9999     8690  0     0    
2019/08/25  07:36:00  BASE  0        217  1.29948  196  -0.1  98    -0.4  0     0     990.8    NA       0.0000   9999     8730  0     0    
2019/08/25  07:37:00  BASE  0.05292  234  1.29948  196  0.1   99    -0.1  0     0     990.8    NA       0.0000   9999     8730  0     0    
2019/08/25  07:38:00  BASE  0.11172  260  1.29948  196  0.2   99    0.1   0     0     990.8    NA       0.0000   9999     8830  0     0    
2019/08/25  07:39:00  BASE  0.05292  278  1.1172   202  0.4   99    0.2   0     0     990.8    NA       0.0000   9999     8760  0     0    
2019/08/25  07:40:00  BASE  0        286  0.84672  191  0.5   99    0.3   0     0     990.8    NA       0.0000   9999     8790  0     0    
2019/08/25  07:41:00  BASE  0        328  0.69384  272  0.6   99    0.4   0     0     990.8    NA       0.0000   9999     8790  0     0    
2019/08/25  07:42:00  BASE  0        5    0.69384  272  0.7   98    0.5   0     0     990.8    NA       0.0000   9999     8830  0     0    
2019/08/25  07:43:00  BASE  0        12   0.69384  272  0.8   98    0.5   0     0     990.7    NA       0.0000   9999     8830  0     0    
2019/08/25  07:44:00  BASE  0        22   0.69384  272  0.8   98    0.5   0     0     990.8    NA       0.0000   9999     5480  8830  0    
2019/08/25  07:45:00  BASE  0        23   0.69384  272  0.8   97    0.5   0     0     990.8    NA       0.0000   9999     8830  0     0    
2019/08/25  07:46:00  BASE  0        18   0.69384  272  0.8   97    0.4   0     0     990.8    NA       0.0000   9999     8400  0     0    
2019/08/25  07:47:00  BASE  0        30   0.66444  272  0.8   97    0.4   0     0     990.8    NA       0.0000   9999     8430  0     0    
2019/08/25  07:48:00  BASE  0        46   0        M    0.8   97    0.4   0     0     990.8    NA       0.0000   9999     8430  0     0    
2019/08/25  07:49:00  BASE  0.02352  32   0.60564  360  0.9   97    0.4   0     0     990.8    NA       0.0000   9999     8500  0     0    
2019/08/25  07:50:00  BASE  0.34692  8    0.84672  3    1.0   96    0.4   0     0     990.7    NA       0.0000   9999     5540  8560  0    
2019/08/25  07:51:00  BASE  0.68208  1    0.84672  3    1.1   96    0.5   0     0     990.7    NA       0.0000   9999     8530  0     0    
2019/08/25  07:52:00  BASE  0.77616  352  0.9702   330  1.2   95    0.5   0     0     990.7    NA       0.0000   9999     8600  0     0    
2019/08/25  07:53:00  BASE  0.89376  335  1.029    322  1.3   95    0.5   0     0     990.7    NA       0.0000   9999     8630  0     0    
2019/08/25  07:54:00  BASE  0.87024  327  1.029    322  1.4   94    0.6   0     0     990.7    NA       0.0000   9999     8630  0     0    
2019/08/25  07:55:00  BASE  0.89376  327  1.29948  319  1.5   93    0.5   0     0     990.7    NA       0.0000   9999     8560  0     0    
2019/08/25  07:56:00  BASE  1.19364  320  1.45236  315  1.4   93    0.4   0     0     990.7    NA       0.0000   9999     8560  0     0    
2019/08/25  07:57:00  BASE  1.33476  316  1.45236  314  1.4   92    0.3   0     0     990.7    NA       0.0000   9999     8530  0     0    
2019/08/25  07:58:00  BASE  1.24068  316  1.45236  314  1.3   92    0.1   0     0     990.7    NA       0.0000   9999     8560  0     0    
2019/08/25  07:59:00  BASE  1.39356  314  1.72284  314  1.2   92    0.0   0     0     990.7    NA       0.0000   9999     8560  0     0    
2019/08/25  08:00:00  BASE  1.68756  321  1.90512  324  0.9   92    -0.3  0     0     990.7    NA       0.0000   9999     8500  0     0    
2019/08/25  08:01:00  BASE  1.65228  339  1.90512  324  0.5   92    -0.6  0     0     990.7    NA       0.0000   9999     8370  0     0    
2019/08/25  08:02:00  BASE  1.58172  355  1.90512  324  0.1   93    -0.9  0     0     990.7    NA       0.0000   9999     8430  0     0    
2019/08/25  08:03:00  BASE  1.54644  4    1.90512  324  -0.3  94    -1.1  0     0     990.7    NA       0.0000   9999     8430  0     0    
2019/08/25  08:04:00  BASE  1.47588  7    1.90512  324  -0.6  96    -1.2  0     0     990.7    NA       0.0000   9999     8330  0     0    
2019/08/25  08:05:00  BASE  1.5288   9    1.90512  12   -0.7  97    -1.0  0     0     990.6    NA       0.0000   9999     8300  0     0    
2019/08/25  08:06:00  BASE  1.74636  4    2.1462   345  -0.6  99    -0.7  0     0     990.6    NA       0.0000   9999     8370  0     0    
2019/08/25  08:07:00  BASE  1.7934   8    2.1462   345  -0.4  100   -0.5  0     0     990.5    NA       0.0000   9999     8300  0     0    
2019/08/25  08:08:00  BASE  1.65228  20   2.1462   345  -0.3  100   -0.3  0     0     990.5    NA       0.0000   9999     8300  0     0    
2019/08/25  08:09:00  BASE  1.40532  23   2.1462   345  -0.3  100   -0.3  0     0     990.5    NA       0.0000   9999     8330  0     0    
2019/08/25  08:10:00  BASE  1.16424  31   2.1462   345  -0.2  100   -0.2  0     0     990.5    NA       0.0000   9999     8400  0     0    
2019/08/25  08:11:00  BASE  1.2054   32   2.1462   345  -0.2  100   -0.2  0     0     990.5    NA       0.0000   9999     8460  0     0    
2019/08/25  08:12:00  BASE  1.21716  17   2.1462   345  -0.1  100   -0.1  0     0     990.5    NA       0.0000   9999     8500  0     0    
2019/08/25  08:13:00  BASE  1.01136  13   2.1462   345  0.1   100   0.1   0     0     990.5    NA       0.0000   9999     8660  0     0    
2019/08/25  08:14:00  BASE  0.95256  16   2.1462   345  0.2   100   0.2   0     0     990.5    NA       0.0000   9999     8630  0     0    
2019/08/25  08:15:00  BASE  1.08192  356  2.1462   345  0.3   100   0.3   0     0     990.6    NA       0.0000   9999     8500  0     0    
2019/08/25  08:16:00  BASE  1.06428  331  1.90512  24   0.4   100   0.4   0     0     990.6    NA       0.0000   9999     8500  0     0    
2019/08/25  08:17:00  BASE  1.02312  306  1.87572  28   0.4   100   0.4   0     0     990.5    NA       0.0000   9999     5090  8760  0    
2019/08/25  08:18:00  BASE  1.14072  287  1.75224  44   0.2   100   0.2   0     0     990.5    NA       0.0000   9999     8560  0     0    
2019/08/25  08:19:00  BASE  1.5582   297  2.24028  306  0.1   100   0.1   0     0     990.5    NA       0.0000   9999     8460  0     0    
2019/08/25  08:20:00  BASE  1.77576  313  2.24028  306  0.0   100   0.0   0     0     990.5    NA       0.0000   9999     8460  0     0    
2019/08/25  08:21:00  BASE  1.8522   320  2.24028  306  -0.0  100   -0.0  0     0     990.4    NA       0.0000   9999     8400  0     0    
2019/08/25  08:22:00  BASE  2.01684  327  2.24028  306  -0.0  100   -0.0  0     0     990.4    NA       0.0000   9999     8460  0     0    
2019/08/25  08:23:00  BASE  2.14032  332  2.45196  336  0.0   100   0.0   0     0     990.4    NA       0.0000   9999     5220  8530  0    
2019/08/25  08:24:00  BASE  2.27556  338  2.59896  341  0.1   100   0.1   0     0     990.4    NA       0.0000   9999     8500  0     0    
2019/08/25  08:25:00  BASE  2.39316  341  2.59896  343  0.1   100   0.1   0     0     990.4    NA       0.0000   9999     8600  0     0    
2019/08/25  08:26:00  BASE  2.4402   341  2.59896  343  0.1   100   0.1   0     0     990.4    NA       0.0000   9999     8560  0     0    
2019/08/25  08:27:00  BASE  2.31084  340  2.59896  343  0.1   100   0.1   0     0     990.4    NA       0.0000   9999     8830  0     0    
2019/08/25  08:28:00  BASE  2.09916  340  2.59896  343  0.1   100   0.1   0     0     990.4    NA       0.0000   9999     8860  0     0    
2019/08/25  08:29:00  BASE  1.91688  340  2.59896  343  0.1   100   0.1   0     0     990.4    NA       0.0000   9999     4920  9020  0    
2019/08/25  08:30:00  BASE  1.69344  343  2.59896  343  0.1   100   0.1   0     0     990.4    NA       0.0000   9999     8890  0     0    
2019/08/25  08:31:00  BASE  1.44648  349  2.59896  343  0.1   100   0.1   0     0     990.4    NA       0.0000   9999     9090  0     0    
2019/08/25  08:32:00  BASE  1.4112   354  2.59896  343  0.1   100   0.1   0     0     990.4    NA       0.0000   9999     9120  0     0    
2019/08/25  08:33:00  BASE  1.50528  358  2.59896  343  0.1   100   0.1   0     0     990.4    NA       0.0000   9999     9150  0     0    
2019/08/25  08:34:00  BASE  1.43472  11   2.59896  343  0.1   100   0.1   0     0     990.4    NA       0.0000   9999     9190  0     0    
2019/08/25  08:35:00  BASE  1.27596  18   2.51076  341  0.1   100   0.1   0     0     990.3    NA       0.0000   9999     9250  0     0    
2019/08/25  08:36:00  BASE  1.21716  12   2.35788  337  0.1   100   0.1   0     0     990.3    NA       0.0000   9999     9250  0     0    
2019/08/25  08:37:00  BASE  1.19364  11   2.1462   339  0.1   100   0.1   0     0     990.4    NA       0.0000   9999     9120  0     0    
2019/08/25  08:38:00  BASE  1.24068  20   1.93452  340  0.1   100   0.1   0     0     990.4    NA       0.0000   9999     9190  0     0    
2019/08/25  08:39:00  BASE  1.27008  23   1.72284  348  0.1   100   0.1   0     0     990.4    NA       0.0000   9999     9150  0     0    
2019/08/25  08:40:00  BASE  1.12308  28   1.63464  353  0.2   100   0.2   0     0     990.3    NA       0.0000   9999     9090  0     0    
2019/08/25  08:41:00  BASE  1.09956  31   1.63464  353  0.2   100   0.2   0     0     990.3    NA       0.0000   9999     9090  0     0    
2019/08/25  08:42:00  BASE  0.7056   329  1.63464  353  0.3   100   0.3   0     0     990.3    NA       0.0000   9999     9150  0     0    
2019/08/25  08:43:00  BASE  0.1176   229  1.54056  3    0.5   100   0.5   0     0     990.3    NA       0.0000   9999     4630  5810  9290 
2019/08/25  08:44:00  BASE  0        179  1.54056  3    0.6   100   0.6   0     0     990.3    NA       0.0000   9999     4490  9290  0    
2019/08/25  08:45:00  BASE  0        172  1.54056  3    0.7   100   0.7   0     0     990.2    NA       0.0000   9999     9120  0     0    
2019/08/25  08:46:00  BASE  0.30576  188  1.54056  3    0.9   100   0.9   0     0     990.2    NA       0.0000   9999     9120  0     0    
2019/08/25  08:47:00  BASE  0.84672  204  1.54056  3    1.0   100   0.9   0     0     990.2    NA       0.0000   9999     8240  9190  0    
2019/08/25  08:48:00  BASE  0.82908  203  1.54056  3    1.0   99    0.9   0     0     990.2    NA       0.0000   9999     9020  0     0    
2019/08/25  08:49:00  BASE  0.37044  210  1.54056  3    1.0   99    0.8   0     0     990.2    NA       0.0000   9999     4460  6370  8240 
2019/08/25  08:50:00  BASE  0.07644  229  1.54056  3    1.0   99    0.8   0     0     990.2    NA       0.0000   9999     4200  8830  0    
2019/08/25  08:51:00  BASE  0.17052  232  1.51116  208  0.9   98    0.7   0     0     990.2    NA       0.0000   9999     8270  0     0    
2019/08/25  08:52:00  BASE  0.63504  225  1.51116  208  0.9   98    0.6   0     0     990.2    NA       0.0000   9999     8600  0     0    
2019/08/25  08:53:00  BASE  1.01136  223  1.51116  208  0.8   98    0.5   0     0     990.1    NA       0.0000   9999     8730  0     0    
2019/08/25  08:54:00  BASE  0.89376  224  1.51116  208  0.8   98    0.5   0     0     990.1    NA       0.0000   9999     8660  0     0    
2019/08/25  08:55:00  BASE  0.4998   213  1.51116  208  0.7   98    0.4   0     0     990.1    NA       0.0000   9999     9060  0     0    
2019/08/25  08:56:00  BASE  0.15876  197  1.51116  208  0.7   98    0.4   0     0     990.1    NA       0.0000   9999     4460  9150  0    
2019/08/25  08:57:00  BASE  0        187  1.42296  228  0.6   98    0.3   0     0     990.2    NA       0.0000   9999     9060  0     0    
2019/08/25  08:58:00  BASE  0        157  1.39356  237  0.6   98    0.3   0     0     990.2    NA       0.0000   9999     9150  0     0    
2019/08/25  08:59:00  BASE  0.42336  18   1.39356  237  0.6   98    0.4   0     0     990.1    NA       0.0000   9999     9020  0     0    
2019/08/25  09:00:00  BASE  0.7938   18   1.39356  237  0.6   99    0.4   0     0     990.1    NA       0.0000   9999     8990  0     0    
2019/08/25  09:01:00  BASE  0.54684  15   1.39356  237  0.7   99    0.5   0     0     990.1    NA       0.0000   9999     8990  0     0    
2019/08/25  09:02:00  BASE  0.28224  19   1.39356  237  0.7   99    0.5   0     0     990.0    NA       0.0000   9999     9090  0     0    
2019/08/25  09:03:00  BASE  0.43512  44   1.1466   233  0.7   99    0.5   0     0     990.0    NA       0.0000   9999     9060  0     0    
2019/08/25  09:04:00  BASE  0.75264  70   1.0584   91   0.7   98    0.5   0     0     990.0    NA       0.0000   9999     9090  0     0    
2019/08/25  09:05:00  BASE  0.6468   84   1.0584   91   0.8   98    0.5   0     0     989.9    NA       0.0000   9999     9190  0     0    
2019/08/25  09:06:00  BASE  0.22344  93   1.0584   91   0.8   98    0.5   0     0     989.9    NA       0.0000   9999     6300  9250  0    
2019/08/25  09:07:00  BASE  0        98   1.0584   91   0.8   98    0.6   0     0     989.9    NA       0.0000   9999     9290  0     0    
2019/08/25  09:08:00  BASE  0.10584  94   1.0584   91   0.9   98    0.6   0     0     989.9    NA       0.0000   9999     9420  0     0    
2019/08/25  09:09:00  BASE  0.18816  90   1.0584   91   0.9   98    0.6   0     0     989.9    NA       0.0000   9999     9380  0     0    
2019/08/25  09:10:00  BASE  0.27048  88   1.0584   91   0.9   97    0.5   0     0     989.9    NA       0.0000   9999     9220  0     0    
2019/08/25  09:11:00  BASE  0.48216  84   1.0584   91   0.9   97    0.5   0     0     989.8    NA       0.0000   9999     9250  0     0    
2019/08/25  09:12:00  BASE  0.54096  85   1.0584   91   0.9   97    0.5   0     0     989.8    NA       0.0000   9999     9320  0     0    
2019/08/25  09:13:00  BASE  0.294    92   1.0584   91   0.9   97    0.5   0     0     989.8    NA       0.0000   9999     9320  0     0    
2019/08/25  09:14:00  BASE  0.15876  113  0.9702   79   1.0   97    0.5   0     0     989.8    NA       0.0000   9999     9320  0     0    
2019/08/25  09:15:00  BASE  0.11172  127  0.9702   79   1.0   97    0.6   0     0     989.8    NA       0.0000   9999     9250  0     0    
2019/08/25  09:16:00  BASE  0        84   0.9702   79   1.1   96    0.6   0     0     989.8    NA       0.0000   9999     9220  0     0    
2019/08/25  09:17:00  BASE  0        97   0.9702   79   1.1   96    0.5   0     0     989.8    NA       0.0000   9999     9190  0     0    
2019/08/25  09:18:00  BASE  0.1764   135  0.9702   79   1.1   95    0.4   0     0     989.7    NA       0.0000   9999     9380  0     0    
2019/08/25  09:19:00  BASE  0.1764   143  0.9702   79   1.1   95    0.3   0     0     989.7    NA       0.0000   9999     9320  0     0    
2019/08/25  09:20:00  BASE  0.18816  132  0.9702   79   1.0   94    0.2   0     0     989.7    NA       0.0000   9999     9320  0     0    
2019/08/25  09:21:00  BASE  0.18816  118  0.9702   79   0.9   94    0.1   0     0     989.7    NA       0.0000   9999     9380  0     0    
2019/08/25  09:22:00  BASE  0        115  0.69384  115  0.9   95    0.2   0     0     989.7    NA       0.0000   9999     9320  0     0    
2019/08/25  09:23:00  BASE  0.22344  113  0.75852  101  1.0   95    0.2   0     0     989.7    NA       0.0000   9999     9350  0     0    
2019/08/25  09:24:00  BASE  0.42336  104  0.84672  94   1.0   95    0.3   0     0     989.7    NA       0.0000   9999     9450  0     0    
2019/08/25  09:25:00  BASE  0.4998   95   0.84672  94   1.1   95    0.3   0     0     989.7    NA       0.0000   9999     9320  0     0    
2019/08/25  09:26:00  BASE  0.71736  91   0.93492  97   1.1   95    0.4   0     0     989.7    NA       0.0000   9999     9220  0     0    
2019/08/25  09:27:00  BASE  0.53508  97   0.93492  97   1.2   94    0.4   0     0     989.6    NA       0.0000   9999     9290  0     0    
2019/08/25  09:28:00  BASE  0.12348  104  0.93492  97   1.2   94    0.4   0     0     989.6    NA       0.0000   9999     9450  0     0    
2019/08/25  09:29:00  BASE  0        88   0.93492  97   1.2   94    0.3   0     0     989.6    NA       0.0000   9999     9220  0     0    
2019/08/25  09:30:00  BASE  0        82   0.93492  97   1.3   94    0.3   0     0     989.6    NA       0.0000   9999     9060  0     0    
2019/08/25  09:31:00  BASE  0        117  0.93492  97   1.3   93    0.3   0     0     989.6    NA       0.0000   9999     9020  0     0    
2019/08/25  09:32:00  BASE  0.11172  150  0.93492  97   1.3   93    0.3   0     0     989.5    NA       0.0000   9999     9250  0     0    
2019/08/25  09:33:00  BASE  0.14112  155  0.93492  97   1.4   92    0.3   0     0     989.5    NA       0.0000   9999     9350  0     0    
2019/08/25  09:34:00  BASE  0.294    156  0.93492  97   1.4   92    0.2   0     0     989.4    NA       0.0000   9999     9090  0     0    
2019/08/25  09:35:00  BASE  0.72324  158  1.1466   159  1.4   92    0.2   0     0     989.4    NA       0.0000   9999     8990  0     0    
2019/08/25  09:36:01  BASE  0.59388  143  1.1466   159  1.4   91    0.2   0     0     989.4    NA       0.0000   9999     9250  0     0    
2019/08/25  09:37:01  BASE  0.57036  100  1.1466   159  1.4   91    0.1   0     0     989.5    NA       0.0000   9999     9020  0     0    
2019/08/25  09:38:01  BASE  1.1172   63   1.51116  45   1.4   91    0.0   0     0     989.5    NA       0.0000   9999     9120  0     0    
2019/08/25  09:39:01  BASE  1.32888  55   1.51116  45   1.3   91    0.0   0     0     989.4    NA       0.0000   9999     9290  0     0    
2019/08/25  09:40:01  BASE  1.12308  76   1.51116  45   1.3   91    0.0   0     0     989.4    NA       0.0000   9999     8990  0     0    
2019/08/25  09:41:01  BASE  1.03488  112  1.51116  45   1.3   91    0.0   0     0     989.4    NA       0.0000   9999     8990  0     0    
2019/08/25  09:42:01  BASE  1.29948  138  1.72284  150  1.3   91    0.1   0     0     989.4    NA       0.0000   9999     9020  0     0    
2019/08/25  09:43:01  BASE  1.19952  139  1.72284  150  1.3   91    0.1   0     0     989.4    NA       0.0000   9999     9220  0     0    
2019/08/25  09:44:01  BASE  0.75852  103  1.72284  150  1.3   91    0.1   0     0     989.4    NA       0.0000   9999     9120  0     0    
2019/08/25  09:45:01  BASE  0.3234   86   1.72284  150  1.3   91    0.0   0     0     989.4    NA       0.0000   9999     9090  0     0    
2019/08/25  09:46:01  BASE  0.3822   125  1.72284  150  1.3   91    0.0   0     0     989.4    NA       0.0000   9999     8960  0     0    
2019/08/25  09:47:01  BASE  0.9996   158  1.72284  150  1.3   91    0.0   0     0     989.2    NA       0.0000   9999     9090  0     0    
2019/08/25  09:48:01  BASE  1.24068  156  1.72284  150  1.3   91    0.0   0     0     989.2    NA       0.0000   9999     8960  0     0    
2019/08/25  09:49:01  BASE  1.21716  151  1.72284  150  1.3   91    0.0   0     0     989.2    NA       0.0000   9999     8790  0     0    
2019/08/25  09:50:01  BASE  1.21716  149  1.72284  150  1.3   91    0.0   0     0     989.2    NA       0.0000   9999     8920  0     0    
2019/08/25  09:51:01  BASE  1.21716  149  1.72284  150  1.3   91    0.0   0     0     989.1    NA       0.0000   9999     9220  0     0    
2019/08/25  09:52:01  BASE  1.4112   160  1.75224  160  1.3   91    0.0   0     0     989.1    NA       0.0000   9999     9120  0     0    
2019/08/25  09:53:01  BASE  1.52292  163  1.81692  160  1.3   91    -0.0  0     0     989.1    NA       0.0000   9999     9120  0     0    
2019/08/25  09:54:01  BASE  1.38768  151  1.81692  160  1.3   91    -0.1  0     0     989.1    NA       0.0000   9999     9060  0     0    
2019/08/25  09:55:01  BASE  1.15836  144  1.81692  160  1.2   91    -0.1  0     0     989.2    NA       0.0000   9999     9090  0     0    
2019/08/25  09:56:01  BASE  0.9702   145  1.81692  160  1.2   91    -0.0  0     0     989.2    NA       0.0000   9999     9120  0     0    
2019/08/25  09:57:01  BASE  0.69972  147  1.81692  160  1.2   92    0.0   0     0     989.1    NA       0.0000   9999     9150  0     0    
2019/08/25  09:58:01  BASE  0.2352   147  1.81692  160  1.3   92    0.1   0     0     989.1    NA       0.0000   9999     8920  0     0    
2019/08/25  09:59:01  BASE  0        145  1.81692  160  1.4   92    0.2   0     0     989.1    NA       0.0000   9999     8860  0     0    
2019/08/25  10:00:01  BASE  0        144  1.81692  160  1.4   91    0.2   0     0     989.2    NA       0.0000   9999     8990  0     0    
2019/08/25  10:01:01  BASE  0.19404  97   1.81692  160  1.5   91    0.1   0     0     989.2    NA       0.0000   9999     9060  0     0    
2019/08/25  10:02:01  BASE  0.78792  23   1.81692  160  1.5   90    0.0   0     0     989.2    NA       0.0000   9999     8960  0     0    
2019/08/25  10:03:01  BASE  1.35828  354  1.75224  345  1.3   90    -0.2  0     0     989.2    NA       0.0000   9999     4720  8990  0    
2019/08/25  10:04:01  BASE  1.62288  337  1.75224  330  1.0   90    -0.5  0     0     989.2    NA       0.0000   9999     8920  0     0    
2019/08/25  10:05:01  BASE  1.68168  329  1.75224  328  0.7   90    -0.7  0     0     989.1    NA       0.0000   9999     8960  0     0    
2019/08/25  10:06:01  BASE  1.62288  323  1.75224  328  0.5   91    -0.8  0     0     989.1    NA       0.0000   9999     9020  0     0    
2019/08/25  10:07:01  BASE  1.56996  317  1.75224  328  0.3   93    -0.8  0     0     989.1    NA       0.0000   9999     9060  0     0    
2019/08/25  10:08:01  BASE  1.68756  319  1.96392  329  0.3   94    -0.5  0     0     989.1    NA       0.0000   9999     8920  0     0    
2019/08/25  10:09:01  BASE  2.04624  327  2.42256  335  0.3   96    -0.3  0     0     989.1    NA       0.0000   9999     8890  0     0    
2019/08/25  10:10:01  BASE  2.22264  331  2.48136  338  0.4   96    -0.2  0     0     989.1    NA       0.0000   9999     8960  0     0    
2019/08/25  10:11:01  BASE  2.18736  325  2.54016  326  0.3   96    -0.2  0     0     989.1    NA       0.0000   9999     9060  0     0    
2019/08/25  10:12:01  BASE  2.1462   322  2.54016  326  0.2   96    -0.4  0     0     989.1    NA       0.0000   9999     9250  0     0    
2019/08/25  10:13:01  BASE  1.92864  323  2.54016  326  -0.0  96    -0.5  0     0     989.1    NA       0.0000   9999     8890  0     0    
2019/08/25  10:14:01  BASE  1.59936  323  2.54016  326  -0.1  97    -0.6  0     0     989.1    NA       0.0000   9999     8960  0     0    
2019/08/25  10:15:01  BASE  1.38768  322  2.54016  326  -0.2  98    -0.5  0     0     989.1    NA       0.0000   9999     9090  0     0    
2019/08/25  10:16:01  BASE  1.51116  318  2.54016  326  -0.1  99    -0.3  0     0     989.1    NA       0.0000   9999     9060  0     0    
2019/08/25  10:17:01  BASE  2.02272  320  2.69304  326  -0.0  99    -0.1  0     0     989.1    NA       0.0000   9999     9150  0     0    
2019/08/25  10:18:01  BASE  2.62248  328  2.99292  337  0.1   100   0.0   0     0     989.1    NA       0.0000   9999     9060  0     0    
2019/08/25  10:19:01  BASE  2.89296  333  2.99292  335  0.0   100   -0.0  0     0     989.1    NA       0.0000   9999     9060  0     0    
2019/08/25  10:20:01  BASE  2.71068  329  2.99292  335  -0.0  100   -0.1  0     0     989.1    NA       0.0000   9999     9190  0     0    
2019/08/25  10:21:01  BASE  2.34612  324  2.99292  335  -0.1  100   -0.2  0     0     989.0    NA       0.0000   9999     9150  0     0    
2019/08/25  10:22:01  BASE  2.12268  324  2.99292  335  -0.2  100   -0.2  0     0     989.0    NA       0.0000   9999     9220  0     0    
2019/08/25  10:23:01  BASE  1.9992   333  2.99292  335  -0.2  100   -0.2  0     0     989.0    NA       0.0000   9999     9220  0     0    
2019/08/25  10:24:01  BASE  1.77576  354  2.99292  335  -0.2  100   -0.2  0     0     989.0    NA       0.0000   9999     9220  0     0    
2019/08/25  10:25:01  BASE  1.68756  17   2.99292  335  -0.2  100   -0.2  0     0     989.0    NA       0.0000   9999     9190  0     0    
2019/08/25  10:26:01  BASE  1.59348  25   2.99292  335  -0.2  100   -0.2  0     0     989.0    NA       0.0000   9999     9320  0     0    
2019/08/25  10:27:01  BASE  1.32888  13   2.99292  335  -0.1  100   -0.1  0     0     989.0    NA       0.0000   9999     9290  0     0    
2019/08/25  10:28:01  BASE  1.29948  4    2.99292  335  0.1   100   0.1   0     0     989.0    NA       0.0000   9999     9250  0     0    
2019/08/25  10:29:01  BASE  1.48176  9    2.81064  328  0.2   100   0.2   0     0     989.0    NA       0.0000   9999     9250  0     0    
2019/08/25  10:30:01  BASE  1.57584  11   2.29908  326  0.3   100   0.3   0     0     989.0    NA       0.0000   9999     5050  9290  0    
2019/08/25  10:31:01  BASE  1.4112   16   2.1462   326  0.5   100   0.4   0     0     989.0    NA       0.0000   9999     4790  9290  0    
2019/08/25  10:32:01  BASE  1.24656  26   2.0286   331  0.5   100   0.4   0     0     989.0    NA       0.0000   9999     4660  9450  0    
2019/08/25  10:33:01  BASE  1.37592  41   1.96392  58   0.5   99    0.4   0     0     989.0    NA       0.0000   9999     4560  0     0    
2019/08/25  10:34:01  BASE  1.63464  52   1.96392  65   0.4   99    0.3   0     0     989.0    NA       0.0000   9999     4460  9380  0    
2019/08/25  10:35:01  BASE  1.50528  49   1.96392  65   0.4   99    0.2   0     0     988.9    NA       0.0000   9999     4460  6960  9420 
2019/08/25  10:36:01  BASE  0.77028  47   1.96392  65   0.4   99    0.3   0     0     988.8    NA       0.0000   9999     4430  6920  0    
2019/08/25  10:37:01  BASE  0.15876  45   1.96392  65   0.5   99    0.4   0     0     988.7    NA       0.0000   9999     4360  0     0    
2019/08/25  10:38:01  BASE  0.25872  47   1.96392  65   0.7   99    0.5   0     0     988.7    NA       0.0000   9999     4430  6990  0    
2019/08/25  10:39:01  BASE  0.75264  65   1.96392  65   0.8   99    0.7   0     0     988.7    NA       0.0000   9999     4300  6960  0    
2019/08/25  10:40:01  BASE  1.12896  73   1.96392  65   1.0   98    0.7   0     0     988.7    NA       0.0000   9999     4300  6890  0    
2019/08/25  10:41:01  BASE  1.323    70   1.96392  65   1.2   97    0.8   0     0     988.7    NA       0.0000   9999     4130  6890  0    
2019/08/25  10:42:01  BASE  1.50528  62   1.96392  65   1.4   96    0.8   0     0     988.7    NA       0.0000   9999     4170  6920  0    
2019/08/25  10:43:01  BASE  1.8228   54   2.21088  51   1.4   95    0.7   0     0     988.7    NA       0.0000   9999     6960  0     0    
2019/08/25  10:44:01  BASE  2.09916  48   2.29908  43   1.5   94    0.6   0     0     988.7    NA       0.0000   9999     4400  6990  0    
2019/08/25  10:45:01  BASE  1.98156  44   2.29908  43   1.5   93    0.4   0     0     988.7    NA       0.0000   9999     6960  0     0    
2019/08/25  10:46:01  BASE  1.64052  46   2.29908  43   1.4   92    0.2   0     0     988.7    NA       0.0000   9999     7020  0     0    
2019/08/25  10:47:01  BASE  1.4406   45   2.29908  43   1.3   91    0.1   0     0     988.7    NA       0.0000   9999     7020  9450  0    
2019/08/25  10:48:01  BASE  1.38768  44   2.29908  43   1.3   91    0.0   0     0     988.7    NA       0.0000   9999     6960  0     0    
2019/08/25  10:49:01  BASE  1.2642   46   2.29908  43   1.3   92    0.0   0     0     988.7    NA       0.0000   9999     4460  7050  0    
2019/08/25  10:50:00  BASE  1.02312  44   2.29908  43   1.3   92    0.1   0     0     988.6    NA       0.0000   9999     7020  9090  0    
2019/08/25  10:51:00  BASE  0.81732  41   2.29908  43   1.3   92    0.2   0     0     988.5    NA       0.0000   9999     4590  7020  7510 
2019/08/25  10:52:00  BASE  0.92904  41   2.29908  43   1.4   92    0.2   0     0     988.6    NA       0.0000   9999     4590  7120  0    
2019/08/25  10:53:01  BASE  1.31124  43   2.29908  43   1.4   92    0.2   0     0     988.7    NA       0.0000   9999     4760  0     0    
2019/08/25  10:54:01  BASE  1.56408  44   2.0286   42   1.5   91    0.2   0     0     988.7    NA       0.0000   9999     4860  7090  0    
2019/08/25  10:55:01  BASE  1.58172  47   1.69344  49   1.5   91    0.2   0     0     988.7    NA       0.0000   9999     4630  0     0    
2019/08/25  10:56:00  BASE  1.50528  50   1.69344  49   1.5   91    0.1   0     0     988.6    NA       0.0000   9999     4630  0     0    
2019/08/25  10:57:00  BASE  1.27008  54   1.69344  49   1.5   91    0.1   0     0     988.5    NA       0.0000   9999     4430  0     0    
2019/08/25  10:58:00  BASE  1.03488  59   1.69344  49   1.5   91    0.1   0     0     988.5    NA       0.0000   9999     4360  0     0    
2019/08/25  10:59:00  BASE  1.02312  65   1.69344  49   1.5   91    0.1   0     0     988.5    NA       0.0000   9999     4300  0     0    
2019/08/25  11:00:00  BASE  0.99372  68   1.69344  49   1.6   91    0.2   0     0     988.5    NA       0.0000   9999     4300  0     0    
2019/08/25  11:01:00  BASE  0.86436  66   1.69344  49   1.7   91    0.3   0     0     988.5    NA       0.0000   9999     4300  0     0    
2019/08/25  11:02:01  BASE  0.81144  61   1.69344  49   1.8   90    0.4   0     0     988.5    NA       0.0000   9999     4270  0     0    
2019/08/25  11:03:00  BASE  0.882    63   1.69344  49   2.0   90    0.4   0     0     988.5    NA       0.0000   9999     4300  0     0    
2019/08/25  11:04:00  BASE  0.93492  68   1.63464  48   2.0   89    0.4   0     0     988.5    NA       0.0000   9999     4330  0     0    
2019/08/25  11:05:00  BASE  0.88788  68   1.54056  51   2.1   88    0.3   0     0     988.5    NA       0.0000   9999     4270  0     0    
2019/08/25  11:06:01  BASE  0.85848  67   1.21128  53   2.1   87    0.3   0     0     988.7    NA       0.0000   9999     4270  0     0    
2019/08/25  11:07:01  BASE  0.89376  63   1.1466   68   2.2   87    0.2   0     0     988.7    NA       0.0000   9999     4270  0     0    
2019/08/25  11:08:01  BASE  0.65268  47   1.1466   68   2.1   86    0.1   0     0     988.7    NA       0.0000   9999     4360  0     0    
2019/08/25  11:09:00  BASE  0.22344  29   1.0878   77   2.0   86    -0.0  0     0     988.7    NA       0.0000   9999     4330  0     0    
2019/08/25  11:10:00  BASE  0.0294   19   1.0878   77   1.9   86    -0.1  0     0     988.7    NA       0.0000   9999     4360  0     0    
2019/08/25  11:11:00  BASE  0        14   1.0878   77   1.8   87    -0.2  0     0     988.7    NA       0.0000   9999     4330  0     0    
2019/08/25  11:12:00  BASE  0.294    293  1.0878   77   1.6   87    -0.3  0     0     988.7    NA       0.0000   9999     4300  0     0    
2019/08/25  11:13:00  BASE  0.32928  257  1.0878   77   1.3   88    -0.5  0     0     988.7    NA       0.0000   9999     4330  0     0    
2019/08/25  11:14:00  BASE  0.24108  10   1.0878   6    1.2   89    -0.4  0     0     988.7    NA       0.0000   9999     4330  0     0    
2019/08/25  11:15:00  BASE  0.79968  22   1.39356  15   1.0   90    -0.4  0     0     988.7    NA       0.0000   9999     4300  0     0    
2019/08/25  11:16:00  BASE  1.12308  16   1.39356  15   1.0   91    -0.3  0     0     988.7    NA       0.0000   9999     4400  0     0    
2019/08/25  11:17:00  BASE  0.81732  24   1.39356  15   1.0   92    -0.1  0     0     988.7    NA       0.0000   9999     4300  0     0    
2019/08/25  11:18:00  BASE  0.28812  31   1.39356  15   1.1   93    0.1   0     0     988.7    NA       0.0000   9999     4230  0     0    
2019/08/25  11:19:00  BASE  0.18228  58   1.39356  15   1.1   93    0.1   0     0     988.7    NA       0.0000   9999     4270  0     0    
2019/08/25  11:20:00  BASE  0.63504  211  1.39356  15   1.1   93    0.1   0     0     988.7    NA       0.0000   9999     4200  0     0    
2019/08/25  11:21:00  BASE  0.882    222  1.39356  15   1.1   93    0.0   0     0     988.7    NA       0.0000   9999     4170  0     0    
2019/08/25  11:22:00  BASE  0.42924  223  1.39356  15   1.0   93    -0.1  0     0     988.7    NA       0.0000   9999     4070  0     0    
2019/08/25  11:23:00  BASE  0        213  1.39356  15   0.9   93    -0.1  0     0     988.8    NA       0.0000   9999     4070  0     0    
2019/08/25  11:24:00  BASE  0        100  1.39356  15   0.9   93    -0.1  0     0     988.8    NA       0.0000   9999     4100  0     0    
2019/08/25  11:25:00  BASE  0        71   1.21128  20   0.9   94    0.0   0     0     988.7    NA       0.0000   9999     4070  0     0    
2019/08/25  11:26:00  BASE  0        69   1.029    222  1.0   94    0.2   0     0     988.7    NA       0.0000   9999     4170  0     0    
2019/08/25  11:27:00  BASE  0.19992  60   1.1466   45   1.1   95    0.4   0     0     988.8    NA       0.0000   9999     4100  0     0    
2019/08/25  11:28:00  BASE  1.04076  49   1.87572  50   1.3   94    0.5   0     0     988.9    NA       0.0000   9999     4100  0     0    
2019/08/25  11:29:00  BASE  1.55232  50   1.87572  50   1.3   94    0.4   0     0     988.8    NA       0.0000   9999     4040  0     0    
2019/08/25  11:30:00  BASE  0.74676  35   1.87572  50   1.3   93    0.3   0     0     988.7    NA       0.0000   9999     4170  0     0    
2019/08/25  11:31:00  BASE  0.42336  311  1.87572  50   1.2   93    0.1   0     0     988.7    NA       0.0000   9999     4100  0     0    
2019/08/25  11:32:00  BASE  0.44688  258  1.87572  50   1.0   93    -0.1  0     0     988.7    NA       0.0000   9999     4040  0     0    
2019/08/25  11:33:00  BASE  0.08232  247  1.87572  50   0.8   93    -0.2  0     0     988.8    NA       0.0000   9999     4070  0     0    
2019/08/25  11:34:00  BASE  0.55272  5    1.87572  50   0.7   94    -0.2  1     0     988.9    NA       0.0000   9999     3900  0     0    
2019/08/25  11:35:00  BASE  1.18776  345  1.87572  50   0.6   95    -0.2  1     0     988.9    NA       0.0000   9999     3940  0     0    
2019/08/25  11:36:00  BASE  1.4406   310  1.87572  50   0.5   96    -0.1  1     0     988.8    NA       0.0000   9999     3970  0     0    
2019/08/25  11:37:00  BASE  1.6758   284  1.96392  258  0.5   96    0.0   1     0     988.8    NA       0.0000   9999     4040  0     0    
2019/08/25  11:38:00  BASE  2.00508  259  2.42256  246  0.5   97    0.0   1     0     988.7    NA       0.0000   9999     3870  0     0    
2019/08/25  11:39:00  BASE  2.18736  244  2.51076  242  0.5   97    0.1   1     0     988.7    NA       0.0000   9999     3870  0     0    
2019/08/25  11:40:00  BASE  1.68168  244  2.51076  242  0.5   97    0.1   1     0     988.8    NA       0.0000   9999     3870  0     0    
2019/08/25  11:41:00  BASE  0.92316  266  2.51076  242  0.4   97    0.0   1     0     988.9    NA       0.0000   9999     3940  0     0    
2019/08/25  11:42:00  BASE  0.81144  287  2.51076  242  0.4   97    -0.0  1     0     988.8    NA       0.0000   9999     3940  0     0    
2019/08/25  11:43:00  BASE  1.27008  284  2.51076  242  0.4   97    -0.0  1     0     988.7    NA       0.0000   9999     3900  0     0    
2019/08/25  11:44:00  BASE  1.63464  283  2.51076  242  0.3   97    -0.0  1     0     988.7    NA       0.0000   9999     3870  0     0    
2019/08/25  11:45:00  BASE  1.62876  290  2.51076  242  0.4   98    0.0   1     0     988.7    NA       0.0000   9999     3940  0     0    
2019/08/25  11:46:00  BASE  1.51704  297  2.51076  242  0.4   98    0.2   1     0     988.7    NA       0.0000   9999     3900  0     0    
2019/08/25  11:47:00  BASE  1.62876  302  2.51076  242  0.5   98    0.3   1     0     988.7    NA       0.0000   9999     3970  0     0    
2019/08/25  11:48:00  BASE  1.80516  304  2.51076  242  0.6   98    0.4   1     0     988.7    NA       0.0000   9999     3900  0     0    
2019/08/25  11:49:00  BASE  1.8228   311  1.93452  302  0.7   98    0.5   1     0     988.7    NA       0.0000   9999     3940  0     0    
2019/08/25  11:50:00  BASE  1.86396  328  1.9992   341  0.8   98    0.5   2     0     988.7    NA       0.0000   9999     3870  0     0    
2019/08/25  11:51:00  BASE  1.85808  0    2.24028  34   0.8   97    0.4   2     0     988.6    NA       0.0000   9999     3840  0     0    
2019/08/25  11:52:00  BASE  0.89964  26   2.24028  34   0.7   97    0.3   2     0     988.5    NA       0.0000   9999     3870  0     0    
2019/08/25  11:53:00  BASE  0.48804  259  2.24028  34   0.5   97    0.1   2     0     988.4    NA       0.0000   9999     3840  0     0    
2019/08/25  11:54:00  BASE  0.9702   242  2.24028  34   0.4   97    -0.0  2     0     988.5    NA       0.0000   9999     3870  0     0    
2019/08/25  11:55:00  BASE  1.0584   291  2.24028  34   0.3   97    -0.1  2     0     988.6    NA       0.0000   9999     3900  0     0    
2019/08/25  11:56:00  BASE  1.61112  353  3.29868  55   0.3   97    -0.1  2     0     988.7    NA       0.0000   9999     3900  0     0    
2019/08/25  11:57:00  BASE  2.56956  45   3.29868  69   0.2   98    -0.1  2     0     988.6    NA       0.0000   9999     3870  0     0    
2019/08/25  11:58:00  BASE  2.72832  64   3.29868  69   0.2   98    -0.1  3     0     988.5    NA       0.0000   9999     3840  0     0    
2019/08/25  11:59:00  BASE  2.0874   51   3.29868  69   0.1   99    -0.1  3     0     988.5    NA       0.0000   9999     3840  0     0    
2019/08/25  12:00:00  BASE  1.36416  37   3.29868  69   -0.0  99    -0.2  3     0     988.5    NA       0.0000   9999     3740  0     0    
2019/08/25  12:01:00  BASE  0.4998   7    3.29868  69   -0.1  99    -0.1  3     0     988.5    NA       0.0000   9999     3840  0     0    
2019/08/25  12:02:00  BASE  0.48804  308  3.29868  69   0.0   100   -0.0  3     0     988.5    NA       0.0000   9999     3840  0     0    
2019/08/25  12:03:00  BASE  0.92316  282  3.29868  69   0.1   100   0.1   4     0     988.5    NA       0.0000   9999     3770  0     0    
2019/08/25  12:04:00  BASE  0.61152  304  3.29868  69   0.2   100   0.2   4     0     988.5    NA       0.0000   9999     3810  0     0    
2019/08/25  12:05:00  BASE  0.2058   14   3.29868  69   0.3   100   0.3   4     0     988.5    NA       0.0000   9999     3770  0     0    
2019/08/25  12:06:00  BASE  0.62328  68   3.29868  69   0.3   100   0.3   4     0     988.5    NA       0.0000   9999     3710  0     0    
2019/08/25  12:07:00  BASE  1.63464  76   2.63424  67   0.4   100   0.4   4     0     988.6    NA       0.0000   9999     3740  0     0    
2019/08/25  12:08:00  BASE  1.83456  67   2.29908  68   0.5   100   0.5   5     0     988.5    NA       0.0000   9999     3810  0     0    
2019/08/25  12:09:00  BASE  0.82908  74   2.29908  68   0.5   100   0.5   5     0     988.5    NA       0.0000   9999     3770  0     0    
2019/08/25  12:10:00  BASE  0.65856  175  2.29908  68   0.7   100   0.7   5     0     988.5    NA       0.0000   9999     3670  0     0    
2019/08/25  12:11:00  BASE  1.22304  179  2.29908  68   0.8   100   0.7   5     0     988.5    NA       0.0000   9999     3740  0     0    
2019/08/25  12:12:00  BASE  1.21128  131  2.29908  68   0.9   99    0.7   5     0     988.5    NA       0.0000   9999     3770  0     0    
2019/08/25  12:13:00  BASE  1.3524   101  2.29908  68   0.9   98    0.7   6     0     988.5    NA       0.0000   9999     3770  0     0    
2019/08/25  12:14:00  BASE  1.5582   100  2.29908  68   1.0   98    0.7   6     0     988.5    NA       0.0000   9999     3770  0     0    
2019/08/25  12:15:00  BASE  1.42884  127  2.29908  68   0.9   97    0.5   6     0     988.5    NA       0.0000   9999     3810  0     0    
2019/08/25  12:16:00  BASE  1.2054   168  2.29908  68   0.9   97    0.4   6     0     988.5    NA       0.0000   9999     3770  0     0    
2019/08/25  12:17:00  BASE  0.94668  214  2.1462   67   0.9   97    0.4   6     0     988.5    NA       0.0000   9999     3810  0     0    
2019/08/25  12:18:00  BASE  0.78204  249  1.75224  92   0.9   97    0.4   7     0     988.5    NA       0.0000   9999     3770  0     0    
2019/08/25  12:19:00  BASE  0.51156  253  1.75224  92   0.9   96    0.4   7     0     988.5    NA       0.0000   9999     3770  0     0    
2019/08/25  12:20:00  BASE  0.43512  206  1.75224  92   0.9   96    0.4   7     0     988.5    NA       0.0000   9999     3770  0     0    
2019/08/25  12:21:00  BASE  1.08192  155  1.81692  145  0.8   96    0.3   7     0     988.6    NA       0.0000   9999     3810  0     0    
2019/08/25  12:22:00  BASE  2.00508  156  3.69264  176  0.7   96    0.2   7     0     988.6    NA       0.0000   9999     3840  0     0    
2019/08/25  12:23:00  BASE  3.39276  174  4.93332  184  0.6   96    0.0   7     0     988.5    NA       0.0000   9999     3840  0     0    
2019/08/25  12:24:00  BASE  3.68088  181  4.93332  184  0.3   96    -0.2  8     0     988.5    NA       0.0000   9999     3870  0     0    
2019/08/25  12:25:00  BASE  2.6754   176  4.93332  184  0.1   97    -0.4  8     0     988.5    NA       0.0000   9999     3840  0     0    
2019/08/25  12:26:00  BASE  2.3814   170  4.93332  184  -0.2  97    -0.5  8     0     988.5    NA       0.0000   9999     3870  0     0    
2019/08/25  12:27:00  BASE  2.63424  170  4.93332  184  -0.5  98    -0.7  9     0     988.5    NA       0.0000   9999     3900  0     0    
2019/08/25  12:28:00  BASE  2.7636   179  4.93332  184  -0.7  99    -0.8  10    0     988.5    NA       0.0000   9999     3970  0     0    
2019/08/25  12:29:00  BASE  2.54016  188  4.93332  184  -0.8  99    -0.8  10    0     988.5    NA       0.0000   9999     3940  0     0    
2019/08/25  12:30:00  BASE  2.03448  191  4.93332  184  -0.8  100   -0.8  11    0     988.5    NA       0.0000   9999     3900  0     0    
2019/08/25  12:31:00  BASE  1.5288   190  4.93332  184  -0.8  100   -0.8  11    0     988.5    NA       0.0000   9999     3940  0     0    
2019/08/25  12:32:00  BASE  1.31124  200  4.93332  184  -0.8  100   -0.8  12    0     988.5    NA       0.0000   9999     4000  0     0    
2019/08/25  12:33:00  BASE  1.47588  221  4.02192  187  -0.8  100   -0.8  12    0     988.5    NA       0.0000   9999     3970  0     0    
2019/08/25  12:34:00  BASE  1.78164  229  2.87532  182  -0.8  100   -0.8  13    0     988.5    NA       0.0000   9999     3940  0     0    
2019/08/25  12:35:00  BASE  1.9992   218  2.87532  182  -0.8  100   -0.8  14    0     988.5    NA       0.0000   9999     3900  0     0    
2019/08/25  12:36:00  BASE  2.1756   200  2.87532  182  -0.8  100   -0.8  14    0     988.5    NA       0.0000   9999     3900  0     0    
2019/08/25  12:37:00  BASE  2.13444  191  2.87532  182  -0.8  100   -0.8  15    0     988.5    NA       0.0000   9999     3900  0     0    
2019/08/25  12:38:00  BASE  1.89924  205  2.54016  202  -0.8  100   -0.8  15    0     988.5    NA       0.0000   9999     3900  0     0    
2019/08/25  12:39:00  BASE  1.69932  216  2.54016  202  -0.7  100   -0.7  15    0     988.5    NA       0.0000   9999     3840  0     0    
2019/08/25  12:40:00  BASE  1.65228  216  2.54016  202  -0.6  100   -0.6  16    0     988.5    NA       0.0000   9999     3840  0     0    
2019/08/25  12:41:00  BASE  1.5876   225  2.54016  202  -0.4  100   -0.4  16    0     988.5    NA       0.0000   9999     3900  0     0    
2019/08/25  12:42:00  BASE  1.17012  237  2.54016  202  -0.3  100   -0.3  16    0     988.5    NA       0.0000   9999     3870  0     0    
2019/08/25  12:43:00  BASE  0.59388  281  2.54016  202  -0.3  100   -0.3  17    0     988.6    NA       0.0000   9999     3710  0     0    
2019/08/25  12:44:00  BASE  0.9702   359  2.54016  202  -0.3  100   -0.3  17    0     988.7    NA       0.0000   9999     3740  0     0    
2019/08/25  12:45:00  BASE  1.9404   31   2.54016  202  -0.3  100   -0.3  17    0     988.7    NA       0.0000   9999     3900  0     0    
2019/08/25  12:46:00  BASE  1.764    35   2.45196  35   -0.5  100   -0.5  18    0     988.7    NA       0.0000   9999     3770  4430  0    
2019/08/25  12:47:00  BASE  1.22304  34   2.45196  35   -0.6  100   -0.6  18    0     988.6    NA       0.0000   9999     3870  0     0    
2019/08/25  12:48:00  BASE  1.176    26   2.45196  35   -0.6  100   -0.6  19    0     988.5    NA       0.0000   9999     3810  0     0    
2019/08/25  12:49:00  BASE  1.31712  8    2.45196  35   -0.6  100   -0.6  19    0     988.5    NA       0.0000   9999     4040  0     0    
2019/08/25  12:50:00  BASE  1.29948  354  2.45196  35   -0.5  100   -0.5  20    0     988.5    NA       0.0000   9999     3900  0     0    
2019/08/25  12:51:01  BASE  1.18188  326  2.45196  35   -0.3  100   -0.3  21    0     988.5    NA       0.0000   9999     4100  0     0    
2019/08/25  12:52:00  BASE  1.176    296  2.45196  35   -0.2  100   -0.2  22    0     988.5    NA       0.0000   9999     4070  0     0    
2019/08/25  12:53:00  BASE  1.31712  324  2.45196  35   -0.2  100   -0.2  22    0     988.5    NA       0.0000   9999     3810  0     0    
2019/08/25  12:54:01  BASE  1.54644  6    2.45196  35   -0.2  100   -0.2  24    0     988.5    NA       0.0000   9999     4100  0     0    
2019/08/25  12:55:01  BASE  0.91728  36   1.9992   19   -0.3  100   -0.3  25    0     988.4    NA       0.0000   9999     4100  0     0    
2019/08/25  12:56:01  BASE  0.2352   77   1.9992   19   -0.3  100   -0.3  26    0     988.4    NA       0.0000   9999     4170  0     0    
2019/08/25  12:57:01  BASE  0.45864  84   1.9992   19   -0.3  100   -0.3  27    0     988.5    NA       0.0000   9999     4170  0     0    
2019/08/25  12:58:01  BASE  0.4704   61   1.9992   19   -0.3  100   -0.3  27    0     988.4    NA       0.0000   9999     4200  0     0    
2019/08/25  12:59:01  BASE  0.11172  27   1.9992   19   -0.1  100   -0.1  28    0     988.3    NA       0.0000   9999     4070  0     0    
2019/08/25  13:00:01  BASE  0        275  1.9992   19   -0.0  100   -0.0  29    0     988.3    NA       0.0000   9999     4040  0     0    
2019/08/25  13:01:01  BASE  0        42   1.9992   19   0.1   100   0.1   30    0     988.4    NA       0.0000   9999     4070  0     0    
2019/08/25  13:02:01  BASE  0.59388  37   1.9992   19   0.2   100   0.2   31    0     988.4    NA       0.0000   9999     4040  4860  0    
2019/08/25  13:03:01  BASE  1.42884  48   1.9992   19   0.3   100   0.3   33    0     988.4    NA       0.0000   9999     4070  4990  0    
2019/08/25  13:04:01  BASE  1.44648  55   1.87572  44   0.3   100   0.3   34    0     988.4    NA       0.0000   9999     4040  4590  0    
2019/08/25  13:05:01  BASE  0.6762   67   1.87572  44   0.4   100   0.4   35    0     988.3    NA       0.0000   9999     4000  0     0    
2019/08/25  13:06:01  BASE  0.24108  166  1.87572  85   0.4   100   0.4   37    0     988.3    NA       0.0000   9999     4170  4790  0    
2019/08/25  13:07:01  BASE  1.12308  99   2.84592  42   0.5   100   0.5   39    0     988.3    NA       0.0000   9999     3970  0     0    
2019/08/25  13:08:01  BASE  1.68756  82   2.84592  42   0.5   100   0.5   42    0     988.4    NA       0.0000   9999     4100  0     0    
2019/08/25  13:09:01  BASE  1.07016  120  2.84592  42   0.5   100   0.5   44    0     988.3    NA       0.0000   9999     4000  0     0    
2019/08/25  13:10:01  BASE  0.3822   193  2.84592  42   0.6   100   0.6   47    0     988.3    NA       0.0000   9999     3870  0     0    
2019/08/25  13:11:01  BASE  0.08232  168  2.84592  42   0.7   100   0.7   49    0     988.3    NA       0.0000   9999     3900  0     0    
2019/08/25  13:12:01  BASE  0.02352  79   2.84592  42   0.7   100   0.7   51    0     988.3    NA       0.0000   9999     3970  0     0    
2019/08/25  13:13:01  BASE  0        59   2.84592  42   0.8   100   0.8   56    0     988.3    NA       0.0000   9999     3970  0     0    
2019/08/25  13:14:01  BASE  0        20   2.84592  42   0.8   100   0.8   63    0     988.3    NA       0.0000   9999     3900  0     0    
2019/08/25  13:15:01  BASE  0.27636  10   2.84592  42   0.8   100   0.7   68    0     988.3    NA       0.0000   9999     3970  0     0    
2019/08/25  13:16:01  BASE  0.5292   49   2.84592  42   0.8   99    0.7   78    0     988.3    NA       0.0000   9999     3940  0     0    
2019/08/25  13:17:01  BASE  0.25284  33   2.0286   78   0.8   99    0.7   95    0     988.2    NA       0.0000   9999     3900  0     0    
2019/08/25  13:18:01  BASE  0.08232  2    1.29948  79   0.9   99    0.7   110   0     988.2    NA       0.0000   9999     3970  0     0    
2019/08/25  13:19:01  BASE  0.08232  55   1.029    54   0.9   98    0.7   113   0     988.2    NA       0.0000   9999     4040  0     0    
2019/08/25  13:20:01  BASE  0        153  1.029    54   1.0   98    0.7   115   0     988.2    NA       0.0000   9999     3970  0     0    
2019/08/25  13:21:01  BASE  0.55272  137  1.29948  101  1.0   97    0.7   114   0     988.2    NA       0.0000   9999     4130  0     0    
2019/08/25  13:22:01  BASE  1.32888  124  1.75224  169  1.0   97    0.6   118   0     988.1    NA       0.0000   9999     4100  0     0    
2019/08/25  13:23:01  BASE  1.39944  149  1.75224  169  1.0   97    0.5   113   0     988.1    NA       0.0000   9999     4040  0     0    
2019/08/25  13:24:01  BASE  1.65816  138  2.29908  132  1.0   96    0.5   113   0     988.2    NA       0.0000   9999     4100  0     0    
2019/08/25  13:25:01  BASE  2.16972  142  2.63424  160  0.9   96    0.4   116   0     988.1    NA       0.0000   9999     4040  0     0    
2019/08/25  13:26:01  BASE  2.54016  156  2.93412  153  0.8   96    0.3   117   0     988.1    NA       0.0000   9999     4270  0     0    
2019/08/25  13:27:01  BASE  2.9106   155  3.1458   151  0.7   97    0.2   107   0     988.2    NA       0.0000   9999     4200  0     0    
2019/08/25  13:28:01  BASE  2.6166   152  3.1458   151  0.5   97    0.2   103   0     988.1    NA       0.0000   9999     4170  0     0    
2019/08/25  13:29:01  BASE  2.06388  172  3.1458   151  0.5   98    0.2   110   0     988.0    NA       0.0000   9999     4230  0     0    
2019/08/25  13:30:01  BASE  1.80516  193  3.1458   151  0.4   99    0.2   121   0     988.0    NA       0.0000   9999     4230  0     0    
2019/08/25  13:31:01  BASE  1.51704  187  3.1458   151  0.3   99    0.2   126   0     988.0    NA       0.0000   9999     4270  0     0    
2019/08/25  13:32:01  BASE  1.0878   188  3.1458   151  0.3   100   0.2   129   0     988.0    NA       0.0000   9999     4300  0     0    
2019/08/25  13:33:01  BASE  0.6174   201  3.1458   151  0.2   100   0.2   133   0     988.0    NA       0.0000   9999     4230  0     0    
2019/08/25  13:34:01  BASE  0.72912  212  3.1458   151  0.2   100   0.2   136   0     987.9    NA       0.0000   9999     4300  0     0    
2019/08/25  13:35:01  BASE  1.18776  210  3.1458   151  0.2   100   0.2   138   0     987.9    NA       0.0000   9999     4360  0     0    
2019/08/25  13:36:01  BASE  1.58172  189  3.1458   151  0.2   100   0.2   136   0     988.0    NA       0.0000   9000     4330  0     0    
2019/08/25  13:37:01  BASE  1.8522   169  2.87532  132  0.2   100   0.2   136   0     988.0    NA       0.0000   9999     3640  4200  0    
2019/08/25  13:38:01  BASE  2.62836  139  4.2042   125  0.2   100   0.2   134   0     988.0    NA       0.0000   9999     3710  4270  0    
2019/08/25  13:39:01  BASE  2.52252  104  4.2042   125  0.4   100   0.4   136   0     988.0    NA       0.0000   9999     3770  4460  0    
2019/08/25  13:40:01  BASE  1.37004  94   4.2042   125  0.6   100   0.6   130   0     988.0    NA       0.0000   9999     3670  0     0    
2019/08/25  13:41:01  BASE  1.64052  100  4.2042   125  0.7   100   0.7   129   0     988.0    NA       0.0000   9999     3670  4530  0    
2019/08/25  13:42:01  BASE  2.66364  119  4.2042   125  0.9   100   0.9   129   0     987.9    NA       0.0000   9999     4660  0     0    
2019/08/25  13:43:01  BASE  3.3222   152  4.65696  160  1.0   100   1.0   129   0     987.8    NA       0.0000   9999     4790  5910  0    
2019/08/25  13:44:01  BASE  3.86904  164  5.65656  169  1.0   100   1.0   129   0     987.8    NA       0.0000   9999     5810  0     0    
2019/08/25  13:45:01  BASE  3.25164  150  5.65656  169  0.9   100   0.9   126   0     987.9    NA       0.0000   9999     5740  0     0    
2019/08/25  13:46:01  BASE  2.07564  135  5.65656  169  0.8   100   0.8   123   0     987.9    NA       0.0000   9999     5870  0     0    
2019/08/25  13:47:01  BASE  2.352    143  5.65656  169  0.8   99    0.7   120   0     987.8    NA       0.0000   9999     5940  0     0    
2019/08/25  13:48:01  BASE  3.31044  153  5.65656  169  0.8   99    0.7   117   0     987.8    NA       0.0000   9999     6960  0     0    
2019/08/25  13:49:01  BASE  3.91608  148  5.65656  169  0.8   99    0.7   114   0     987.7    NA       0.0000   9999     6820  0     0    
2019/08/25  13:50:01  BASE  4.07484  146  5.65656  169  0.7   99    0.6   112   0     987.6    NA       0.0000   9999     6820  0     0    
2019/08/25  13:51:01  BASE  4.50996  157  6.65616  142  0.7   100   0.7   110   0     987.5    NA       0.0000   9999     6660  0     0    
2019/08/25  13:52:01  BASE  5.09208  159  6.65616  142  0.7   100   0.7   106   0     987.5    NA       0.0000   9999     6690  0     0    
2019/08/25  13:53:01  BASE  5.42136  162  7.19712  165  0.8   100   0.8   103   0     987.2    NA       0.0000   9999     6560  0     0    
2019/08/25  13:54:01  BASE  5.09796  169  8.2908   157  1.1   100   1.1   100   0     987.1    NA       0.0000   9999     6630  0     0    
2019/08/25  13:55:01  BASE  5.0568   149  8.2908   157  1.5   100   1.5   97    0     987.2    NA       0.0000   9999     6630  0     0    
2019/08/25  13:56:01  BASE  5.15088  142  8.2908   157  2.0   98    1.8   82    0     987.2    NA       0.0000   9999     6590  0     0    
2019/08/25  13:57:01  BASE  5.53308  152  8.2908   157  2.5   96    1.9   67    0     987.1    NA       0.0000   9999     6530  0     0    
2019/08/25  13:58:01  BASE  6.15048  162  8.2908   157  2.9   92    1.7   63    0     987.1    NA       0.0000   9999     6590  0     0    
2019/08/25  13:59:01  BASE  5.19792  166  8.2908   157  2.9   88    1.1   63    0     987.2    NA       0.0000   9999     6460  0     0    
2019/08/25  14:00:01  BASE  3.56328  160  8.2908   157  2.7   85    0.4   78    0     987.2    NA       0.0000   9999     6430  0     0    
2019/08/25  14:01:01  BASE  2.75184  137  8.2908   157  2.3   84    -0.2  68    0     987.3    NA       0.0000   9999     6430  0     0    
2019/08/25  14:02:01  BASE  3.969    132  8.2908   157  2.1   84    -0.3  62    0     987.2    NA       0.0000   9999     6400  0     0    
2019/08/25  14:03:01  BASE  5.28612  150  8.2908   157  1.8   86    -0.4  56    0     987.2    NA       0.0000   9999     6370  0     0    
2019/08/25  14:04:01  BASE  4.85688  157  7.59108  140  1.6   87    -0.3  58    0     987.2    NA       0.0000   9999     6330  0     0    
2019/08/25  14:05:01  BASE  4.1454   160  7.2618   144  1.6   89    -0.1  61    0     987.1    NA       0.0000   9999     6330  0     0    
2019/08/25  14:06:00  BASE  3.6456   147  7.2618   144  1.5   90    -0.0  61    0     987.2    NA       0.0000   9999     6330  0     0    
2019/08/25  14:07:00  BASE  3.47508  134  7.07952  158  1.4   90    -0.0  59    0     987.2    NA       0.0000   9999     6330  0     0    
2019/08/25  14:08:01  BASE  4.45704  141  7.07952  158  1.4   91    0.2   62    0     987.1    NA       0.0000   9999     6400  0     0    
2019/08/25  14:09:00  BASE  4.851    158  7.07952  158  1.5   92    0.3   62    0     987.0    NA       0.0000   9999     6400  0     0    
2019/08/25  14:10:00  BASE  4.3512   146  7.07952  158  1.5   92    0.4   57    0     987.2    NA       0.0000   9999     6370  0     0    
2019/08/25  14:11:00  BASE  4.39236  123  7.07952  158  1.6   92    0.5   49    0     987.3    NA       0.0000   9999     6370  0     0    
2019/08/25  14:12:01  BASE  4.15128  147  6.3504   170  1.6   92    0.4   45    0     987.2    NA       0.0000   9999     6400  0     0    
2019/08/25  14:13:01  BASE  3.39276  165  5.99172  143  1.5   91    0.3   45    0     987.3    NA       0.0000   9999     6300  0     0    
2019/08/25  14:14:00  BASE  2.13444  130  5.99172  143  1.4   92    0.2   43    0     987.4    NA       0.0000   9999     6300  0     0    
2019/08/25  14:15:00  BASE  1.3818   10   5.99172  143  1.3   92    0.1   41    0     987.4    NA       0.0000   9999     6200  0     0    
2019/08/25  14:16:01  BASE  1.323    324  5.99172  143  1.2   92    0.1   39    0     987.4    NA       0.0000   9999     6170  0     0    
2019/08/25  14:17:00  BASE  1.28772  286  5.99172  143  1.1   93    0.1   38    0     987.4    NA       0.0000   9999     6230  0     0    
2019/08/25  14:18:00  BASE  1.58172  269  5.68596  164  1.0   94    0.2   38    0     987.4    NA       0.0000   9999     4950  6200  0    
2019/08/25  14:19:00  BASE  1.85808  254  5.35668  142  1.0   95    0.3   38    0     987.4    NA       0.0000   9999     5020  6230  0    
2019/08/25  14:20:00  BASE  2.12856  244  4.93332  135  1.0   96    0.4   37    0     987.3    NA       0.0000   9999     6170  0     0    
2019/08/25  14:21:00  BASE  2.19324  246  4.35708  158  1.0   96    0.4   36    0     987.4    NA       0.0000   9999     6170  0     0    
2019/08/25  14:22:00  BASE  2.59308  248  3.59856  166  1.0   96    0.4   36    0     987.3    NA       0.0000   9999     5810  0     0    
2019/08/25  14:23:00  BASE  3.08112  241  3.75144  248  1.0   96    0.4   36    0     987.3    NA       0.0000   9999     5810  0     0    
2019/08/25  14:24:00  BASE  2.78124  227  3.75144  248  1.0   96    0.4   36    0     987.3    NA       0.0000   9999     6000  0     0    
2019/08/25  14:25:00  BASE  2.499    206  3.75144  248  1.0   96    0.4   36    0     987.3    NA       0.0000   9999     5770  0     0    
2019/08/25  14:26:00  BASE  2.49312  189  3.75144  248  1.0   96    0.5   37    0     987.4    NA       0.0000   9999     4760  5970  0    
2019/08/25  14:27:00  BASE  2.54016  181  3.75144  248  1.0   96    0.4   37    0     987.4    NA       0.0000   9999     4720  0     0    
2019/08/25  14:28:00  BASE  2.68716  173  3.75144  248  0.9   96    0.4   38    0     987.3    NA       0.0000   9999     4200  0     0    
2019/08/25  14:29:00  BASE  2.42256  167  3.75144  248  0.9   96    0.3   36    0     987.4    NA       0.0000   9999     4760  0     0    
2019/08/25  14:30:00  BASE  2.1168   162  3.75144  248  0.8   96    0.3   34    0     987.4    NA       0.0000   9999     4300  4720  0    
2019/08/25  14:31:00  BASE  2.7048   158  3.78084  153  0.7   97    0.2   34    0     987.4    NA       0.0000   9999     4720  0     0    
2019/08/25  14:32:00  BASE  3.65736  160  4.47468  166  0.7   97    0.3   34    0     987.4    NA       0.0000   9999     4230  0     0    
2019/08/25  14:33:00  BASE  4.24536  167  4.65696  163  0.7   98    0.4   34    0     987.3    NA       0.0000   9999     4230  0     0    
2019/08/25  14:34:00  BASE  4.31004  166  4.65696  163  0.8   98    0.5   35    0     987.3    NA       0.0000   9999     4070  4690  0    
2019/08/25  14:35:00  BASE  4.26888  169  4.65696  163  0.8   98    0.5   34    0     987.3    NA       0.0000   9999     4170  0     0    
2019/08/25  14:36:01  BASE  4.44528  184  5.08032  191  0.8   98    0.6   34    0     987.1    NA       0.0000   9999     4560  0     0    
2019/08/25  14:37:00  BASE  4.05132  190  5.08032  191  0.8   98    0.5   33    0     987.2    NA       0.0000   9999     4200  0     0    
2019/08/25  14:38:01  BASE  3.18108  185  5.08032  191  0.7   98    0.4   33    0     987.2    NA       0.0000   9999     3970  4630  0    
2019/08/25  14:39:00  BASE  3.12816  171  5.08032  191  0.6   97    0.2   32    0     987.3    NA       0.0000   9999     3970  0     0    
2019/08/25  14:40:00  BASE  3.84552  159  5.08032  191  0.5   98    0.2   32    0     987.3    NA       0.0000   9999     4000  0     0    
2019/08/25  14:41:00  BASE  4.25124  157  5.08032  191  0.5   98    0.3   32    0     987.3    NA       0.0000   9999     3970  0     0    
2019/08/25  14:42:01  BASE  4.0572   168  5.08032  191  0.6   99    0.5   33    0     987.3    NA       0.0000   9999     3900  0     0    
2019/08/25  14:43:00  BASE  3.04584  166  5.08032  191  0.7   100   0.7   34    0     987.4    NA       0.0000   9999     3900  0     0    
2019/08/25  14:44:00  BASE  2.02272  159  5.08032  191  0.8   100   0.8   34    0     987.4    NA       0.0000   9999     3900  0     0    
2019/08/25  14:45:00  BASE  1.64052  176  5.08032  191  0.9   99    0.9   35    0     987.3    NA       0.0000   9999     3900  0     0    
2019/08/25  14:46:00  BASE  0.90552  74   4.68636  157  0.9   99    0.8   35    0     987.4    NA       0.0000   9999     3900  0     0    
2019/08/25  14:47:00  BASE  0.68796  49   4.68636  157  0.9   99    0.8   35    0     987.4    NA       0.0000   9999     3940  0     0    
2019/08/25  14:48:01  BASE  1.08192  56   4.68636  157  0.9   98    0.7   35    0     987.4    NA       0.0000   9999     3940  0     0    
2019/08/25  14:49:00  BASE  1.18188  40   4.68636  157  0.9   98    0.6   36    0     987.4    NA       0.0000   9999     3900  0     0    
2019/08/25  14:50:00  BASE  0.98196  17   4.59816  147  0.9   98    0.7   35    0     987.4    NA       0.0000   9999     4170  0     0    
2019/08/25  14:51:01  BASE  0.67032  328  4.1748   177  1.0   98    0.7   35    0     987.3    NA       0.0000   9999     4300  5610  0    
2019/08/25  14:52:01  BASE  0.67032  281  3.1458   179  1.1   97    0.8   35    0     987.3    NA       0.0000   9999     4300  5610  0    
2019/08/25  14:53:00  BASE  0.46452  250  2.63424  191  1.2   97    0.8   35    0     987.3    NA       0.0000   9999     5580  0     0    
2019/08/25  14:54:00  BASE  0.3822   209  2.63424  191  1.2   96    0.7   36    0     987.4    NA       0.0000   9999     5610  0     0    
2019/08/25  14:55:00  BASE  1.22304  175  2.21088  168  1.2   96    0.6   37    0     987.4    NA       0.0000   9999     5610  0     0    
2019/08/25  14:56:01  BASE  2.0286   167  2.42256  166  1.2   95    0.5   38    0     987.3    NA       0.0000   9999     5580  0     0    
2019/08/25  14:57:00  BASE  1.92276  163  2.42256  166  1.1   95    0.4   39    0     987.4    NA       0.0000   9999     5480  0     0    
2019/08/25  14:58:00  BASE  1.66404  132  2.42256  166  1.0   95    0.3   39    0     987.4    NA       0.0000   9999     5450  0     0    
2019/08/25  14:59:00  BASE  1.9698   86   2.48136  77   1.0   95    0.3   40    0     987.4    NA       0.0000   9999     5480  0     0    
2019/08/25  15:00:00  BASE  1.84044  76   2.48136  77   1.0   95    0.4   41    0     987.5    NA       0.0000   9999     5350  0     0    
2019/08/25  15:01:00  BASE  1.55232  108  2.48136  77   1.1   96    0.4   42    0     987.4    NA       0.0000   9999     5350  0     0    
2019/08/25  15:02:00  BASE  2.09916  146  2.75184  155  1.2   96    0.6   43    0     987.3    NA       0.0000   9999     5380  0     0    
2019/08/25  15:03:00  BASE  2.52252  163  2.87532  159  1.3   96    0.6   44    0     987.3    NA       0.0000   9999     5380  0     0    
2019/08/25  15:04:00  BASE  2.48724  176  2.87532  159  1.3   95    0.6   45    0     987.3    NA       0.0000   9999     5380  0     0    
2019/08/25  15:05:00  BASE  2.22264  178  2.87532  159  1.3   95    0.5   45    0     987.4    NA       0.0000   9999     4820  5410  0    
2019/08/25  15:06:00  BASE  1.5582   140  2.87532  159  1.2   94    0.4   46    0     987.6    NA       0.0000   9999     4230  0     0    
2019/08/25  15:07:00  BASE  1.21716  97   2.87532  159  1.1   94    0.3   47    0     987.6    NA       0.0000   9999     4330  0     0    
2019/08/25  15:08:00  BASE  0.74088  66   2.87532  159  1.1   95    0.3   49    0     987.6    NA       0.0000   9999     3810  0     0    
2019/08/25  15:09:00  BASE  0.12936  5    2.87532  159  1.1   95    0.3   50    0     987.5    NA       0.0000   9999     3900  0     0    
2019/08/25  15:10:00  BASE  0        308  2.87532  159  1.1   96    0.5   51    0     987.4    NA       0.0000   9999     4070  0     0    
2019/08/25  15:11:00  BASE  0        287  2.87532  159  1.2   96    0.6   53    0     987.4    NA       0.0000   9999     4170  0     0    
2019/08/25  15:12:00  BASE  0        287  2.87532  159  1.3   95    0.7   54    0     987.4    NA       0.0000   9999     4130  0     0    
2019/08/25  15:13:00  BASE  0.36456  322  2.69304  191  1.4   95    0.7   54    0     987.5    NA       0.0000   9999     4360  0     0    
2019/08/25  15:14:01  BASE  0.44688  22   2.38728  185  1.4   94    0.6   53    0     987.5    NA       0.0000   9999     4430  5320  0    
2019/08/25  15:15:00  BASE  0.61152  106  1.45236  91   1.5   94    0.5   54    0     987.4    NA       0.0000   9999     5250  0     0    
2019/08/25  15:16:00  BASE  1.08192  151  1.48176  187  1.5   93    0.5   55    0     987.4    NA       0.0000   9999     5250  0     0    
2019/08/25  15:17:00  BASE  1.35828  167  1.87572  159  1.5   93    0.5   58    0     987.4    NA       0.0000   9999     5250  0     0    
2019/08/25  15:18:00  BASE  1.8522   165  2.24028  167  1.5   93    0.4   63    0     987.4    NA       0.0000   9999     5250  0     0    
2019/08/25  15:19:00  BASE  1.76988  162  2.24028  167  1.4   93    0.4   65    0     987.4    NA       0.0000   9999     5220  0     0    
2019/08/25  15:20:00  BASE  1.31124  154  2.24028  167  1.4   93    0.3   72    0     987.4    NA       0.0000   9999     5150  0     0    
2019/08/25  15:21:00  BASE  1.24656  162  2.24028  167  1.4   93    0.3   80    0     987.4    NA       0.0000   9999     5120  0     0    
2019/08/25  15:22:00  BASE  1.22892  183  2.24028  167  1.4   93    0.4   85    0     987.4    NA       0.0000   9999     5180  0     0    
2019/08/25  15:23:00  BASE  0.89964  194  2.24028  167  1.5   93    0.5   81    0     987.4    NA       0.0000   9999     5150  0     0    
2019/08/25  15:24:00  BASE  0.33516  200  2.24028  167  1.7   93    0.6   75    0     987.4    NA       0.0000   9999     4990  0     0    
2019/08/25  15:25:00  BASE  0        187  2.24028  167  1.9   92    0.7   83    0     987.4    NA       0.0000   9999     5050  0     0    
2019/08/25  15:26:00  BASE  0.10584  139  2.24028  167  2.0   91    0.6   83    0     987.4    NA       0.0000   9999     5020  0     0    
2019/08/25  15:27:00  BASE  0.77028  128  2.24028  167  2.0   90    0.5   80    0     987.4    NA       0.0000   9999     4950  0     0    
2019/08/25  15:28:00  BASE  1.34064  143  1.81692  165  2.0   89    0.3   81    0     987.4    NA       0.0000   9999     4890  0     0    
2019/08/25  15:29:00  BASE  1.6464   133  3.32808  113  2.0   88    0.2   85    0     987.3    NA       0.0000   9999     4890  0     0    
2019/08/25  15:30:00  BASE  1.92276  112  3.32808  113  2.0   88    0.3   99    0     987.3    NA       0.0000   9999     4890  0     0    
2019/08/25  15:31:00  BASE  1.90512  101  3.32808  113  2.0   88    0.2   107   0     987.3    NA       0.0000   9999     5050  0     0    
2019/08/25  15:32:00  BASE  2.058    85   3.41628  39   2.0   89    0.3   105   0     987.3    NA       0.0000   9999     5250  0     0    
2019/08/25  15:33:00  BASE  2.646    83   5.74476  73   2.1   89    0.4   108   0     987.2    NA       0.0000   9999     5410  0     0    
2019/08/25  15:34:00  BASE  4.22772  85   6.80316  76   2.2   89    0.5   116   0     987.1    NA       0.0000   9999     5840  0     0    
2019/08/25  15:35:00  BASE  5.08032  81   6.80316  76   2.3   88    0.6   122   0     987.2    NA       0.0000   9999     5810  0     0    
2019/08/25  15:36:00  BASE  4.92744  86   6.80316  76   2.5   88    0.7   124   0     987.2    NA       0.0000   9999     6000  0     0    
2019/08/25  15:37:00  BASE  4.92744  82   7.71456  57   2.7   87    0.8   125   0     987.2    NA       0.0000   9999     6070  0     0    
2019/08/25  15:38:00  BASE  6.56796  65   10.4076  58   2.9   86    0.8   125   0     987.0    NA       0.0000   9999     6140  0     0    
2019/08/25  15:39:00  BASE  9.04344  55   10.7075  49   3.1   86    0.9   128   0     986.9    NA       0.0000   9999     6170  0     0    
2019/08/25  15:40:00  BASE  9.59616  57   12.0364  51   3.3   84    0.9   134   0     986.9    NA       0.0000   9999     6500  0     0    
2019/08/25  15:41:00  BASE  9.16104  60   12.0364  51   3.4   83    0.8   139   0     986.9    NA       0.0000   9999     6660  0     0    
2019/08/25  15:42:01  BASE  8.72004  64   12.0364  51   3.6   82    0.8   151   0     986.9    NA       0.0000   9999     6730  0     0    
2019/08/25  15:43:01  BASE  8.06736  69   12.0364  51   3.8   81    0.7   163   0     987.0    NA       0.0000   9999     6400  0     0    
2019/08/25  15:44:01  BASE  8.13792  62   12.0364  51   3.9   79    0.6   172   0     987.0    NA       0.0000   9999     6170  0     0    
2019/08/25  15:45:01  BASE  8.63184  52   12.0364  51   3.9   78    0.4   172   0     987.0    NA       0.0000   9999     6040  22870 0    
2019/08/25  15:46:01  BASE  9.29628  48   12.0364  51   4.0   77    0.3   173   0     987.0    NA       0.0000   9999     5580  0     0    
2019/08/25  15:47:01  BASE  9.23748  48   12.0364  51   4.0   76    0.2   180   0     987.0    NA       0.0000   9999     6460  0     0    
2019/08/25  15:48:01  BASE  8.8788   46   12.0364  51   4.0   76    0.1   192   0     987.0    NA       0.0000   9999     5320  6960  0    
2019/08/25  15:49:01  BASE  9.2022   49   12.0364  51   4.0   75    0.1   200   0     987.0    NA       0.0000   9999     5350  0     0    
2019/08/25  15:50:01  BASE  9.40212  52   11.3131  50   4.0   75    0.0   205   0     986.9    NA       0.0000   9999     5280  0     0    
2019/08/25  15:51:01  BASE  9.4668   54   11.3131  50   4.0   75    0.0   212   0     987.0    NA       0.0000   9999     5250  0     0    
2019/08/25  15:52:01  BASE  8.89644  55   11.3131  50   4.0   75    0.0   216   0     987.0    NA       0.0000   9999     5180  0     0    
2019/08/25  15:53:01  BASE  8.93172  55   11.3131  50   4.1   75    0.0   219   0     987.0    NA       0.0000   9999     5150  0     0    
2019/08/25  15:54:01  BASE  8.9082   55   11.3131  50   4.1   75    0.0   223   0     987.0    NA       0.0000   9999     5120  0     0    
2019/08/25  15:55:01  BASE  8.39076  56   11.3131  50   4.1   75    0.0   223   0     987.0    NA       0.0000   9999     4990  0     0    
2019/08/25  15:56:01  BASE  9.13164  59   11.6777  68   4.1   75    0.1   223   0     986.9    NA       0.0000   9999     4950  0     0    
2019/08/25  15:57:01  BASE  9.7608   61   11.6777  68   4.1   75    0.1   219   0     986.8    NA       0.0000   9999     4990  8630  23360
2019/08/25  15:58:01  BASE  9.39624  63   11.6777  68   4.0   76    0.1   217   0     986.9    NA       0.0000   9999     8530  0     0    
2019/08/25  15:59:01  BASE  9.24924  71   11.6777  68   4.0   76    0.2   219   0     986.9    NA       0.0000   9999     8560  0     0    
2019/08/25  16:00:01  BASE  8.93172  75   11.6777  68   4.1   76    0.2   234   0     986.9    NA       0.0000   9999     8660  0     0    
2019/08/25  16:01:01  BASE  7.60872  80   11.6777  68   4.1   76    0.2   235   0     987.0    NA       0.0000   9999     8790  0     0    
2019/08/25  16:02:01  BASE  7.21476  81   11.6777  68   4.1   76    0.2   234   0     987.0    NA       0.0000   9999     8830  0     0    
2019/08/25  16:03:01  BASE  7.72044  80   11.6777  68   4.1   76    0.2   227   0     987.0    NA       0.0000   9999     9120  0     0    
2019/08/25  16:04:01  BASE  7.15008  88   11.6777  68   4.1   75    0.1   224   0     987.0    NA       0.0000   9999     7870  9380  0    
2019/08/25  16:05:01  BASE  6.45036  92   11.6777  68   4.0   75    0.0   222   0     987.0    NA       0.0000   9999     7780  0     0    
2019/08/25  16:06:01  BASE  6.6444   86   10.8604  67   3.9   75    -0.0  222   0     987.0    NA       0.0000   9999     8890  0     0    
2019/08/25  16:07:01  BASE  6.87372  78   10.8604  67   3.9   76    -0.1  226   0     986.9    NA       0.0000   9999     7610  8920  0    
2019/08/25  16:08:01  BASE  7.41468  74   10.5546  63   3.9   76    -0.0  228   0     986.8    NA       0.0000   9999     7610  9020  0    
2019/08/25  16:09:01  BASE  8.45544  69   9.91956  71   3.9   76    -0.0  229   0     986.7    NA       0.0000   9999     7610  0     0    
2019/08/25  16:10:01  BASE  8.94936  71   10.831   65   3.9   76    0.0   223   0     986.7    NA       0.0000   9999     7550  24380 0    
2019/08/25  16:11:01  BASE  8.9964   84   10.831   65   4.0   76    0.1   218   0     986.7    NA       0.0000   9999     7380  0     0    
2019/08/25  16:12:01  BASE  6.97956  97   10.831   65   3.9   75    -0.1  231   0     986.8    NA       0.0000   9999     7090  0     0    
2019/08/25  16:13:01  BASE  4.71576  108  10.831   65   3.7   75    -0.3  241   0     986.8    NA       0.0000   9999     7120  0     0    
2019/08/25  16:14:01  BASE  4.39236  113  10.831   65   3.5   76    -0.4  246   0     986.8    NA       0.0000   9999     7050  0     0    
2019/08/25  16:15:01  BASE  4.98624  117  10.831   65   3.2   77    -0.5  243   0     986.7    NA       0.0000   9999     6960  0     0    
2019/08/25  16:16:01  BASE  5.32728  115  10.831   65   2.9   78    -0.6  235   0     986.7    NA       0.0000   9999     6990  21330 0    
2019/08/25  16:17:01  BASE  5.1744   113  10.831   65   2.7   79    -0.5  230   0     986.7    NA       0.0000   9999     6920  7680  0    
2019/08/25  16:18:01  BASE  4.91568  115  10.831   65   2.5   81    -0.5  215   0     986.7    NA       0.0000   9999     6760  0     0    
2019/08/25  16:19:01  BASE  4.83924  113  10.831   65   2.4   82    -0.4  213   0     986.7    NA       0.0000   9999     6760  7120  0    
2019/08/25  16:20:01  BASE  5.13324  110  9.70788  80   2.4   82    -0.3  211   0     986.6    NA       0.0000   9999     6690  7350  0    
2019/08/25  16:21:01  BASE  5.32728  110  6.62676  92   2.3   83    -0.3  206   0     986.6    NA       0.0000   9999     7510  0     0    
2019/08/25  16:22:01  BASE  4.83336  108  6.56208  105  2.2   84    -0.2  203   0     986.6    NA       0.0000   9999     7580  0     0    
2019/08/25  16:23:01  BASE  3.85728  112  6.56208  105  2.2   85    -0.1  205   0     986.5    NA       0.0000   9999     7680  0     0    
2019/08/25  16:24:01  BASE  3.73968  115  6.56208  105  2.2   85    0.0   213   0     986.5    NA       0.0000   9999     7780  0     0    
2019/08/25  16:25:01  BASE  3.98664  115  6.56208  105  2.2   86    0.1   214   0     986.5    NA       0.0000   9999     0     0     0    
2019/08/25  16:26:01  BASE  4.15128  104  6.2916   80   2.2   86    0.1   226   0     986.5    NA       0.0000   9999     0     0     0    
2019/08/25  16:27:01  BASE  5.51544  90   9.4374   71   2.4   86    0.3   235   0     986.4    NA       0.0000   9999     0     0     0    
2019/08/25  16:28:01  BASE  5.07444  100  9.4374   71   2.5   86    0.4   226   0     986.5    NA       0.0000   9999     7320  0     0    
2019/08/25  16:29:01  BASE  4.30416  111  9.4374   71   2.6   86    0.5   230   0     986.4    NA       0.0000   9999     7220  0     0    
2019/08/25  16:30:01  BASE  4.36884  104  9.4374   71   2.8   86    0.6   232   0     986.6    NA       0.0000   9999     8400  0     0    
2019/08/25  16:31:01  BASE  3.53976  85   9.4374   71   2.9   86    0.8   244   0     986.6    NA       0.0000   9999     7190  8140  0    
2019/08/25  16:32:01  BASE  4.39236  57   9.4374   71   3.0   85    0.8   256   0     986.6    NA       0.0000   9999     7710  0     0    
2019/08/25  16:33:01  BASE  5.95056  29   10.3782  32   3.2   84    0.8   264   0     986.5    NA       0.0000   9999     6330  7580  23030
2019/08/25  16:34:01  BASE  5.88     18   10.3782  32   3.5   83    0.8   266   0     986.6    NA       0.0000   9999     6330  0     0    
2019/08/25  16:35:01  BASE  4.06896  11   10.3782  32   3.7   81    0.7   260   0     986.6    NA       0.0000   9999     6370  0     0    
2019/08/25  16:36:01  BASE  2.87532  28   10.3782  32   3.8   79    0.5   252   0     986.6    NA       0.0000   9999     7380  0     0    
2019/08/25  16:37:01  BASE  2.8518   59   10.3782  32   3.8   78    0.3   234   0     986.6    NA       0.0000   9999     7320  0     0    
2019/08/25  16:38:01  BASE  3.56916  60   10.3782  32   3.8   78    0.2   247   0     986.6    NA       0.0000   9999     7250  0     0    
2019/08/25  16:39:01  BASE  4.93332  57   10.3782  32   3.8   77    0.1   254   0     986.6    NA       0.0000   9999     7350  0     0    
2019/08/25  16:40:01  BASE  5.01564  61   10.3782  32   3.8   77    0.2   274   0     986.6    NA       0.0000   9999     7250  0     0    
2019/08/25  16:41:01  BASE  5.4684   61   10.3782  32   3.9   77    0.2   291   0     986.6    NA       0.0000   9999     6790  0     0    
2019/08/25  16:42:01  BASE  5.9682   65   10.3782  32   4.0   76    0.2   294   0     986.6    NA       0.0000   9999     6920  0     0    
2019/08/25  16:43:01  BASE  5.9094   106  8.25552  26   4.0   76    0.1   299   0     986.6    NA       0.0000   9999     6920  0     0    
2019/08/25  16:44:01  BASE  5.12736  141  7.50288  130  3.8   75    -0.2  300   0     986.7    NA       0.0000   9999     6860  22020 0    
2019/08/25  16:45:01  BASE  3.08112  145  7.50288  130  3.5   76    -0.4  306   0     986.7    NA       0.0000   9999     6330  0     0    
2019/08/25  16:46:01  BASE  2.52252  149  7.50288  130  3.2   77    -0.5  325   0     986.6    NA       0.0000   9999     6270  0     0    
2019/08/25  16:47:01  BASE  3.48684  144  7.50288  130  2.8   78    -0.6  337   0     986.6    NA       0.0000   9999     6230  0     0    
2019/08/25  16:48:01  BASE  4.51584  147  7.50288  130  2.6   80    -0.6  347   0     986.6    NA       0.0000   9999     6170  0     0    
2019/08/25  16:49:01  BASE  3.234    171  7.50288  130  2.5   81    -0.4  364   0     986.6    NA       0.0000   9999     6230  22280 0    
2019/08/25  16:50:01  BASE  2.15208  198  7.50288  130  2.5   82    -0.2  377   0     986.5    NA       0.0000   9999     6200  0     0    
2019/08/25  16:51:01  BASE  2.7636   167  7.50288  130  2.6   83    -0.0  382   0     986.6    NA       0.0000   9999     6230  0     0    
2019/08/25  16:52:01  BASE  2.98704  135  7.50288  130  2.7   83    0.1   380   0     986.6    NA       0.0000   9999     6270  0     0    
2019/08/25  16:53:01  BASE  2.96352  103  5.2038   143  2.8   83    0.2   360   0     986.6    NA       0.0000   9999     6200  0     0    
2019/08/25  16:54:01  BASE  2.77536  105  5.145    159  2.9   83    0.3   371   0     986.6    NA       0.0000   9999     6200  0     0    
2019/08/25  16:55:01  BASE  2.57544  121  5.145    159  3.0   82    0.2   320   0     986.6    NA       0.0000   9999     6170  0     0    
2019/08/25  16:56:01  BASE  2.36376  123  5.145    159  3.1   81    0.3   348   0     986.6    NA       0.0000   9999     6170  0     0    
2019/08/25  16:57:01  BASE  2.41668  142  5.145    159  3.2   81    0.2   326   0     986.6    NA       0.0000   9999     6070  0     0    
2019/08/25  16:58:01  BASE  2.88708  135  4.53936  98   3.1   80    0.0   322   0     986.6    NA       0.0000   9999     6040  0     0    
2019/08/25  16:59:01  BASE  3.01056  128  4.53936  98   3.0   80    -0.0  325   0     986.6    NA       0.0000   9999     5970  0     0    
2019/08/25  17:00:01  BASE  2.95764  130  4.53936  98   3.0   81    0.0   321   0     986.6    NA       0.0000   9999     5910  0     0    
2019/08/25  17:01:01  BASE  3.26928  130  4.53936  98   3.0   81    -0.1  311   0     986.5    NA       0.0000   9999     5870  0     0    
2019/08/25  17:02:01  BASE  3.25164  135  4.50996  142  2.9   81    -0.0  302   0     986.4    NA       0.0000   9999     5940  0     0    
2019/08/25  17:03:01  BASE  3.86904  131  5.2626   131  3.0   81    0.0   296   0     986.4    NA       0.0000   9999     6230  0     0    
2019/08/25  17:04:01  BASE  4.91568  137  6.07992  143  2.9   81    0.0   319   0     986.3    NA       0.0000   9999     6170  0     0    
2019/08/25  17:05:01  BASE  4.30416  142  6.07992  143  2.9   81    -0.0  311   0     986.4    NA       0.0000   9999     6100  0     0    
2019/08/25  17:06:01  BASE  3.9396   125  6.07992  143  2.8   81    -0.0  292   0     986.5    NA       0.0000   9999     6140  0     0    
2019/08/25  17:07:01  BASE  4.87452  125  6.07992  143  2.8   82    -0.0  278   0     986.5    NA       0.0000   9999     6040  0     0    
2019/08/25  17:08:01  BASE  4.3512   139  6.07992  143  2.8   82    -0.0  262   0     986.5    NA       0.0000   9999     6170  0     0    
2019/08/25  17:09:00  BASE  3.29868  120  6.07992  143  2.8   82    0.0   235   0     986.6    NA       0.0000   9999     6000  0     0    
2019/08/25  17:10:00  BASE  3.89844  112  6.07992  143  2.7   82    0.0   220   0     986.6    NA       0.0000   9999     5640  6100  0    
2019/08/25  17:11:01  BASE  4.31004  129  6.07992  143  2.7   82    0.0   218   0     986.6    NA       0.0000   9999     6000  0     0    
2019/08/25  17:12:01  BASE  4.13952  133  6.07992  143  2.7   83    0.0   255   0     986.5    NA       0.0000   9999     5770  0     0    
2019/08/25  17:13:00  BASE  3.78672  123  6.07992  143  2.8   83    0.2   302   0     986.6    NA       0.0000   9999     5540  0     0    
2019/08/25  17:14:01  BASE  3.2928   122  5.80944  135  2.9   82    0.2   285   0     986.6    NA       0.0000   9999     5450  5970  0    
2019/08/25  17:15:00  BASE  3.72204  130  5.80944  135  3.0   82    0.2   301   0     986.5    NA       0.0000   9999     5120  0     0    
2019/08/25  17:16:00  BASE  4.22184  130  5.80944  135  3.0   82    0.2   285   0     986.5    NA       0.0000   9999     4950  0     0    
2019/08/25  17:17:00  BASE  4.01016  126  5.74476  122  3.1   81    0.1   259   0     986.5    NA       0.0000   9999     5150  0     0    
2019/08/25  17:18:00  BASE  3.675    120  5.74476  122  3.0   81    0.0   281   0     986.6    NA       0.0000   9999     5250  0     0    
2019/08/25  17:19:01  BASE  3.89844  110  5.74476  122  3.0   81    0.1   268   0     986.5    NA       0.0000   9999     4920  0     0    
2019/08/25  17:20:00  BASE  4.30416  109  5.74476  122  3.1   81    0.1   276   0     986.5    NA       0.0000   9999     5480  0     0    
2019/08/25  17:21:00  BASE  4.49232  109  5.74476  122  3.2   81    0.2   260   0     986.5    NA       0.0000   9999     5810  0     0    
2019/08/25  17:22:00  BASE  4.36296  106  5.56836  98   3.3   80    0.2   212   0     986.5    NA       0.0000   9999     5910  0     0    
2019/08/25  17:23:00  BASE  3.75732  109  5.56836  98   3.4   80    0.2   199   0     986.5    NA       0.0000   9999     5970  0     0    
2019/08/25  17:24:01  BASE  3.81612  106  6.44448  88   3.5   80    0.3   185   0     986.5    NA       0.0000   9999     6170  0     0    
2019/08/25  17:25:00  BASE  4.557    101  6.44448  88   3.5   79    0.3   179   0     986.5    NA       0.0000   9000     5540  6330  0    
2019/08/25  17:26:01  BASE  4.15716  109  6.44448  88   3.5   79    0.2   172   0     986.6    NA       0.0000   9999     5410  21820 0    
2019/08/25  17:27:00  BASE  3.31632  116  6.44448  88   3.5   79    0.1   163   0     986.6    NA       0.0000   9999     5640  0     0    
2019/08/25  17:28:01  BASE  2.96352  117  6.44448  88   3.4   79    0.0   157   0     986.6    NA       0.0000   9999     5870  0     0    
2019/08/25  17:29:00  BASE  2.25204  125  6.44448  88   3.2   79    -0.1  154   0     986.6    NA       0.0000   9999     5840  0     0    
2019/08/25  17:30:00  BASE  1.27008  128  6.44448  88   3.1   79    -0.1  152   0     986.6    NA       0.0000   9999     5940  0     0    
2019/08/25  17:31:01  BASE  0.6468   121  6.44448  88   3.0   80    -0.1  150   0     986.6    NA       0.0000   9999     6000  0     0    
2019/08/25  17:32:01  BASE  1.4406   63   6.44448  88   3.0   81    0.1   150   0     986.6    NA       0.0000   9999     5910  0     0    
2019/08/25  17:33:00  BASE  1.68168  20   6.44448  88   3.1   82    0.2   150   0     986.6    NA       0.0000   9999     5740  0     0    
2019/08/25  17:34:01  BASE  1.25244  2    6.02112  98   3.2   82    0.4   149   0     986.6    NA       0.0000   9999     5580  0     0    
2019/08/25  17:35:00  BASE  2.25792  346  4.2042   128  3.2   82    0.5   149   0     986.6    NA       0.0000   9999     5610  0     0    
2019/08/25  17:36:01  BASE  3.46332  349  4.35708  342  3.4   83    0.7   145   0     986.6    NA       0.0000   9999     5510  0     0    
2019/08/25  17:37:00  BASE  3.80436  354  4.35708  342  3.5   83    0.9   140   0     986.6    NA       0.0000   9999     5540  0     0    
2019/08/25  17:38:01  BASE  2.7048   325  4.35708  342  3.6   83    1.0   134   0     986.6    NA       0.0000   9999     5510  0     0    
2019/08/25  17:39:00  BASE  0.99372  278  4.35708  342  3.7   82    0.9   127   0     986.5    NA       0.0000   9999     5710  0     0    
2019/08/25  17:40:00  BASE  0.40572  263  4.35708  342  3.7   82    0.9   120   0     986.5    NA       0.0000   9999     5640  0     0    
2019/08/25  17:41:00  BASE  0.75852  306  4.35708  342  3.6   82    0.8   113   0     986.6    NA       0.0000   9999     5680  0     0    
2019/08/25  17:42:01  BASE  1.44648  7    4.35708  342  3.5   82    0.7   108   0     986.6    NA       0.0000   9999     5580  0     0    
2019/08/25  17:43:00  BASE  2.499    31   5.2626   31   3.4   82    0.7   104   0     986.6    NA       0.0000   9999     5680  0     0    
2019/08/25  17:44:00  BASE  3.56328  39   5.59776  16   3.4   83    0.9   102   0     986.5    NA       0.0000   9999     5710  0     0    
2019/08/25  17:45:00  BASE  4.83924  42   7.13832  36   3.5   84    1.1   100   0     986.6    NA       0.0000   9999     5610  0     0    
2019/08/25  17:46:00  BASE  5.9976   38   7.3206   34   3.6   84    1.2   98    0     986.5    NA       0.0000   -RA      9999  5540  0    
2019/08/25  17:47:00  BASE  5.97408  40   7.3206   34   3.7   85    1.4   96    0     986.5    NA       0.0000   -RA      9999  5540  0    
2019/08/25  17:48:00  BASE  5.80356  37   7.3206   34   3.8   85    1.5   93    0     986.5    NA       0.0000   -RA      9999  5540  0    
2019/08/25  17:49:00  BASE  6.32688  35   7.65576  24   3.8   85    1.6   90    0     986.5    NA       0.0000   -RA      9999  5510  0    
2019/08/25  17:50:00  BASE  5.7624   39   7.65576  24   3.8   86    1.6   88    0     986.6    NA       0.0000   -RA      9999  5510  0    
2019/08/25  17:51:01  BASE  4.48056  44   7.65576  24   3.8   86    1.7   87    0     986.6    NA       0.0000   -RA      9999  5480  0    
2019/08/25  17:52:01  BASE  3.60444  52   7.65576  24   3.8   86    1.7   86    0     986.6    NA       0.0000   -RA      BR    9999  5510 
2019/08/25  17:53:00  BASE  3.33396  62   7.65576  24   3.8   87    1.8   85    0     986.6    NA       0.0000   -RA      BR    9999  5510 
2019/08/25  17:54:00  BASE  3.83964  73   7.65576  24   3.8   87    1.8   84    0     986.6    NA       0.0000   -RA      BR    9999  5540 
2019/08/25  17:55:00  BASE  3.81612  90   7.65576  24   3.8   88    1.9   84    0     986.6    NA       0.0000   -RA      BR    9999  5540 
2019/08/25  17:56:01  BASE  2.92824  87   7.65576  24   3.7   88    1.9   83    0     986.6    NA       0.0000   -RA      9999  5410  0    
2019/08/25  17:57:00  BASE  2.98704  54   7.65576  24   3.7   88    1.9   82    0     986.6    NA       0.0000   -RA      9999  5320  0    
2019/08/25  17:58:00  BASE  2.93412  23   7.65576  24   3.7   88    1.9   81    0     986.7    NA       0.0000   -RA      9999  5280  0    
2019/08/25  17:59:00  BASE  2.22852  15   6.53268  43   3.7   88    1.8   80    0     986.7    NA       0.0000   -RA      9999  5450  0    
2019/08/25  18:00:00  BASE  1.21716  23   5.3214   41   3.6   88    1.8   79    0     986.7    NA       0.0000   -RA      9999  5480  0    
2019/08/25  18:01:00  BASE  0.147    18   5.3214   41   3.7   88    1.9   78    0     986.7    NA       0.0000   -RA      9999  5510  0    
2019/08/25  18:02:00  BASE  0.03528  331  5.3214   41   3.7   89    2.0   77    0     986.7    NA       0.0000   -RA      9999  5480  0    
2019/08/25  18:03:00  BASE  0.93492  292  5.3214   41   3.6   89    1.9   76    0     986.8    NA       0.0000   -RA      9999  5480  0    
2019/08/25  18:04:01  BASE  2.16972  277  5.3214   41   3.6   89    1.9   75    0     986.8    NA       0.0000   9999     5480  0     0    
2019/08/25  18:05:00  BASE  3.08112  36   6.10932  354  3.6   89    1.9   74    0     986.8    NA       0.0000   -RA      9999  5350  0    
2019/08/25  18:06:00  BASE  4.36884  12   6.10932  354  3.6   89    1.9   72    0     986.8    NA       0.0000   9999     5250  0     0    
2019/08/25  18:07:00  BASE  5.9094   5    8.10852  3    3.5   89    1.9   69    0     986.7    NA       0.0000   9999     5380  0     0    
2019/08/25  18:08:00  BASE  7.09128  2    8.10852  3    3.5   89    1.9   67    0     986.6    NA       0.0000   9999     5090  0     0    
2019/08/25  18:09:00  BASE  7.98504  5    10.1959  14   3.4   89    1.8   64    0     986.6    NA       0.0000   -RA      9999  5150  0    
2019/08/25  18:10:00  BASE  8.50836  8    10.1959  14   3.3   89    1.7   62    0     986.6    NA       0.0000   -RA      9999  5250  0    
2019/08/25  18:11:00  BASE  8.51424  13   10.1959  14   3.2   89    1.7   59    0     986.6    NA       0.0000   -RA      9999  5250  0    
2019/08/25  18:12:00  BASE  8.232    13   10.1959  14   3.1   90    1.6   56    0     986.6    NA       0.0000   -RA      9999  5220  0    
2019/08/25  18:13:00  BASE  8.1732   17   10.1959  14   3.0   90    1.6   53    0     986.6    NA       0.0000   -RA      9999  5350  0    
2019/08/25  18:14:01  BASE  8.99052  24   11.2249  31   3.0   91    1.6   50    0     986.5    NA       0.0000   -RA      9999  5320  0    
2019/08/25  18:15:00  BASE  9.80196  23   11.2249  31   3.0   91    1.7   47    0     986.4    NA       0.0000   -RA      9999  0     0    
2019/08/25  18:16:00  BASE  9.5844   24   11.2249  31   2.9   92    1.7   43    0     986.4    NA       0.0000   -RA      9999  0     0    
2019/08/25  18:17:00  BASE  9.19044  28   11.2249  31   2.9   92    1.8   40    0     986.4    NA       0.0000   -RA      9999  0     0    
2019/08/25  18:18:01  BASE  10.5781  28   15.3644  28   2.8   93    1.8   38    0     986.2    NA       0.0000   -RA      9000  0     0    
2019/08/25  18:19:00  BASE  12.1481  26   15.3644  28   2.8   94    1.9   35    0     986.1    NA       0.0000   -RA      9999  0     0    
2019/08/25  18:20:00  BASE  12.936   25   15.3644  28   2.8   94    2.0   34    0     986.0    NA       0.0000   -RA      9999  0     0    
2019/08/25  18:21:00  BASE  13.6828  21   15.3644  21   2.8   95    2.1   32    0     986.0    NA       0.0000   -RA      9999  0     0    
2019/08/25  18:22:00  BASE  14.0179  21   16.2758  23   2.8   96    2.2   31    0     986.0    NA       0.0000   -RA      9999  0     0    
2019/08/25  18:23:00  BASE  14.4883  21   16.2758  23   2.8   96    2.2   30    0     985.9    NA       0.0000   -RA      9999  0     0    
2019/08/25  18:24:00  BASE  14.7235  21   16.2758  23   2.8   96    2.2   29    0     985.9    NA       0.0000   -RA      9999  0     0    
2019/08/25  18:25:00  BASE  14.2414  22   16.2758  23   2.8   96    2.2   28    0     985.9    NA       0.0000   -RA      9999  0     0    
2019/08/25  18:26:00  BASE  13.9297  19   16.2758  23   2.8   96    2.2   27    0     985.9    NA       0.0000   -RA      9999  0     0    
2019/08/25  18:27:00  BASE  14.5412  19   16.6698  20   2.7   96    2.2   26    0     985.8    NA       0.0000   -RA      9999  0     0    
2019/08/25  18:28:00  BASE  15.6173  19   18.1222  22   2.7   96    2.2   25    0     985.7    NA       0.0000   -RA      9999  0     0    
2019/08/25  18:29:00  BASE  15.9407  19   18.1222  22   2.6   97    2.2   24    0     985.8    NA       0.0000   -RA      9999  0     0    
2019/08/25  18:30:00  BASE  15.8584  21   18.1222  22   2.6   97    2.1   24    0     985.7    NA       0.0000   -RA      9000  0     0    
2019/08/25  18:31:00  BASE  15.9936  21   18.1222  22   2.6   97    2.2   23    0     985.7    NA       0.0000   -RA      8000  0     0    
2019/08/25  18:32:00  BASE  15.9936  20   18.1222  22   2.5   97    2.2   22    0     985.7    NA       0.0000   -RA      BR    8000  0    
2019/08/25  18:33:00  BASE  16.3464  21   18.1222  22   2.5   98    2.2   21    0     985.7    NA       0.0000   -RA      BR    7000  0    
2019/08/25  18:34:00  BASE  16.6757  21   18.1222  22   2.5   98    2.2   21    0     985.7    NA       0.0000   -RA      BR    8000  0    
2019/08/25  18:35:00  BASE  16.9168  21   18.2398  17   2.5   98    2.2   20    0     985.7    NA       0.0000   -RA      BR    8000  0    
2019/08/25  18:36:00  BASE  16.658   21   18.2398  17   2.5   98    2.3   20    0     985.8    NA       0.0000   -RA      BR    8000  0    
2019/08/25  18:37:00  BASE  16.4993  21   18.2692  23   2.5   99    2.3   19    0     985.8    NA       0.0000   -RA      BR    8000  0    
2019/08/25  18:38:00  BASE  16.6816  22   18.2692  23   2.5   99    2.4   19    0     985.8    NA       0.0000   -RA      BR    8000  0    
2019/08/25  18:39:00  BASE  16.1406  21   18.2692  23   2.5   99    2.4   19    0     985.9    NA       0.0000   -RA      BR    8000  0    
2019/08/25  18:40:00  BASE  15.6643  20   18.2692  23   2.5   99    2.4   18    0     986.0    NA       0.0000   -RA      BR    8000  0    
2019/08/25  18:41:00  BASE  15.7231  24   18.2692  23   2.5   99    2.3   18    0     986.0    NA       0.0000   -RA      BR    9000  0    
2019/08/25  18:42:00  BASE  15.041   24   18.2692  23   2.5   99    2.3   19    0     986.1    NA       0.0000   -RA      BR    9000  0    
2019/08/25  18:43:00  BASE  14.7588  24   18.2692  23   2.5   99    2.3   19    0     986.1    NA       0.0000   -RA      BR    9000  0    
2019/08/25  18:44:00  BASE  15.2292  23   18.2692  23   2.5   99    2.3   20    0     986.0    NA       0.0000   -RA      BR    9000  0    
2019/08/25  18:45:00  BASE  15.2939  21   18.2692  23   2.5   99    2.3   21    0     986.0    NA       0.0000   -RA      BR    9000  0    
2019/08/25  18:46:00  BASE  15.2704  21   18.2692  23   2.5   99    2.4   21    0     986.1    NA       0.0000   -RA      BR    9000  0    
2019/08/25  18:47:00  BASE  13.9532  24   18.2104  22   2.5   100   2.4   22    0     986.2    NA       0.0000   -RA      BR    9000  750  
2019/08/25  18:48:00  BASE  13.2653  27   17.1226  25   2.4   100   2.4   22    0     986.2    NA       0.0000   -RA      BR    9000  4130 
2019/08/25  18:49:00  BASE  13.1536  27   17.1226  25   2.4   100   2.4   23    0     986.2    NA       0.0000   -RA      BR    9000  4300 
2019/08/25  18:50:00  BASE  13.036   27   17.1226  25   2.4   100   2.4   23    0     986.2    NA       0.0000   -RA      BR    9000  4460 
2019/08/25  18:51:00  BASE  13.1183  26   17.0285  27   2.4   100   2.4   23    0     986.3    NA       0.0000   -RA      BR    9000  0    
2019/08/25  18:52:00  BASE  13.424   22   17.0285  27   2.4   100   2.4   23    0     986.2    NA       0.0000   -RA      BR    9000  0    
2019/08/25  18:53:00  BASE  13.624   23   16.8462  18   2.4   100   2.4   23    0     986.3    NA       0.0000   -RA      BR    9000  0    
2019/08/25  18:54:01  BASE  12.6949  24   16.758   23   2.4   100   2.4   24    0     986.3    NA       0.0000   -RA      BR    9999  0    
2019/08/25  18:55:00  BASE  12.7126  23   16.758   23   2.4   100   2.4   24    0     986.2    NA       0.0000   -RA      BR    9999  0    
2019/08/25  18:56:00  BASE  13.6886  23   15.3644  28   2.4   100   2.3   25    0     986.2    NA       0.0000   -RA      BR    9999  0    
2019/08/25  18:57:00  BASE  14.1179  22   15.9113  22   2.4   100   2.4   26    0     986.2    NA       0.0000   -RA      BR    9999  0    
2019/08/25  18:58:00  BASE  13.7298  23   16.6345  26   2.3   100   2.3   26    0     986.2    NA       0.0000   -RA      BR    9999  0    
2019/08/25  18:59:00  BASE  13.6416  23   16.6345  26   2.3   100   2.3   26    0     986.2    NA       0.0000   -RA      BR    9999  0    
2019/08/25  19:00:00  BASE  13.7651  22   16.6345  26   2.3   100   2.3   26    0     986.2    NA       0.0000   -RA      BR    9999  590  
2019/08/25  19:01:00  BASE  13.4534  22   16.6345  26   2.3   100   2.3   26    0     986.2    NA       0.0000   -RA      BR    9999  620  
2019/08/25  19:02:00  BASE  13.277   25   16.6345  26   2.3   100   2.3   26    0     986.2    NA       0.0000   -RA      BR    9999  0    
2019/08/25  19:03:00  BASE  13.624   26   16.6345  26   2.3   99    2.2   26    0     986.1    NA       0.0000   BR       9999  690   0    
2019/08/25  19:04:00  BASE  14.3942  21   16.6345  26   2.3   99    2.2   27    0     986.1    NA       0.0000   BR       9999  620   0    
2019/08/25  19:05:00  BASE  14.3942  20   17.0579  19   2.3   99    2.2   27    0     986.1    NA       0.0000   BR       9999  660   0    
2019/08/25  19:06:00  BASE  13.377   21   17.0579  19   2.3   99    2.2   27    0     986.2    NA       0.0000   BR       9999  4490  0    
2019/08/25  19:07:00  BASE  13.7474  27   17.0579  19   2.3   99    2.2   27    0     986.1    NA       0.0000   BR       9999  0     0    
2019/08/25  19:08:00  BASE  14.0708  31   17.0579  19   2.3   99    2.2   27    0     986.2    NA       0.0000   BR       9999  4360  0    
2019/08/25  19:09:00  BASE  13.8356  30   17.0579  19   2.3   99    2.2   27    0     986.1    NA       0.0000   BR       9999  4270  0    
2019/08/25  19:10:00  BASE  14.2355  27   17.0579  19   2.3   99    2.2   27    0     986.1    NA       0.0000   BR       9999  4270  0    
2019/08/25  19:11:00  BASE  13.918   24   17.0579  19   2.3   99    2.2   28    0     986.2    NA       0.0000   BR       9999  4330  0    
2019/08/25  19:12:00  BASE  14.0885  24   17.0579  19   2.4   99    2.2   27    0     986.1    NA       0.0000   BR       9999  4430  0    
2019/08/25  19:13:00  BASE  13.8709  25   17.0579  19   2.4   98    2.2   27    0     986.1    NA       0.0000   9999     4430  0     0    
2019/08/25  19:14:00  BASE  12.7126  25   17.0579  19   2.4   98    2.1   26    0     986.3    NA       0.0000   9999     4490  0     0    
2019/08/25  19:15:00  BASE  12.7243  28   16.8168  36   2.4   98    2.1   26    0     986.2    NA       0.0000   9999     4430  0     0    
2019/08/25  19:16:00  BASE  14.1943  30   17.6341  28   2.4   97    2.1   25    0     986.0    NA       0.0000   9999     4330  0     0    
2019/08/25  19:17:00  BASE  15.1939  24   17.6341  28   2.4   97    2.0   24    0     986.1    NA       0.0000   9999     4270  0     0    
2019/08/25  19:18:00  BASE  15.0116  20   17.6341  28   2.4   97    1.9   24    0     986.1    NA       0.0000   9999     4200  0     0    
2019/08/25  19:19:00  BASE  15.2645  21   17.6341  28   2.4   97    1.9   24    0     986.0    NA       0.0000   9999     4170  0     0    
2019/08/25  19:20:00  BASE  15.0293  24   17.6341  28   2.4   97    1.9   23    0     986.2    NA       0.0000   9999     4270  0     0    
2019/08/25  19:21:00  BASE  14.3296  25   17.6341  28   2.4   97    1.9   22    0     986.2    NA       0.0000   9999     4200  0     0    
2019/08/25  19:22:00  BASE  14.5883  25   17.6341  28   2.4   97    1.9   22    0     986.2    NA       0.0000   9999     4270  0     0    
2019/08/25  19:23:00  BASE  15.041   24   17.6341  28   2.4   96    1.9   21    0     986.2    NA       0.0000   9999     4790  0     0    
2019/08/25  19:24:00  BASE  14.6     23   17.6341  28   2.4   96    1.9   20    0     986.3    NA       0.0000   9999     4660  0     0    
2019/08/25  19:25:00  BASE  14.6588  23   17.6341  28   2.4   96    1.8   19    0     986.2    NA       0.0000   9999     4790  0     0    
2019/08/25  19:26:00  BASE  14.994   24   17.152   22   2.4   96    1.8   18    0     986.2    NA       0.0000   9999     4100  0     0    
2019/08/25  19:27:00  BASE  15.4526  24   17.152   26   2.4   96    1.9   17    0     986.1    NA       0.0000   9999     0     0     0    
2019/08/25  19:28:00  BASE  15.7349  22   17.152   26   2.4   96    1.8   16    0     986.2    NA       0.0000   9999     0     0     0    
2019/08/25  19:29:00  BASE  15.1704  22   17.152   26   2.5   96    1.8   16    0     986.2    NA       0.0000   9999     0     0     0    
2019/08/25  19:30:00  BASE  15.1351  22   17.152   26   2.5   95    1.8   15    0     986.3    NA       0.0000   9999     0     0     0    
2019/08/25  19:31:00  BASE  15.2116  21   17.152   26   2.5   95    1.8   15    0     986.2    NA       0.0000   UP       9999  0     0    
2019/08/25  19:32:00  BASE  15.1763  22   17.152   26   2.4   95    1.7   15    0     986.3    NA       0.0000   UP       9999  620   0    
2019/08/25  19:33:00  BASE  15.6467  23   17.9105  20   2.4   95    1.7   16    0     986.2    NA       0.0000   UP       9999  0     0    
2019/08/25  19:34:00  BASE  15.2233  23   17.9105  20   2.4   95    1.7   16    0     986.3    NA       0.0000   UP       9999  0     0    
2019/08/25  19:35:00  BASE  14.6177  22   17.9105  20   2.4   96    1.7   16    0     986.3    NA       0.0000   UP       9999  2850  4630 
2019/08/25  19:36:00  BASE  14.5354  21   17.9105  20   2.3   96    1.7   15    0     986.4    NA       0.0000   UP       9999  4660  0    
2019/08/25  19:37:00  BASE  13.6828  21   17.9105  20   2.3   96    1.7   15    0     986.4    NA       0.0000   UP       9999  2620  0    
2019/08/25  19:38:00  BASE  13.1242  20   17.9105  20   2.3   96    1.7   14    0     986.5    NA       0.0000   UP       9999  620   4330 
2019/08/25  19:39:00  BASE  13.624   19   17.9105  20   2.2   96    1.7   14    0     986.5    NA       0.0000   UP       9999  4460  0    
2019/08/25  19:40:00  BASE  13.6298  19   17.9105  20   2.2   96    1.7   14    0     986.6    NA       0.0000   UP       9999  4360  0    
2019/08/25  19:41:00  BASE  12.936   17   17.9105  20   2.2   97    1.7   15    0     986.6    NA       0.0000   UP       9999  3770  0    
2019/08/25  19:42:00  BASE  13.2182  17   17.9105  20   2.2   97    1.8   15    0     986.5    NA       0.0000   UP       9999  2820  4200 
2019/08/25  19:43:00  BASE  13.5358  16   16.6698  24   2.1   98    1.8   15    0     986.5    NA       0.0000   UP       9999  4490  0    
2019/08/25  19:44:00  BASE  12.2304  11   16.3934  22   2.1   98    1.8   15    0     986.6    NA       0.0000   UP       9999  4230  5280 
2019/08/25  19:45:00  BASE  11.3014  10   15.8231  22   2.1   98    1.8   15    0     986.6    NA       0.0000   UP       9999  4430  0    
2019/08/25  19:46:00  BASE  12.2951  7    15.8231  22   2.1   98    1.8   14    0     986.5    NA       0.0000   UP       9999  4070  5410 
2019/08/25  19:47:00  BASE  13.0477  5    15.8231  22   2.0   98    1.7   14    0     986.5    NA       0.0000   UP       9999  5410  0    
2019/08/25  19:48:00  BASE  12.7126  8    15.8231  22   2.0   98    1.7   13    0     986.5    NA       0.0000   UP       9999  4270  5640 
2019/08/25  19:49:00  BASE  13.3594  17   15.7584  21   2.0   98    1.7   13    0     986.4    NA       0.0000   UP       9999  4130  5090 
2019/08/25  19:50:00  BASE  13.377   22   15.7584  21   2.0   98    1.7   13    0     986.5    NA       0.0000   UP       9999  3900  0    
2019/08/25  19:51:00  BASE  13.2712  23   16.0348  24   2.0   98    1.7   12    0     986.4    NA       0.0000   UP       9999  4000  0    
2019/08/25  19:52:00  BASE  14.4354  26   16.0348  24   2.1   98    1.7   12    0     986.4    NA       0.0000   9999     4000  0     0    
2019/08/25  19:53:00  BASE  14.1061  23   16.0348  24   2.1   97    1.7   12    0     986.5    NA       0.0000   9999     3870  0     0    
2019/08/25  19:54:00  BASE  13.3358  19   16.0348  24   2.1   97    1.6   11    0     986.6    NA       0.0000   9999     2460  4040  0    
2019/08/25  19:55:00  BASE  13.4476  17   16.0348  24   2.1   96    1.6   11    0     986.5    NA       0.0000   9999     3770  0     0    
2019/08/25  19:56:00  BASE  12.8654  22   16.0348  24   2.1   96    1.5   11    0     986.6    NA       0.0000   9999     2690  4720  0    
2019/08/25  19:57:00  BASE  12.7831  25   16.0348  24   2.1   96    1.5   10    0     986.5    NA       0.0000   9999     5020  0     0    
2019/08/25  19:58:00  BASE  13.5534  18   16.0348  24   2.1   95    1.4   10    0     986.5    NA       0.0000   9999     4330  0     0    
2019/08/25  19:59:00  BASE  12.8184  15   16.0348  24   2.1   95    1.4   10    0     986.6    NA       0.0000   9999     4790  0     0    
2019/08/25  20:00:00  BASE  11.7424  11   16.0348  24   2.1   95    1.4   9     0     986.6    NA       0.0000   9999     4590  0     0    
2019/08/25  20:01:00  BASE  11.2132  11   15.5467  25   2.1   95    1.4   9     0     986.7    NA       0.0000   9999     2430  0     0    
2019/08/25  20:02:00  BASE  12.2128  18   15.2468  15   2.1   95    1.4   9     0     986.5    NA       0.0000   9999     4360  0     0    
2019/08/25  20:03:00  BASE  13.1183  18   15.2468  15   2.2   95    1.5   9     0     986.6    NA       0.0000   9999     3540  0     0    
2019/08/25  20:04:00  BASE  12.9125  19   15.2468  15   2.3   95    1.6   9     0     986.6    NA       0.0000   UP       9999  4000  0    
2019/08/25  20:05:00  BASE  13.7239  21   15.4291  17   2.4   94    1.6   9     0     986.5    NA       0.0000   UP       9999  2690  0    
2019/08/25  20:06:00  BASE  14.4001  23   15.9995  24   2.4   94    1.6   9     0     986.5    NA       0.0000   UP       9999  4660  0    
2019/08/25  20:07:00  BASE  14.4413  25   15.9995  24   2.4   94    1.5   10    0     986.5    NA       0.0000   UP       9999  4760  0    
2019/08/25  20:08:00  BASE  14.1943  24   15.9995  24   2.3   93    1.3   10    0     986.6    NA       0.0000   UP       9999  5180  0    
2019/08/25  20:09:00  BASE  13.9944  24   15.9995  24   2.2   93    1.2   10    0     986.5    NA       0.0000   UP       9999  3670  0    
2019/08/25  20:10:00  BASE  14.0708  27   15.9995  24   2.1   93    1.2   10    0     986.5    NA       0.0000   UP       9999  3940  0    
2019/08/25  20:11:00  BASE  13.6298  26   15.9995  24   2.1   94    1.1   10    0     986.5    NA       0.0000   UP       9999  4200  0    
2019/08/25  20:12:00  BASE  13.9709  25   16.364   29   2.0   94    1.2   10    0     986.4    NA       0.0000   UP       9999  4040  0    
2019/08/25  20:13:00  BASE  14.5824  24   16.6698  25   2.0   94    1.2   10    0     986.5    NA       0.0000   UP       9999  4300  0    
2019/08/25  20:14:00  BASE  15.0822  24   16.6698  25   2.0   94    1.2   10    0     986.4    NA       0.0000   UP       9999  5320  0    
2019/08/25  20:15:00  BASE  14.8058  25   16.6698  25   2.0   94    1.2   10    0     986.5    NA       0.0000   UP       9999  3740  4490 
2019/08/25  20:16:00  BASE  13.7827  26   16.6698  25   2.1   94    1.2   10    0     986.5    NA       0.0000   UP       9999  4170  5120 
2019/08/25  20:17:00  BASE  14.4648  26   16.6698  25   2.1   94    1.2   10    0     986.5    NA       0.0000   9999     4460  0     0    
2019/08/25  20:18:00  BASE  15.3409  24   16.6698  25   2.1   94    1.2   9     0     986.5    NA       0.0000   9999     4630  0     0    
2019/08/25  20:19:00  BASE  14.8058  24   16.6698  25   2.2   93    1.2   9     0     986.5    NA       0.0000   9999     4230  0     0    
2019/08/25  20:20:00  BASE  13.8474  25   16.6698  25   2.2   93    1.2   8     0     986.5    NA       0.0000   9999     4100  0     0    
2019/08/25  20:21:01  BASE  13.5534  24   16.6698  25   2.2   93    1.1   8     0     986.5    NA       0.0000   9999     3970  0     0    
2019/08/25  20:22:01  BASE  14.3002  25   17.3048  31   2.2   92    1.1   8     0     986.5    NA       0.0000   9999     3540  0     0    
2019/08/25  20:23:00  BASE  15.1469  27   17.3048  31   2.1   92    1.0   7     0     986.5    NA       0.0000   9999     3840  0     0    
2019/08/25  20:24:01  BASE  14.4236  28   17.3048  31   2.1   92    1.0   7     0     986.6    NA       0.0000   9999     3810  0     0    
2019/08/25  20:25:00  BASE  14.4707  30   17.3048  31   2.1   92    0.9   6     0     986.5    NA       0.0000   9999     3740  0     0    
2019/08/25  20:26:01  BASE  15.3056  28   17.3048  31   2.1   92    0.9   6     0     986.5    NA       0.0000   9999     2660  4400  0    
2019/08/25  20:27:00  BASE  14.8411  26   17.3048  31   2.1   92    0.9   6     0     986.5    NA       0.0000   9999     2850  0     0    
2019/08/25  20:28:01  BASE  13.9532  28   17.3048  31   2.1   92    0.9   6     0     986.6    NA       0.0000   9999     3540  0     0    
2019/08/25  20:29:00  BASE  13.1124  26   17.3048  31   2.1   92    0.9   6     0     986.6    NA       0.0000   9999     2890  0     0    
2019/08/25  20:30:00  BASE  13.1359  26   17.3048  31   2.1   92    0.9   6     0     986.6    NA       0.0000   9999     4460  0     0    
2019/08/25  20:31:00  BASE  13.7063  26   17.3048  31   2.1   92    0.9   6     0     986.6    NA       0.0000   9999     3710  4200  4660 
2019/08/25  20:32:00  BASE  13.671   26   17.2108  25   2.1   92    0.9   6     0     986.7    NA       0.0000   9999     3120  0     0    
2019/08/25  20:33:00  BASE  13.4358  26   16.2758  28   2.1   92    0.9   6     0     986.6    NA       0.0000   9999     3050  4920  0    
2019/08/25  20:34:00  BASE  13.5181  25   16.2758  28   2.1   92    0.9   6     0     986.6    NA       0.0000   9999     3280  4890  0    
2019/08/25  20:35:00  BASE  13.9238  25   16.2758  28   2.0   92    0.9   6     0     986.6    NA       0.0000   9999     4560  0     0    
2019/08/25  20:36:00  BASE  14.6294  25   16.2758  28   2.0   92    0.8   6     0     986.5    NA       0.0000   9999     4230  0     0    
2019/08/25  20:37:00  BASE  15.2057  25   17.2108  19   2.0   92    0.8   6     0     986.5    NA       0.0000   9999     3640  5050  0    
2019/08/25  20:38:00  BASE  15.1469  24   17.2108  19   2.0   92    0.9   6     0     986.6    NA       0.0000   9999     2790  5380  6140 
2019/08/25  20:39:01  BASE  14.6647  24   17.2108  19   2.0   92    0.9   5     0     986.7    NA       0.0000   9999     3670  5580  0    
2019/08/25  20:40:00  BASE  14.8646  24   17.2108  19   2.0   92    0.9   5     0     986.6    NA       0.0000   9999     3740  0     0    
2019/08/25  20:41:00  BASE  15.1057  22   17.2108  19   2.0   92    0.9   5     0     986.6    NA       0.0000   9999     3740  4590  0    
2019/08/25  20:42:01  BASE  14.6882  19   17.2108  19   2.0   92    0.9   5     0     986.6    NA       0.0000   9999     3670  4760  0    
2019/08/25  20:43:00  BASE  14.7941  21   17.2108  19   2.0   92    0.9   5     0     986.6    NA       0.0000   9999     3510  0     0    
2019/08/25  20:44:01  BASE  15.8584  23   17.5459  22   2.0   92    0.9   5     0     986.5    NA       0.0000   9999     3640  0     0    
2019/08/25  20:45:00  BASE  16.1112  23   17.5459  22   2.0   92    0.9   5     0     986.6    NA       0.0000   9999     3670  0     0    
2019/08/25  20:46:01  BASE  15.388   20   17.5459  22   2.0   92    0.8   5     0     986.7    NA       0.0000   9999     4040  4860  0    
2019/08/25  20:47:00  BASE  14.4354  18   17.5459  22   2.0   92    0.8   5     0     986.8    NA       0.0000   9999     2850  4100  5710 
2019/08/25  20:48:01  BASE  13.0595  13   17.5459  22   2.0   92    0.8   5     0     986.9    NA       0.0000   9999     2850  0     0    
2019/08/25  20:49:00  BASE  12.4832  11   17.5459  22   1.9   92    0.8   4     0     986.9    NA       0.0000   9999     2820  0     0    
2019/08/25  20:50:00  BASE  12.3304  16   17.5459  22   1.9   92    0.8   4     0     987.0    NA       0.0000   9999     4560  0     0    
2019/08/25  20:51:00  BASE  12.2833  19   17.5459  22   1.9   93    0.9   4     0     986.9    NA       0.0000   9999     4660  0     0    
2019/08/25  20:52:00  BASE  12.7949  20   17.5459  22   2.0   93    1.0   4     0     986.9    NA       0.0000   9999     4860  0     0    
2019/08/25  20:53:00  BASE  13.2418  23   17.5459  22   2.0   93    1.1   4     0     986.9    NA       0.0000   9999     5180  0     0    
2019/08/25  20:54:00  BASE  12.6949  22   16.9991  23   2.1   93    1.1   4     0     987.0    NA       0.0000   9999     2560  5320  0    
2019/08/25  20:55:00  BASE  12.642   21   16.123   17   2.2   93    1.1   4     0     986.9    NA       0.0000   9999     2620  4760  0    
2019/08/25  20:56:00  BASE  13.8415  20   15.8819  19   2.2   92    1.1   3     0     986.9    NA       0.0000   9999     2530  6370  0    
2019/08/25  20:57:00  BASE  13.6945  17   15.8819  19   2.2   92    1.1   3     0     987.1    NA       0.0000   9999     2200  6270  0    
2019/08/25  20:58:00  BASE  12.4656  15   15.8819  19   2.3   92    1.1   3     0     987.1    NA       0.0000   9999     6140  0     0    
2019/08/25  20:59:00  BASE  11.8776  14   15.8819  19   2.3   92    1.0   3     0     987.1    NA       0.0000   9999     5970  0     0    
2019/08/25  21:00:00  BASE  12.0893  15   15.8819  19   2.3   91    1.0   3     0     987.1    NA       0.0000   9999     3480  5940  0    
2019/08/25  21:01:00  BASE  12.3598  17   15.8819  19   2.3   91    0.9   3     0     987.1    NA       0.0000   9999     3540  5840  0    
2019/08/25  21:02:01  BASE  12.4303  14   15.8819  19   2.2   91    0.9   2     0     987.1    NA       0.0000   9999     5580  0     0    
2019/08/25  21:03:00  BASE  12.8596  10   15.8819  19   2.2   91    0.8   2     0     987.1    NA       0.0000   9999     5410  0     0    
2019/08/25  21:04:01  BASE  12.4891  13   15.8819  19   2.2   91    0.8   2     0     987.2    NA       0.0000   9999     5410  0     0    
2019/08/25  21:05:00  BASE  11.6365  18   15.8819  19   2.2   91    0.8   2     0     987.2    NA       0.0000   9999     2490  5480  0    
2019/08/25  21:06:00  BASE  12.3598  15   15.0352  12   2.1   91    0.8   2     0     987.1    NA       0.0000   9999     5180  0     0    
2019/08/25  21:07:00  BASE  12.9772  12   15.0352  12   2.2   91    0.8   2     0     987.1    NA       0.0000   9999     5250  0     0    
2019/08/25  21:08:00  BASE  12.5009  11   15.0352  12   2.2   91    0.8   2     0     987.2    NA       0.0000   9999     5220  6790  0    
2019/08/25  21:09:00  BASE  12.3068  15   15.0352  12   2.2   91    0.8   2     0     987.2    NA       0.0000   9999     6530  7090  0    
2019/08/25  21:10:00  BASE  12.2716  19   15.0352  12   2.2   91    0.9   2     0     987.2    NA       0.0000   9999     6500  0     0    
2019/08/25  21:11:00  BASE  12.542   18   15.0352  12   2.2   91    0.9   2     0     987.2    NA       0.0000   9999     2300  6000  0    
2019/08/25  21:12:00  BASE  12.8537  19   15.0352  12   2.2   91    0.9   2     0     987.2    NA       0.0000   9999     5510  0     0    
2019/08/25  21:13:00  BASE  12.6361  17   15.0352  12   2.2   91    0.9   2     0     987.2    NA       0.0000   9999     5480  0     0    
2019/08/25  21:14:00  BASE  12.248   10   15.0352  12   2.3   91    1.0   1     0     987.3    NA       0.0000   9999     5580  0     0    
2019/08/25  21:15:00  BASE  11.8129  6    15.0352  12   2.3   91    0.9   1     0     987.4    NA       0.0000   9999     5640  0     0    
2019/08/25  21:16:00  BASE  12.6596  8    15.4879  4    2.3   91    0.9   1     0     987.2    NA       0.0000   9999     6200  0     0    
2019/08/25  21:17:00  BASE  12.9419  9    15.4879  4    2.3   90    0.8   1     0     987.4    NA       0.0000   9999     5320  0     0    
2019/08/25  21:18:00  BASE  12.2951  7    15.4879  4    2.2   90    0.8   1     0     987.3    NA       0.0000   9999     5540  0     0    
2019/08/25  21:19:00  BASE  12.2774  1    15.4879  4    2.2   90    0.8   1     0     987.4    NA       0.0000   9999     2230  5250  0    
2019/08/25  21:20:00  BASE  12.2774  353  15.4879  4    2.2   91    0.8   0     0     987.4    NA       0.0000   9999     6300  0     0    
2019/08/25  21:21:00  BASE  12.6479  356  15.4879  4    2.2   91    0.8   0     0     987.4    NA       0.0000   9999     6140  0     0    
2019/08/25  21:22:00  BASE  13.2829  1    15.4879  4    2.2   91    0.9   0     0     987.3    NA       0.0000   9999     0     0     0    
2019/08/25  21:23:00  BASE  13.2006  2    15.4879  4    2.2   91    0.9   0     0     987.4    NA       0.0000   9999     0     0     0    
2019/08/25  21:24:00  BASE  12.3598  4    15.4879  4    2.1   91    0.8   0     0     987.5    NA       0.0000   9999     950   0     0    
2019/08/25  21:25:00  BASE  11.86    9    15.4879  4    2.1   91    0.8   0     0     987.5    NA       0.0000   9999     660   0     0    
2019/08/25  21:26:00  BASE  11.9423  8    14.4295  1    2.0   92    0.8   0     0     987.5    NA       0.0000   9999     0     0     0    
2019/08/25  21:27:00  BASE  12.1657  5    14.4295  1    1.9   92    0.8   0     0     987.5    NA       0.0000   9999     0     0     0    
2019/08/25  21:28:00  BASE  12.8302  6    14.4295  1    1.9   92    0.8   0     0     987.5    NA       0.0000   9999     4430  0     0    
2019/08/25  21:29:00  BASE  12.7537  7    14.4295  1    1.9   93    0.9   0     0     987.6    NA       0.0000   9999     1080  0     0    
2019/08/25  21:30:00  BASE  11.8541  5    14.4295  1    2.0   93    0.9   0     0     987.7    NA       0.0000   9999     4400  0     0    
2019/08/25  21:31:00  BASE  11.5013  3    14.4295  1    1.9   93    1.0   0     0     987.7    NA       0.0000   9999     0     0     0    
2019/08/25  21:32:00  BASE  12.0893  5    14.2766  7    1.9   93    1.0   0     0     987.6    NA       0.0000   9999     0     0     0    
2019/08/25  21:33:00  BASE  11.954   4    14.2766  7    1.9   94    1.0   0     0     987.7    NA       0.0000   9999     0     0     0    
2019/08/25  21:34:00  BASE  10.8486  358  14.2766  7    2.0   94    1.1   0     0     987.7    NA       0.0000   9999     0     0     0    
2019/08/25  21:35:00  BASE  11.0838  360  14.2766  7    2.0   94    1.2   0     0     987.7    NA       0.0000   9999     1610  0     0    
2019/08/25  21:36:00  BASE  11.8012  5    14.2766  7    2.0   94    1.2   0     0     987.6    NA       0.0000   9999     0     0     0    
2019/08/25  21:37:00  BASE  11.613   6    14.2766  7    2.1   94    1.2   0     0     987.7    NA       0.0000   9999     1510  0     0    
2019/08/25  21:38:00  BASE  11.0956  6    13.7651  8    2.0   94    1.2   0     0     987.7    NA       0.0000   9999     0     0     0    
2019/08/25  21:39:00  BASE  11.86    6    14.2178  3    2.0   94    1.2   0     0     987.6    NA       0.0000   9999     0     0     0    
2019/08/25  21:40:00  BASE  12.3362  6    14.2178  3    2.0   94    1.2   0     0     987.7    NA       0.0000   9999     0     0     0    
2019/08/25  21:41:00  BASE  11.2249  6    14.2178  3    2.0   95    1.2   0     0     987.8    NA       0.0000   9999     0     0     0    
2019/08/25  21:42:00  BASE  10.5722  4    14.2178  3    2.0   95    1.2   0     0     987.8    NA       0.0000   9999     0     0     0    
2019/08/25  21:43:00  BASE  10.9486  4    14.2178  3    2.0   95    1.3   0     0     987.8    NA       0.0000   9999     0     0     0    
2019/08/25  21:44:00  BASE  11.7718  9    14.2178  3    2.0   95    1.3   0     0     987.7    NA       0.0000   9999     0     0     0    
2019/08/25  21:45:00  BASE  11.9011  10   14.2178  3    2.0   95    1.3   0     0     987.7    NA       0.0000   9999     0     0     0    
2019/08/25  21:46:00  BASE  11.5483  7    14.2178  3    2.0   95    1.3   0     0     987.8    NA       0.0000   9999     0     0     0    
2019/08/25  21:47:00  BASE  11.5248  4    14.2178  3    2.0   95    1.3   0     0     987.7    NA       0.0000   9999     0     0     0    
2019/08/25  21:48:00  BASE  12.054   3    14.2178  3    2.0   95    1.3   0     0     987.7    NA       0.0000   9999     0     0     0    
2019/08/25  21:49:01  BASE  11.9188  4    13.9768  2    2.0   95    1.3   0     0     987.8    NA       0.0000   9999     0     0     0    
2019/08/25  21:50:00  BASE  11.3308  4    13.9768  2    2.0   95    1.2   0     0     987.8    NA       0.0000   9999     0     0     0    
2019/08/25  21:51:00  BASE  11.0662  6    13.9768  2    2.0   94    1.2   0     0     987.9    NA       0.0000   9999     0     0     0    
2019/08/25  21:52:00  BASE  10.5722  4    13.9768  2    2.0   94    1.2   0     0     987.9    NA       0.0000   9999     0     0     0    
2019/08/25  21:53:00  BASE  10.7251  359  13.9768  2    1.9   94    1.1   0     0     987.9    NA       0.0000   9999     0     0     0    
2019/08/25  21:54:00  BASE  10.7604  356  13.9768  2    1.9   95    1.1   0     0     987.9    NA       0.0000   9999     0     0     0    
2019/08/25  21:55:00  BASE  9.94308  353  13.9768  2    1.9   95    1.2   0     0     988.0    NA       0.0000   9999     0     0     0    
2019/08/25  21:56:00  BASE  9.01404  348  13.9768  2    1.9   96    1.2   0     0     988.1    NA       0.0000   9999     0     0     0    
2019/08/25  21:57:00  BASE  8.64948  343  13.9768  2    1.8   96    1.2   0     0     988.2    NA       0.0000   9999     2200  0     0    
2019/08/25  21:58:00  BASE  9.0552   343  12.7361  354  1.8   96    1.3   0     0     988.1    NA       0.0000   9999     0     0     0    
2019/08/25  21:59:00  BASE  9.54912  346  12.7361  354  1.8   96    1.3   0     0     988.1    NA       0.0000   9999     2200  0     0    
2019/08/25  22:00:00  BASE  9.80196  352  12.7361  354  1.7   97    1.3   0     0     988.1    NA       0.0000   9999     0     0     0    
2019/08/25  22:01:00  BASE  9.5844   352  12.7361  354  1.7   97    1.3   0     0     988.1    NA       0.0000   9999     0     0     0    
2019/08/25  22:02:00  BASE  9.16692  356  12.7361  354  1.7   98    1.3   0     0     988.1    NA       0.0000   9999     0     0     0    
2019/08/25  22:03:00  BASE  9.1434   358  11.5542  353  1.7   98    1.4   0     0     988.2    NA       0.0000   9999     0     0     0    
2019/08/25  22:04:00  BASE  9.11988  350  11.2543  339  1.7   98    1.4   0     0     988.1    NA       0.0000   9999     0     0     0    
2019/08/25  22:05:00  BASE  9.28452  348  11.2543  339  1.7   99    1.5   0     0     988.2    NA       0.0000   9999     0     0     0    
2019/08/25  22:06:00  BASE  9.85488  354  11.5248  354  1.7   99    1.5   0     0     988.1    NA       0.0000   9999     0     0     0    
2019/08/25  22:07:00  BASE  9.45504  356  11.5248  354  1.7   99    1.6   0     0     988.2    NA       0.0000   9999     0     0     0    
2019/08/25  22:08:00  BASE  9.29628  353  11.5248  354  1.7   99    1.6   0     0     988.2    NA       0.0000   9999     0     0     0    
2019/08/25  22:09:00  BASE  9.75492  358  11.5836  6    1.7   99    1.6   0     0     988.1    NA       0.0000   9999     460   0     0    
2019/08/25  22:10:00  BASE  10.29    4    11.5836  6    1.7   99    1.6   0     0     988.2    NA       0.0000   9999     0     0     0    
2019/08/25  22:11:00  BASE  10.6722  5    11.5836  6    1.7   99    1.5   0     0     988.2    NA       0.0000   9999     430   0     0    
2019/08/25  22:12:00  BASE  10.0724  1    11.5836  6    1.6   99    1.5   0     0     988.2    NA       0.0000   9999     430   0     0    
2019/08/25  22:13:00  BASE  9.89016  357  11.5836  6    1.6   99    1.4   0     0     988.2    NA       0.0000   9999     2230  0     0    
2019/08/25  22:14:00  BASE  9.89016  355  11.5836  6    1.5   99    1.4   0     0     988.2    NA       0.0000   9999     2000  0     0    
2019/08/25  22:15:00  BASE  9.71376  0    11.5836  6    1.5   99    1.4   0     0     988.2    NA       0.0000   9999     2000  0     0    
2019/08/25  22:16:00  BASE  9.9372   5    11.5836  6    1.5   99    1.4   0     0     988.2    NA       0.0000   UP       9999  1870  0    
2019/08/25  22:17:00  BASE  9.93132  3    11.5836  6    1.5   99    1.4   0     0     988.3    NA       0.0000   UP       9999  1840  0    
2019/08/25  22:18:00  BASE  10.29    1    11.7659  1    1.5   100   1.5   0     0     988.2    NA       0.0000   UP       9999  1770  0    
2019/08/25  22:19:00  BASE  10.7898  1    11.7659  1    1.6   100   1.5   0     0     988.2    NA       0.0000   UP       9999  1870  0    
2019/08/25  22:20:00  BASE  10.5722  3    11.7659  1    1.6   100   1.5   0     0     988.2    NA       0.0000   UP       9999  520   0    
2019/08/25  22:21:00  BASE  9.96072  3    11.7659  1    1.6   100   1.5   0     0     988.3    NA       0.0000   UP       9999  520   0    
2019/08/25  22:22:00  BASE  9.14928  5    11.7659  1    1.6   100   1.6   0     0     988.4    NA       0.0000   UP       9999  1870  0    
2019/08/25  22:23:00  BASE  9.06696  5    11.7659  1    1.6   99    1.6   0     0     988.4    NA       0.0000   UP       9999  490   0    
2019/08/25  22:24:00  BASE  9.62556  4    11.7659  1    1.7   99    1.5   0     0     988.3    NA       0.0000   UP       9999  0     0    
2019/08/25  22:25:00  BASE  9.70788  6    11.7659  1    1.7   99    1.5   0     0     988.4    NA       0.0000   UP       9999  890   1840 
2019/08/25  22:26:00  BASE  8.65536  1    11.7659  1    1.7   99    1.6   0     0     988.4    NA       0.0000   UP       9999  1770  0    
2019/08/25  22:27:00  BASE  8.40252  356  11.7659  1    1.7   99    1.6   0     0     988.4    NA       0.0000   UP       9999  490   0    
2019/08/25  22:28:00  BASE  9.5256   359  11.4954  3    1.7   99    1.5   0     0     988.4    NA       0.0000   9999     430   0     0    
2019/08/25  22:29:00  BASE  9.74904  355  11.4013  5    1.7   99    1.5   0     0     988.4    NA       0.0000   9999     430   0     0    
2019/08/25  22:30:00  BASE  9.2316   357  11.0132  360  1.7   99    1.5   0     0     988.4    NA       0.0000   9999     0     0     0    
2019/08/25  22:31:00  BASE  9.15516  2    11.0132  360  1.7   99    1.5   0     0     988.4    NA       0.0000   9999     0     0     0    
2019/08/25  22:32:00  BASE  9.50796  355  11.0132  360  1.7   99    1.5   0     0     988.4    NA       0.0000   9999     0     0     0    
2019/08/25  22:33:00  BASE  9.57264  354  11.0132  360  1.7   99    1.6   0     0     988.5    NA       0.0000   9999     0     0     0    
2019/08/25  22:34:01  BASE  9.4374   358  11.0132  360  1.8   99    1.6   0     0     988.5    NA       0.0000   9999     0     0     0    
2019/08/25  22:35:00  BASE  9.3198   355  11.0132  360  1.8   99    1.6   0     0     988.5    NA       0.0000   9999     390   0     0    
2019/08/25  22:36:00  BASE  8.77296  358  11.0132  360  1.8   99    1.6   0     0     988.5    NA       0.0000   9999     0     0     0    
2019/08/25  22:37:00  BASE  8.89056  2    11.0132  360  1.8   99    1.6   0     0     988.5    NA       0.0000   9999     0     0     0    
2019/08/25  22:38:00  BASE  9.66672  0    11.072   360  1.7   99    1.5   0     0     988.5    NA       0.0000   9999     0     0     0    
2019/08/25  22:39:01  BASE  10.0254  1    11.072   360  1.7   99    1.5   0     0     988.5    NA       0.0000   9999     0     0     0    
2019/08/25  22:40:00  BASE  9.66672  2    11.072   360  1.6   99    1.5   0     0     988.5    NA       0.0000   9999     0     0     0    
2019/08/25  22:41:00  BASE  9.4962   1    11.072   360  1.6   99    1.5   0     0     988.5    NA       0.0000   9999     390   0     0    
2019/08/25  22:42:00  BASE  9.1434   357  11.072   360  1.6   99    1.5   0     0     988.6    NA       0.0000   9999     1710  0     0    
2019/08/25  22:43:00  BASE  8.22024  353  11.072   360  1.6   99    1.5   0     0     988.6    NA       0.0000   9999     1610  0     0    
2019/08/25  22:44:00  BASE  8.50248  357  11.072   360  1.6   100   1.5   0     0     988.6    NA       0.0000   9999     1670  0     0    
2019/08/25  22:45:00  BASE  9.53736  359  11.072   360  1.6   100   1.6   0     0     988.6    NA       0.0000   9999     430   0     0    
2019/08/25  22:46:00  BASE  9.54912  359  11.072   360  1.6   100   1.6   0     0     988.7    NA       0.0000   9999     460   0     0    
2019/08/25  22:47:00  BASE  8.66124  359  11.072   360  1.6   100   1.6   0     0     988.7    NA       0.0000   9999     1670  0     0    
2019/08/25  22:48:00  BASE  8.29668  357  10.831   1    1.6   100   1.6   0     0     988.7    NA       0.0000   9999     1480  0     0    
2019/08/25  22:49:00  BASE  8.22024  356  10.831   1    1.7   100   1.7   0     0     988.7    NA       0.0000   9999     1210  0     0    
2019/08/25  22:50:00  BASE  8.13204  358  10.831   1    1.7   100   1.7   0     0     988.7    NA       0.0000   9999     1440  0     0    
2019/08/25  22:51:00  BASE  8.22612  358  10.831   1    1.6   100   1.6   0     0     988.7    NA       0.0000   9999     1280  0     0    
2019/08/25  22:52:00  BASE  8.16732  358  10.831   1    1.7   100   1.7   0     0     988.7    NA       0.0000   9999     1510  4070  0    
2019/08/25  22:53:00  BASE  8.03796  357  10.831   1    1.6   100   1.6   0     0     988.7    NA       0.0000   9999     1540  4000  0    
2019/08/25  22:54:00  BASE  8.085    353  10.831   1    1.6   100   1.6   0     0     988.7    NA       0.0000   9999     1410  4000  0    
2019/08/25  22:55:00  BASE  8.04384  355  9.77256  1    1.6   100   1.6   0     0     988.7    NA       0.0000   9999     1440  4040  0    
2019/08/25  22:56:00  BASE  8.19084  355  9.28452  343  1.6   100   1.6   0     0     988.7    NA       0.0000   9999     1480  2490  0    
2019/08/25  22:57:00  BASE  8.27904  348  9.28452  343  1.6   100   1.6   0     0     988.8    NA       0.0000   9999     1640  2790  0    
2019/08/25  22:58:00  BASE  8.09088  346  9.28452  343  1.6   100   1.6   0     0     988.8    NA       0.0000   9999     2620  4170  0    
2019/08/25  22:59:00  BASE  8.04972  351  9.28452  343  1.6   100   1.6   0     0     988.8    NA       0.0000   9999     430   0     0    
2019/08/25  23:00:00  BASE  7.8792   348  9.28452  343  1.6   100   1.6   0     0     988.9    NA       0.0000   9999     430   0     0    
2019/08/25  23:01:00  BASE  7.25592  349  9.28452  343  1.6   100   1.6   0     0     989.0    NA       0.0000   9999     390   2300  0    
2019/08/25  23:02:00  BASE  7.05012  352  9.28452  343  1.6   100   1.6   0     0     988.9    NA       0.0000   9999     360   0     0    
2019/08/25  23:03:00  BASE  7.76748  349  9.28452  343  1.6   100   1.6   0     0     988.9    NA       0.0000   9999     330   0     0    
2019/08/25  23:04:00  BASE  8.13792  349  9.28452  343  1.6   100   1.6   0     0     988.9    NA       0.0000   9999     360   0     0    
2019/08/25  23:05:00  BASE  7.74396  348  9.28452  343  1.6   100   1.6   0     0     989.0    NA       0.0000   9999     1570  0     0    
2019/08/25  23:06:00  BASE  7.65576  350  9.04344  353  1.5   100   1.5   0     0     988.9    NA       0.0000   9999     1510  0     0    
2019/08/25  23:07:00  BASE  8.39076  355  10.8016  1    1.5   100   1.5   0     0     988.9    NA       0.0000   9999     1570  0     0    
2019/08/25  23:08:00  BASE  9.01992  352  10.8016  1    1.5   100   1.5   0     0     988.9    NA       0.0000   9999     1440  0     0    
2019/08/25  23:09:00  BASE  9.04932  348  10.8016  1    1.5   100   1.5   0     0     988.9    NA       0.0000   9999     1380  0     0    
2019/08/25  23:10:00  BASE  8.62596  346  10.8016  1    1.5   100   1.5   0     0     988.9    NA       0.0000   9999     1380  0     0    
2019/08/25  23:11:00  BASE  8.53188  347  10.8016  1    1.5   100   1.5   0     0     988.9    NA       0.0000   9999     1350  0     0    
2019/08/25  23:12:00  BASE  8.37312  347  10.8016  1    1.5   100   1.5   0     0     989.0    NA       0.0000   9999     1670  0     0    
2019/08/25  23:13:00  BASE  8.03796  347  10.8016  1    1.5   100   1.5   0     0     989.0    NA       0.0000   9999     1610  0     0    
2019/08/25  23:14:00  BASE  8.02032  346  10.8016  1    1.5   100   1.5   0     0     989.0    NA       0.0000   9999     1380  0     0    
2019/08/25  23:15:00  BASE  8.23788  346  10.8016  1    1.5   100   1.5   0     0     988.9    NA       0.0000   9999     1480  0     0    
2019/08/25  23:16:00  BASE  8.4084   349  10.8016  1    1.5   100   1.5   0     0     989.0    NA       0.0000   9999     1540  0     0    
2019/08/25  23:17:00  BASE  8.12028  348  10.5899  360  1.4   100   1.4   0     0     989.0    NA       0.0000   9999     1440  0     0    
2019/08/25  23:18:00  BASE  7.86156  350  9.80196  346  1.4   100   1.4   0     0     989.0    NA       0.0000   9999     1350  0     0    
2019/08/25  23:19:00  BASE  8.28492  349  9.70788  348  1.4   100   1.4   0     0     989.0    NA       0.0000   9999     1280  0     0    
2019/08/25  23:20:00  BASE  8.62008  351  9.70788  348  1.4   100   1.4   0     0     989.0    NA       0.0000   9999     1440  0     0    
2019/08/25  23:21:00  BASE  8.36136  354  9.70788  348  1.4   100   1.4   0     0     989.0    NA       0.0000   9999     1440  0     0    
2019/08/25  23:22:00  BASE  7.92036  352  9.70788  348  1.4   100   1.4   0     0     989.1    NA       0.0000   9999     1540  0     0    
2019/08/25  23:23:00  BASE  7.32648  350  9.70788  348  1.4   100   1.4   0     0     989.1    NA       0.0000   9999     1350  0     0    
2019/08/25  23:24:00  BASE  7.07364  348  9.70788  348  1.3   100   1.3   0     0     989.1    NA       0.0000   9999     1440  0     0    
2019/08/25  23:25:00  BASE  7.60284  345  9.70788  348  1.3   100   1.3   0     0     989.1    NA       0.0000   9999     1280  0     0    
2019/08/25  23:26:00  BASE  7.8204   345  9.70788  348  1.2   100   1.2   0     0     989.1    NA       0.0000   9999     1440  0     0    
2019/08/25  23:27:00  BASE  7.57344  349  9.70788  348  1.2   100   1.2   0     0     989.1    NA       0.0000   9999     1310  0     0    
2019/08/25  23:28:00  BASE  8.06148  353  9.70788  348  1.2   100   1.2   0     0     989.1    NA       0.0000   9999     1050  0     0    
2019/08/25  23:29:00  BASE  8.95524  353  9.98424  360  1.2   100   1.2   0     0     989.0    NA       0.0000   9999     590   0     0    
2019/08/25  23:30:00  BASE  9.18456  350  9.98424  360  1.2   100   1.2   0     0     989.1    NA       0.0000   9999     620   0     0    
2019/08/25  23:31:00  BASE  8.24376  346  9.98424  360  1.3   100   1.3   0     0     989.1    NA       0.0000   9999     720   0     0    
2019/08/25  23:32:00  BASE  7.79688  349  9.98424  360  1.3   100   1.3   0     0     989.1    NA       0.0000   9999     750   0     0    
2019/08/25  23:33:00  BASE  8.30844  354  9.98424  360  1.3   100   1.3   0     0     989.1    NA       0.0000   9999     560   0     0    
2019/08/25  23:34:00  BASE  7.91448  354  9.98424  360  1.3   100   1.3   0     0     989.1    NA       0.0000   9999     390   0     0    
2019/08/25  23:35:00  BASE  7.56756  353  9.98424  360  1.2   100   1.2   0     0     989.1    NA       0.0000   9999     390   0     0    
2019/08/25  23:36:00  BASE  8.34372  352  10.043   353  1.2   100   1.2   0     0     989.1    NA       0.0000   9999     1570  0     0    
2019/08/25  23:37:00  BASE  8.19084  352  10.043   353  1.2   100   1.2   0     0     989.1    NA       0.0000   9999     430   0     0    
2019/08/25  23:38:00  BASE  8.0262   357  10.043   353  1.2   100   1.2   0     0     989.1    NA       0.0000   9999     390   0     0    
2019/08/25  23:39:00  BASE  8.50248  356  10.043   353  1.2   100   1.2   0     0     989.1    NA       0.0000   9999     360   0     0    
2019/08/25  23:40:00  BASE  8.6436   352  10.043   353  1.2   100   1.2   0     0     989.1    NA       0.0000   9999     390   0     0    
2019/08/25  23:41:00  BASE  8.63184  356  10.043   353  1.2   100   1.2   0     0     989.2    NA       0.0000   9999     1410  0     0    
2019/08/25  23:42:00  BASE  8.673    356  10.043   353  1.2   100   1.2   0     0     989.1    NA       0.0000   9999     390   0     0    
2019/08/25  23:43:00  BASE  8.82588  354  10.043   353  1.2   100   1.2   0     0     989.2    NA       0.0000   9999     1380  0     0    
2019/08/25  23:44:00  BASE  8.7318   351  10.043   353  1.2   100   1.2   0     0     989.2    NA       0.0000   9999     1380  0     0    
2019/08/25  23:45:00  BASE  8.5554   348  10.043   353  1.2   100   1.2   0     0     989.2    NA       0.0000   9999     460   0     0    
2019/08/25  23:46:00  BASE  8.06148  352  9.83136  347  1.2   100   1.2   0     0     989.3    NA       0.0000   9999     750   0     0    
2019/08/25  23:47:00  BASE  7.74984  351  9.83136  347  1.2   100   1.2   0     0     989.3    NA       0.0000   9999     1440  0     0    
2019/08/25  23:48:00  BASE  8.27316  349  9.83136  347  1.2   100   1.2   0     0     989.2    NA       0.0000   9999     1480  0     0    
2019/08/25  23:49:00  BASE  8.63184  351  9.83136  347  1.2   100   1.2   0     0     989.2    NA       0.0000   9999     1610  0     0    
2019/08/25  23:50:00  BASE  8.1732   351  9.64908  353  1.2   100   1.2   0     0     989.3    NA       0.0000   9999     2100  0     0    
2019/08/25  23:51:00  BASE  8.04384  349  9.64908  353  1.2   100   1.2   0     0     989.3    NA       0.0000   9999     1540  0     0    
2019/08/25  23:52:00  BASE  8.34372  346  9.64908  353  1.2   100   1.2   0     0     989.3    NA       0.0000   9999     1510  0     0    
2019/08/25  23:53:00  BASE  8.47308  347  9.64908  353  1.1   100   1.1   0     0     989.3    NA       0.0000   9999     1440  0     0    
2019/08/25  23:54:00  BASE  7.94976  351  9.64908  353  1.1   100   1.1   0     0     989.4    NA       0.0000   9999     1540  0     0    
2019/08/25  23:55:00  BASE  7.45584  355  9.64908  353  1.1   100   1.1   0     0     989.4    NA       0.0000   9999     1510  0     0    
2019/08/25  23:56:00  BASE  7.84392  353  9.64908  353  1.1   100   1.1   0     0     989.4    NA       0.0000   9999     690   0     0    
2019/08/25  23:57:00  BASE  8.39076  349  9.64908  353  1.1   100   1.1   0     0     989.4    NA       0.0000   9999     1510  0     0    
2019/08/25  23:58:00  BASE  8.00268  350  9.3492   350  1.1   100   1.1   0     0     989.4    NA       0.0000   9999     430   0     0    
2019/08/25  23:59:00  BASE  7.5264   351  9.3492   350  1.1   100   1.1   0     0     989.4    NA       0.0000   9999     390   0     0